<?xml version='1.0' encoding='UTF-8'?>
<gpx version="1.1" creator="https://www.komoot.de" xmlns="http://www.topografix.com/GPX/1/1" xmlns:xsi="http://www.w3.org/2001/XMLSchema-instance" xsi:schemaLocation="http://www.topografix.com/GPX/1/1 http://www.topografix.com/GPX/1/1/gpx.xsd">
  <metadata>
    <name>GVA-MAR - Day 3</name>
    <author>
      <link href="https://www.komoot.de">
        <text>komoot</text>
        <type>text/html</type>
      </link>
    </author>
  </metadata>
  <trk>
    <name>GVA-MAR - Day 3</name>
    <trkseg>
      <trkpt lat="45.701855" lon="5.886457">
        <ele>239.999965</ele>
        <time>2017-06-12T20:32:37.892Z</time>
      </trkpt>
      <trkpt lat="45.701812" lon="5.886373">
        <ele>239.999965</ele>
        <time>2017-06-12T20:32:39.139Z</time>
      </trkpt>
      <trkpt lat="45.701681" lon="5.886049">
        <ele>239.999965</ele>
        <time>2017-06-12T20:32:44.366Z</time>
      </trkpt>
      <trkpt lat="45.701652" lon="5.885941">
        <ele>239.999965</ele>
        <time>2017-06-12T20:32:45.786Z</time>
      </trkpt>
      <trkpt lat="45.701609" lon="5.885849">
        <ele>239.999965</ele>
        <time>2017-06-12T20:32:47.251Z</time>
      </trkpt>
      <trkpt lat="45.701536" lon="5.885743">
        <ele>239.999965</ele>
        <time>2017-06-12T20:32:49.316Z</time>
      </trkpt>
      <trkpt lat="45.701504" lon="5.885708">
        <ele>239.999965</ele>
        <time>2017-06-12T20:32:50.141Z</time>
      </trkpt>
      <trkpt lat="45.701455" lon="5.885675">
        <ele>239.999965</ele>
        <time>2017-06-12T20:32:51.266Z</time>
      </trkpt>
      <trkpt lat="45.701447" lon="5.885753">
        <ele>239.999965</ele>
        <time>2017-06-12T20:32:52.325Z</time>
      </trkpt>
      <trkpt lat="45.701269" lon="5.889426">
        <ele>239.208438</ele>
        <time>2017-06-12T20:33:46.663Z</time>
      </trkpt>
      <trkpt lat="45.701273" lon="5.889995">
        <ele>239.132802</ele>
        <time>2017-06-12T20:33:55.592Z</time>
      </trkpt>
      <trkpt lat="45.701273" lon="5.890013">
        <ele>239.130409</ele>
        <time>2017-06-12T20:33:55.822Z</time>
      </trkpt>
      <trkpt lat="45.701392" lon="5.891448">
        <ele>238.943848</ele>
        <time>2017-06-12T20:34:17.759Z</time>
      </trkpt>
      <trkpt lat="45.701442" lon="5.891689">
        <ele>238.914472</ele>
        <time>2017-06-12T20:34:21.438Z</time>
      </trkpt>
      <trkpt lat="45.701424" lon="5.891694">
        <ele>238.911404</ele>
        <time>2017-06-12T20:34:21.851Z</time>
      </trkpt>
      <trkpt lat="45.701243" lon="5.891742">
        <ele>238.880608</ele>
        <time>2017-06-12T20:34:25.903Z</time>
      </trkpt>
      <trkpt lat="45.701186" lon="5.891757">
        <ele>238.870912</ele>
        <time>2017-06-12T20:34:27.099Z</time>
      </trkpt>
      <trkpt lat="45.701116" lon="5.891776">
        <ele>238.858992</ele>
        <time>2017-06-12T20:34:28.585Z</time>
      </trkpt>
      <trkpt lat="45.700377" lon="5.892014">
        <ele>238.732267</ele>
        <time>2017-06-12T20:34:44.930Z</time>
      </trkpt>
      <trkpt lat="45.700250" lon="5.892121">
        <ele>238.707614</ele>
        <time>2017-06-12T20:34:48.149Z</time>
      </trkpt>
      <trkpt lat="45.700143" lon="5.892171">
        <ele>238.688783</ele>
        <time>2017-06-12T20:34:50.641Z</time>
      </trkpt>
      <trkpt lat="45.700122" lon="5.892115">
        <ele>238.681429</ele>
        <time>2017-06-12T20:34:51.584Z</time>
      </trkpt>
      <trkpt lat="45.700084" lon="5.892082">
        <ele>238.674315</ele>
        <time>2017-06-12T20:34:52.523Z</time>
      </trkpt>
      <trkpt lat="45.700035" lon="5.892084">
        <ele>238.666468</ele>
        <time>2017-06-12T20:34:53.614Z</time>
      </trkpt>
      <trkpt lat="45.699995" lon="5.892124">
        <ele>238.658658</ele>
        <time>2017-06-12T20:34:54.704Z</time>
      </trkpt>
      <trkpt lat="45.699977" lon="5.892179">
        <ele>238.651867</ele>
        <time>2017-06-12T20:34:55.624Z</time>
      </trkpt>
      <trkpt lat="45.699981" lon="5.892239">
        <ele>238.645128</ele>
        <time>2017-06-12T20:34:56.571Z</time>
      </trkpt>
      <trkpt lat="45.699870" lon="5.892256">
        <ele>238.627258</ele>
        <time>2017-06-12T20:34:59.094Z</time>
      </trkpt>
      <trkpt lat="45.699794" lon="5.892212">
        <ele>238.614135</ele>
        <time>2017-06-12T20:35:00.968Z</time>
      </trkpt>
      <trkpt lat="45.698571" lon="5.892600">
        <ele>238.413609</ele>
        <time>2017-06-12T20:35:29.432Z</time>
      </trkpt>
      <trkpt lat="45.698434" lon="5.892688">
        <ele>238.378598</ele>
        <time>2017-06-12T20:35:32.707Z</time>
      </trkpt>
      <trkpt lat="45.698278" lon="5.892854">
        <ele>238.285916</ele>
        <time>2017-06-12T20:35:36.863Z</time>
      </trkpt>
      <trkpt lat="45.698260" lon="5.892895">
        <ele>238.269787</ele>
        <time>2017-06-12T20:35:37.644Z</time>
      </trkpt>
      <trkpt lat="45.698182" lon="5.893077">
        <ele>238.198671</ele>
        <time>2017-06-12T20:35:40.822Z</time>
      </trkpt>
      <trkpt lat="45.698135" lon="5.893170">
        <ele>238.160440</ele>
        <time>2017-06-12T20:35:42.515Z</time>
      </trkpt>
      <trkpt lat="45.698116" lon="5.893419">
        <ele>238.077018</ele>
        <time>2017-06-12T20:35:46.143Z</time>
      </trkpt>
      <trkpt lat="45.698092" lon="5.893598">
        <ele>238.016314</ele>
        <time>2017-06-12T20:35:48.719Z</time>
      </trkpt>
      <trkpt lat="45.698049" lon="5.893690">
        <ele>237.979446</ele>
        <time>2017-06-12T20:35:50.295Z</time>
      </trkpt>
      <trkpt lat="45.697990" lon="5.893814">
        <ele>237.929476</ele>
        <time>2017-06-12T20:35:52.479Z</time>
      </trkpt>
      <trkpt lat="45.697978" lon="5.893811">
        <ele>237.923667</ele>
        <time>2017-06-12T20:35:52.706Z</time>
      </trkpt>
      <trkpt lat="45.697928" lon="5.893908">
        <ele>237.883516</ele>
        <time>2017-06-12T20:35:54.429Z</time>
      </trkpt>
      <trkpt lat="45.697931" lon="5.893921">
        <ele>237.878956</ele>
        <time>2017-06-12T20:35:54.618Z</time>
      </trkpt>
      <trkpt lat="45.697832" lon="5.894099">
        <ele>237.803174</ele>
        <time>2017-06-12T20:35:57.866Z</time>
      </trkpt>
      <trkpt lat="45.697672" lon="5.894352">
        <ele>237.689504</ele>
        <time>2017-06-12T20:36:02.753Z</time>
      </trkpt>
      <trkpt lat="45.697374" lon="5.894872">
        <ele>237.547842</ele>
        <time>2017-06-12T20:36:12.371Z</time>
      </trkpt>
      <trkpt lat="45.697182" lon="5.895212">
        <ele>237.568880</ele>
        <time>2017-06-12T20:36:18.657Z</time>
      </trkpt>
      <trkpt lat="45.697055" lon="5.895363">
        <ele>237.580252</ele>
        <time>2017-06-12T20:36:22.139Z</time>
      </trkpt>
      <trkpt lat="45.696993" lon="5.895420">
        <ele>237.585328</ele>
        <time>2017-06-12T20:36:23.713Z</time>
      </trkpt>
      <trkpt lat="45.696926" lon="5.895483">
        <ele>237.590850</ele>
        <time>2017-06-12T20:36:25.470Z</time>
      </trkpt>
      <trkpt lat="45.696811" lon="5.895553">
        <ele>237.599459</ele>
        <time>2017-06-12T20:36:28.211Z</time>
      </trkpt>
      <trkpt lat="45.695932" lon="5.895771">
        <ele>237.660916</ele>
        <time>2017-06-12T20:36:49.426Z</time>
      </trkpt>
      <trkpt lat="45.695899" lon="5.895795">
        <ele>237.687235</ele>
        <time>2017-06-12T20:36:50.379Z</time>
      </trkpt>
      <trkpt lat="45.695798" lon="5.895820">
        <ele>237.773811</ele>
        <time>2017-06-12T20:36:53.031Z</time>
      </trkpt>
      <trkpt lat="45.695769" lon="5.895802">
        <ele>237.800509</ele>
        <time>2017-06-12T20:36:53.820Z</time>
      </trkpt>
      <trkpt lat="45.695743" lon="5.895797">
        <ele>237.822667</ele>
        <time>2017-06-12T20:36:54.478Z</time>
      </trkpt>
      <trkpt lat="45.695713" lon="5.895800">
        <ele>237.848068</ele>
        <time>2017-06-12T20:36:55.219Z</time>
      </trkpt>
      <trkpt lat="45.695702" lon="5.895807">
        <ele>237.858236</ele>
        <time>2017-06-12T20:36:55.528Z</time>
      </trkpt>
      <trkpt lat="45.695681" lon="5.895818">
        <ele>237.877124</ele>
        <time>2017-06-12T20:36:56.077Z</time>
      </trkpt>
      <trkpt lat="45.695656" lon="5.895861">
        <ele>237.910131</ele>
        <time>2017-06-12T20:36:57.175Z</time>
      </trkpt>
      <trkpt lat="45.695590" lon="5.895922">
        <ele>237.976485</ele>
        <time>2017-06-12T20:36:59.193Z</time>
      </trkpt>
      <trkpt lat="45.695435" lon="5.895941">
        <ele>238.107886</ele>
        <time>2017-06-12T20:37:03.189Z</time>
      </trkpt>
      <trkpt lat="45.694756" lon="5.896038">
        <ele>238.684256</ele>
        <time>2017-06-12T20:37:21.103Z</time>
      </trkpt>
      <trkpt lat="45.694697" lon="5.896039">
        <ele>238.734094</ele>
        <time>2017-06-12T20:37:22.720Z</time>
      </trkpt>
      <trkpt lat="45.694494" lon="5.895992">
        <ele>238.907787</ele>
        <time>2017-06-12T20:37:28.270Z</time>
      </trkpt>
      <trkpt lat="45.694468" lon="5.895970">
        <ele>238.933297</ele>
        <time>2017-06-12T20:37:29.110Z</time>
      </trkpt>
      <trkpt lat="45.694457" lon="5.895946">
        <ele>238.950232</ele>
        <time>2017-06-12T20:37:29.606Z</time>
      </trkpt>
      <trkpt lat="45.694443" lon="5.895927">
        <ele>238.966526</ele>
        <time>2017-06-12T20:37:30.091Z</time>
      </trkpt>
      <trkpt lat="45.694426" lon="5.895913">
        <ele>238.983092</ele>
        <time>2017-06-12T20:37:30.580Z</time>
      </trkpt>
      <trkpt lat="45.694397" lon="5.895904">
        <ele>239.008156</ele>
        <time>2017-06-12T20:37:31.345Z</time>
      </trkpt>
      <trkpt lat="45.694368" lon="5.895911">
        <ele>239.032996</ele>
        <time>2017-06-12T20:37:32.100Z</time>
      </trkpt>
      <trkpt lat="45.694343" lon="5.895933">
        <ele>239.057783</ele>
        <time>2017-06-12T20:37:33.032Z</time>
      </trkpt>
      <trkpt lat="45.694330" lon="5.895955">
        <ele>239.074784</ele>
        <time>2017-06-12T20:37:33.549Z</time>
      </trkpt>
      <trkpt lat="45.694321" lon="5.895981">
        <ele>239.091904</ele>
        <time>2017-06-12T20:37:34.065Z</time>
      </trkpt>
      <trkpt lat="45.694317" lon="5.896011">
        <ele>239.109923</ele>
        <time>2017-06-12T20:37:34.588Z</time>
      </trkpt>
      <trkpt lat="45.694299" lon="5.896034">
        <ele>239.130302</ele>
        <time>2017-06-12T20:37:35.345Z</time>
      </trkpt>
      <trkpt lat="45.694188" lon="5.896101">
        <ele>239.186293</ele>
        <time>2017-06-12T20:37:38.268Z</time>
      </trkpt>
      <trkpt lat="45.693705" lon="5.896076">
        <ele>239.231528</ele>
        <time>2017-06-12T20:37:49.665Z</time>
      </trkpt>
      <trkpt lat="45.693679" lon="5.896068">
        <ele>239.234017</ele>
        <time>2017-06-12T20:37:50.444Z</time>
      </trkpt>
      <trkpt lat="45.693699" lon="5.895989">
        <ele>239.239510</ele>
        <time>2017-06-12T20:37:52.616Z</time>
      </trkpt>
      <trkpt lat="45.693611" lon="5.895917">
        <ele>239.248996</ele>
        <time>2017-06-12T20:37:56.430Z</time>
      </trkpt>
      <trkpt lat="45.693544" lon="5.895751">
        <ele>239.261530</ele>
        <time>2017-06-12T20:38:01.087Z</time>
      </trkpt>
      <trkpt lat="45.693497" lon="5.895743">
        <ele>239.265960</ele>
        <time>2017-06-12T20:38:02.778Z</time>
      </trkpt>
      <trkpt lat="45.693349" lon="5.895712">
        <ele>239.279959</ele>
        <time>2017-06-12T20:38:08.253Z</time>
      </trkpt>
      <trkpt lat="45.693210" lon="5.895571">
        <ele>239.295903</ele>
        <time>2017-06-12T20:38:14.098Z</time>
      </trkpt>
      <trkpt lat="45.693122" lon="5.895506">
        <ele>239.305171</ele>
        <time>2017-06-12T20:38:17.541Z</time>
      </trkpt>
      <trkpt lat="45.693034" lon="5.895475">
        <ele>239.313653</ele>
        <time>2017-06-12T20:38:20.902Z</time>
      </trkpt>
      <trkpt lat="45.692653" lon="5.894936">
        <ele>239.829006</ele>
        <time>2017-06-12T20:38:31.985Z</time>
      </trkpt>
      <trkpt lat="45.692407" lon="5.894730">
        <ele>240.691098</ele>
        <time>2017-06-12T20:38:38.744Z</time>
      </trkpt>
      <trkpt lat="45.692271" lon="5.894669">
        <ele>241.122211</ele>
        <time>2017-06-12T20:38:42.970Z</time>
      </trkpt>
      <trkpt lat="45.692246" lon="5.894658">
        <ele>241.201326</ele>
        <time>2017-06-12T20:38:43.783Z</time>
      </trkpt>
      <trkpt lat="45.692068" lon="5.894654">
        <ele>241.739834</ele>
        <time>2017-06-12T20:38:50.364Z</time>
      </trkpt>
      <trkpt lat="45.691828" lon="5.894696">
        <ele>242.471228</ele>
        <time>2017-06-12T20:38:58.996Z</time>
      </trkpt>
      <trkpt lat="45.691790" lon="5.894665">
        <ele>242.603529</ele>
        <time>2017-06-12T20:39:00.804Z</time>
      </trkpt>
      <trkpt lat="45.691713" lon="5.894686">
        <ele>242.840640</ele>
        <time>2017-06-12T20:39:04.251Z</time>
      </trkpt>
      <trkpt lat="45.691706" lon="5.894695">
        <ele>242.869101</ele>
        <time>2017-06-12T20:39:04.514Z</time>
      </trkpt>
      <trkpt lat="45.691699" lon="5.894705">
        <ele>242.899015</ele>
        <time>2017-06-12T20:39:04.910Z</time>
      </trkpt>
      <trkpt lat="45.691688" lon="5.894752">
        <ele>243.003751</ele>
        <time>2017-06-12T20:39:06.038Z</time>
      </trkpt>
      <trkpt lat="45.691689" lon="5.894801">
        <ele>243.107332</ele>
        <time>2017-06-12T20:39:07.474Z</time>
      </trkpt>
      <trkpt lat="45.691429" lon="5.895090">
        <ele>244.103055</ele>
        <time>2017-06-12T20:39:21.010Z</time>
      </trkpt>
      <trkpt lat="45.691386" lon="5.895136">
        <ele>244.265433</ele>
        <time>2017-06-12T20:39:23.374Z</time>
      </trkpt>
      <trkpt lat="45.691153" lon="5.895348">
        <ele>245.310637</ele>
        <time>2017-06-12T20:39:35.479Z</time>
      </trkpt>
      <trkpt lat="45.690944" lon="5.895526">
        <ele>246.543508</ele>
        <time>2017-06-12T20:39:46.013Z</time>
      </trkpt>
      <trkpt lat="45.690892" lon="5.895502">
        <ele>246.820489</ele>
        <time>2017-06-12T20:39:49.341Z</time>
      </trkpt>
      <trkpt lat="45.690595" lon="5.895684">
        <ele>248.458304</ele>
        <time>2017-06-12T20:40:03.577Z</time>
      </trkpt>
      <trkpt lat="45.690329" lon="5.895665">
        <ele>249.808495</ele>
        <time>2017-06-12T20:40:15.916Z</time>
      </trkpt>
      <trkpt lat="45.689193" lon="5.895619">
        <ele>254.172203</ele>
        <time>2017-06-12T20:41:03.883Z</time>
      </trkpt>
      <trkpt lat="45.689196" lon="5.895558">
        <ele>254.206615</ele>
        <time>2017-06-12T20:41:04.635Z</time>
      </trkpt>
      <trkpt lat="45.689177" lon="5.895509">
        <ele>254.238152</ele>
        <time>2017-06-12T20:41:05.281Z</time>
      </trkpt>
      <trkpt lat="45.689027" lon="5.895487">
        <ele>254.359622</ele>
        <time>2017-06-12T20:41:10.809Z</time>
      </trkpt>
      <trkpt lat="45.688535" lon="5.895434">
        <ele>254.757090</ele>
        <time>2017-06-12T20:41:22.806Z</time>
      </trkpt>
      <trkpt lat="45.688345" lon="5.895361">
        <ele>254.915568</ele>
        <time>2017-06-12T20:41:26.844Z</time>
      </trkpt>
      <trkpt lat="45.688270" lon="5.895354">
        <ele>254.976115</ele>
        <time>2017-06-12T20:41:28.886Z</time>
      </trkpt>
      <trkpt lat="45.688141" lon="5.895391">
        <ele>255.082101</ele>
        <time>2017-06-12T20:41:31.217Z</time>
      </trkpt>
      <trkpt lat="45.686556" lon="5.895081">
        <ele>253.381363</ele>
        <time>2017-06-12T20:42:01.888Z</time>
      </trkpt>
      <trkpt lat="45.686280" lon="5.894930">
        <ele>252.917443</ele>
        <time>2017-06-12T20:42:07.153Z</time>
      </trkpt>
      <trkpt lat="45.686043" lon="5.894982">
        <ele>252.540983</ele>
        <time>2017-06-12T20:42:11.469Z</time>
      </trkpt>
      <trkpt lat="45.683876" lon="5.894650">
        <ele>251.579469</ele>
        <time>2017-06-12T20:42:57.178Z</time>
      </trkpt>
      <trkpt lat="45.683739" lon="5.894479">
        <ele>251.793158</ele>
        <time>2017-06-12T20:43:02.391Z</time>
      </trkpt>
      <trkpt lat="45.683611" lon="5.894459">
        <ele>251.944528</ele>
        <time>2017-06-12T20:43:06.246Z</time>
      </trkpt>
      <trkpt lat="45.683438" lon="5.894552">
        <ele>252.161775</ele>
        <time>2017-06-12T20:43:11.813Z</time>
      </trkpt>
      <trkpt lat="45.682290" lon="5.894347">
        <ele>253.509949</ele>
        <time>2017-06-12T20:43:47.490Z</time>
      </trkpt>
      <trkpt lat="45.681973" lon="5.894208">
        <ele>253.882540</ele>
        <time>2017-06-12T20:43:57.539Z</time>
      </trkpt>
      <trkpt lat="45.681390" lon="5.894189">
        <ele>254.537895</ele>
        <time>2017-06-12T20:44:13.624Z</time>
      </trkpt>
      <trkpt lat="45.680258" lon="5.893930">
        <ele>255.642870</ele>
        <time>2017-06-12T20:44:42.371Z</time>
      </trkpt>
      <trkpt lat="45.680002" lon="5.893774">
        <ele>255.851810</ele>
        <time>2017-06-12T20:44:49.420Z</time>
      </trkpt>
      <trkpt lat="45.679827" lon="5.893812">
        <ele>255.984729</ele>
        <time>2017-06-12T20:44:53.629Z</time>
      </trkpt>
      <trkpt lat="45.679753" lon="5.893863">
        <ele>256.046406</ele>
        <time>2017-06-12T20:44:55.104Z</time>
      </trkpt>
      <trkpt lat="45.679660" lon="5.893928">
        <ele>256.124125</ele>
        <time>2017-06-12T20:44:59.154Z</time>
      </trkpt>
      <trkpt lat="45.677866" lon="5.893956">
        <ele>257.211716</ele>
        <time>2017-06-12T20:45:48.538Z</time>
      </trkpt>
      <trkpt lat="45.677608" lon="5.893881">
        <ele>257.348808</ele>
        <time>2017-06-12T20:45:54.959Z</time>
      </trkpt>
      <trkpt lat="45.676799" lon="5.893863">
        <ele>256.767083</ele>
        <time>2017-06-12T20:46:12.429Z</time>
      </trkpt>
      <trkpt lat="45.673528" lon="5.893489">
        <ele>248.928306</ele>
        <time>2017-06-12T20:47:10.588Z</time>
      </trkpt>
      <trkpt lat="45.673348" lon="5.893530">
        <ele>248.284487</ele>
        <time>2017-06-12T20:47:13.676Z</time>
      </trkpt>
      <trkpt lat="45.673003" lon="5.893509">
        <ele>247.064736</ele>
        <time>2017-06-12T20:47:19.500Z</time>
      </trkpt>
      <trkpt lat="45.670658" lon="5.893296">
        <ele>239.369779</ele>
        <time>2017-06-12T20:47:58.506Z</time>
      </trkpt>
      <trkpt lat="45.670313" lon="5.893337">
        <ele>238.326785</ele>
        <time>2017-06-12T20:48:04.721Z</time>
      </trkpt>
      <trkpt lat="45.669999" lon="5.893452">
        <ele>237.434502</ele>
        <time>2017-06-12T20:48:10.876Z</time>
      </trkpt>
      <trkpt lat="45.669812" lon="5.893527">
        <ele>237.301352</ele>
        <time>2017-06-12T20:48:14.643Z</time>
      </trkpt>
      <trkpt lat="45.669697" lon="5.893501">
        <ele>237.221528</ele>
        <time>2017-06-12T20:48:17.260Z</time>
      </trkpt>
      <trkpt lat="45.669429" lon="5.893598">
        <ele>237.031998</ele>
        <time>2017-06-12T20:48:23.157Z</time>
      </trkpt>
      <trkpt lat="45.669379" lon="5.893609">
        <ele>236.997314</ele>
        <time>2017-06-12T20:48:24.345Z</time>
      </trkpt>
      <trkpt lat="45.669246" lon="5.893641">
        <ele>236.904848</ele>
        <time>2017-06-12T20:48:27.771Z</time>
      </trkpt>
      <trkpt lat="45.669040" lon="5.893690">
        <ele>236.761673</ele>
        <time>2017-06-12T20:48:31.903Z</time>
      </trkpt>
      <trkpt lat="45.668871" lon="5.893717">
        <ele>236.645085</ele>
        <time>2017-06-12T20:48:35.767Z</time>
      </trkpt>
      <trkpt lat="45.668659" lon="5.893834">
        <ele>236.489300</ele>
        <time>2017-06-12T20:48:40.309Z</time>
      </trkpt>
      <trkpt lat="45.668482" lon="5.894024">
        <ele>236.337598</ele>
        <time>2017-06-12T20:48:45.171Z</time>
      </trkpt>
      <trkpt lat="45.668457" lon="5.894047">
        <ele>236.317221</ele>
        <time>2017-06-12T20:48:45.965Z</time>
      </trkpt>
      <trkpt lat="45.668303" lon="5.894208">
        <ele>236.190959</ele>
        <time>2017-06-12T20:48:50.189Z</time>
      </trkpt>
      <trkpt lat="45.668022" lon="5.894351">
        <ele>236.009663</ele>
        <time>2017-06-12T20:48:56.958Z</time>
      </trkpt>
      <trkpt lat="45.667901" lon="5.894395">
        <ele>235.933771</ele>
        <time>2017-06-12T20:49:00.447Z</time>
      </trkpt>
      <trkpt lat="45.667793" lon="5.894434">
        <ele>235.866061</ele>
        <time>2017-06-12T20:49:02.985Z</time>
      </trkpt>
      <trkpt lat="45.667674" lon="5.894521">
        <ele>235.784829</ele>
        <time>2017-06-12T20:49:05.587Z</time>
      </trkpt>
      <trkpt lat="45.667164" lon="5.894932">
        <ele>235.429024</ele>
        <time>2017-06-12T20:49:17.991Z</time>
      </trkpt>
      <trkpt lat="45.666448" lon="5.895360">
        <ele>235.203705</ele>
        <time>2017-06-12T20:49:33.161Z</time>
      </trkpt>
      <trkpt lat="45.665924" lon="5.895630">
        <ele>235.340588</ele>
        <time>2017-06-12T20:49:45.544Z</time>
      </trkpt>
      <trkpt lat="45.665286" lon="5.895867">
        <ele>235.502594</ele>
        <time>2017-06-12T20:50:02.863Z</time>
      </trkpt>
      <trkpt lat="45.664867" lon="5.895951">
        <ele>235.774001</ele>
        <time>2017-06-12T20:50:14.946Z</time>
      </trkpt>
      <trkpt lat="45.664195" lon="5.896012">
        <ele>236.812419</ele>
        <time>2017-06-12T20:50:35.333Z</time>
      </trkpt>
      <trkpt lat="45.663482" lon="5.895930">
        <ele>237.915528</ele>
        <time>2017-06-12T20:50:57.112Z</time>
      </trkpt>
      <trkpt lat="45.662779" lon="5.895724">
        <ele>238.461658</ele>
        <time>2017-06-12T20:51:17.049Z</time>
      </trkpt>
      <trkpt lat="45.662734" lon="5.895713">
        <ele>238.473472</ele>
        <time>2017-06-12T20:51:18.493Z</time>
      </trkpt>
      <trkpt lat="45.662679" lon="5.895699">
        <ele>238.487927</ele>
        <time>2017-06-12T20:51:19.906Z</time>
      </trkpt>
      <trkpt lat="45.662582" lon="5.895676">
        <ele>238.513370</ele>
        <time>2017-06-12T20:51:22.305Z</time>
      </trkpt>
      <trkpt lat="45.662424" lon="5.895659">
        <ele>238.554371</ele>
        <time>2017-06-12T20:51:26.196Z</time>
      </trkpt>
      <trkpt lat="45.662049" lon="5.895503">
        <ele>238.655427</ele>
        <time>2017-06-12T20:51:35.723Z</time>
      </trkpt>
      <trkpt lat="45.660097" lon="5.894687">
        <ele>237.887200</ele>
        <time>2017-06-12T20:52:18.093Z</time>
      </trkpt>
      <trkpt lat="45.659964" lon="5.894584">
        <ele>237.788522</ele>
        <time>2017-06-12T20:52:21.342Z</time>
      </trkpt>
      <trkpt lat="45.659817" lon="5.894551">
        <ele>237.691432</ele>
        <time>2017-06-12T20:52:24.261Z</time>
      </trkpt>
      <trkpt lat="45.659780" lon="5.894543">
        <ele>237.667015</ele>
        <time>2017-06-12T20:52:25.272Z</time>
      </trkpt>
      <trkpt lat="45.659663" lon="5.894584">
        <ele>237.661556</ele>
        <time>2017-06-12T20:52:27.925Z</time>
      </trkpt>
      <trkpt lat="45.658355" lon="5.894381">
        <ele>238.009223</ele>
        <time>2017-06-12T20:52:56.919Z</time>
      </trkpt>
      <trkpt lat="45.658191" lon="5.894323">
        <ele>238.053864</ele>
        <time>2017-06-12T20:53:02.676Z</time>
      </trkpt>
      <trkpt lat="45.658024" lon="5.894261">
        <ele>238.099456</ele>
        <time>2017-06-12T20:53:07.669Z</time>
      </trkpt>
      <trkpt lat="45.657839" lon="5.894196">
        <ele>238.305943</ele>
        <time>2017-06-12T20:53:14.012Z</time>
      </trkpt>
      <trkpt lat="45.657658" lon="5.894122">
        <ele>238.583948</ele>
        <time>2017-06-12T20:53:19.378Z</time>
      </trkpt>
      <trkpt lat="45.657446" lon="5.893860">
        <ele>238.997667</ele>
        <time>2017-06-12T20:53:28.124Z</time>
      </trkpt>
      <trkpt lat="45.657347" lon="5.893844">
        <ele>239.144803</ele>
        <time>2017-06-12T20:53:30.970Z</time>
      </trkpt>
      <trkpt lat="45.657295" lon="5.893860">
        <ele>239.223354</ele>
        <time>2017-06-12T20:53:32.121Z</time>
      </trkpt>
      <trkpt lat="45.657252" lon="5.893899">
        <ele>239.298542</ele>
        <time>2017-06-12T20:53:34.576Z</time>
      </trkpt>
      <trkpt lat="45.657165" lon="5.894094">
        <ele>239.537338</ele>
        <time>2017-06-12T20:53:39.172Z</time>
      </trkpt>
      <trkpt lat="45.657080" lon="5.894262">
        <ele>239.751419</ele>
        <time>2017-06-12T20:53:42.919Z</time>
      </trkpt>
      <trkpt lat="45.656955" lon="5.894356">
        <ele>239.959970</ele>
        <time>2017-06-12T20:53:48.137Z</time>
      </trkpt>
      <trkpt lat="45.656777" lon="5.894449">
        <ele>240.239825</ele>
        <time>2017-06-12T20:53:52.736Z</time>
      </trkpt>
      <trkpt lat="45.656445" lon="5.894466">
        <ele>240.730446</ele>
        <time>2017-06-12T20:54:02.151Z</time>
      </trkpt>
      <trkpt lat="45.656077" lon="5.894403">
        <ele>240.501367</ele>
        <time>2017-06-12T20:54:12.097Z</time>
      </trkpt>
      <trkpt lat="45.655841" lon="5.894307">
        <ele>240.307430</ele>
        <time>2017-06-12T20:54:18.716Z</time>
      </trkpt>
      <trkpt lat="45.655649" lon="5.894173">
        <ele>240.138571</ele>
        <time>2017-06-12T20:54:23.716Z</time>
      </trkpt>
      <trkpt lat="45.655038" lon="5.893520">
        <ele>239.535736</ele>
        <time>2017-06-12T20:54:37.778Z</time>
      </trkpt>
      <trkpt lat="45.654503" lon="5.893297">
        <ele>238.721614</ele>
        <time>2017-06-12T20:54:47.809Z</time>
      </trkpt>
      <trkpt lat="45.653905" lon="5.892827">
        <ele>237.392245</ele>
        <time>2017-06-12T20:55:00.491Z</time>
      </trkpt>
      <trkpt lat="45.653791" lon="5.892755">
        <ele>237.149450</ele>
        <time>2017-06-12T20:55:02.641Z</time>
      </trkpt>
      <trkpt lat="45.653710" lon="5.892701">
        <ele>236.975339</ele>
        <time>2017-06-12T20:55:04.559Z</time>
      </trkpt>
      <trkpt lat="45.653562" lon="5.892657">
        <ele>236.680820</ele>
        <time>2017-06-12T20:55:07.264Z</time>
      </trkpt>
      <trkpt lat="45.653415" lon="5.893062">
        <ele>236.059322</ele>
        <time>2017-06-12T20:55:13.176Z</time>
      </trkpt>
      <trkpt lat="45.653289" lon="5.893074">
        <ele>235.839054</ele>
        <time>2017-06-12T20:55:15.314Z</time>
      </trkpt>
      <trkpt lat="45.653212" lon="5.893028">
        <ele>235.804849</ele>
        <time>2017-06-12T20:55:17.242Z</time>
      </trkpt>
      <trkpt lat="45.653078" lon="5.892928">
        <ele>235.742894</ele>
        <time>2017-06-12T20:55:20.409Z</time>
      </trkpt>
      <trkpt lat="45.652946" lon="5.892843">
        <ele>235.683555</ele>
        <time>2017-06-12T20:55:23.012Z</time>
      </trkpt>
      <trkpt lat="45.652820" lon="5.892873">
        <ele>235.631194</ele>
        <time>2017-06-12T20:55:26.133Z</time>
      </trkpt>
      <trkpt lat="45.652790" lon="5.892878">
        <ele>235.618813</ele>
        <time>2017-06-12T20:55:26.753Z</time>
      </trkpt>
      <trkpt lat="45.652754" lon="5.892871">
        <ele>235.603920</ele>
        <time>2017-06-12T20:55:27.657Z</time>
      </trkpt>
      <trkpt lat="45.652699" lon="5.892836">
        <ele>235.579244</ele>
        <time>2017-06-12T20:55:29.225Z</time>
      </trkpt>
      <trkpt lat="45.652651" lon="5.892793">
        <ele>235.556029</ele>
        <time>2017-06-12T20:55:30.177Z</time>
      </trkpt>
      <trkpt lat="45.652582" lon="5.892555">
        <ele>235.482199</ele>
        <time>2017-06-12T20:55:34.483Z</time>
      </trkpt>
      <trkpt lat="45.652275" lon="5.891991">
        <ele>235.277369</ele>
        <time>2017-06-12T20:55:47.072Z</time>
      </trkpt>
      <trkpt lat="45.652241" lon="5.891959">
        <ele>235.260686</ele>
        <time>2017-06-12T20:55:47.742Z</time>
      </trkpt>
      <trkpt lat="45.652178" lon="5.891917">
        <ele>235.232194</ele>
        <time>2017-06-12T20:55:49.547Z</time>
      </trkpt>
      <trkpt lat="45.652111" lon="5.891897">
        <ele>235.204138</ele>
        <time>2017-06-12T20:55:51.575Z</time>
      </trkpt>
      <trkpt lat="45.652090" lon="5.891895">
        <ele>235.195510</ele>
        <time>2017-06-12T20:55:51.999Z</time>
      </trkpt>
      <trkpt lat="45.651992" lon="5.892025">
        <ele>235.140725</ele>
        <time>2017-06-12T20:55:55.350Z</time>
      </trkpt>
      <trkpt lat="45.651378" lon="5.892834">
        <ele>235.393826</ele>
        <time>2017-06-12T20:56:14.147Z</time>
      </trkpt>
      <trkpt lat="45.651325" lon="5.892855">
        <ele>235.414563</ele>
        <time>2017-06-12T20:56:16.083Z</time>
      </trkpt>
      <trkpt lat="45.651250" lon="5.892872">
        <ele>235.443196</ele>
        <time>2017-06-12T20:56:18.035Z</time>
      </trkpt>
      <trkpt lat="45.651205" lon="5.892821">
        <ele>235.464844</ele>
        <time>2017-06-12T20:56:19.978Z</time>
      </trkpt>
      <trkpt lat="45.651149" lon="5.892784">
        <ele>235.488103</ele>
        <time>2017-06-12T20:56:22.115Z</time>
      </trkpt>
      <trkpt lat="45.651106" lon="5.892767">
        <ele>235.504925</ele>
        <time>2017-06-12T20:56:23.220Z</time>
      </trkpt>
      <trkpt lat="45.651104" lon="5.892679">
        <ele>235.528132</ele>
        <time>2017-06-12T20:56:24.451Z</time>
      </trkpt>
      <trkpt lat="45.651118" lon="5.892521">
        <ele>235.570111</ele>
        <time>2017-06-12T20:56:27.807Z</time>
      </trkpt>
      <trkpt lat="45.651089" lon="5.892377">
        <ele>235.609611</ele>
        <time>2017-06-12T20:56:30.830Z</time>
      </trkpt>
      <trkpt lat="45.651034" lon="5.892258">
        <ele>235.647213</ele>
        <time>2017-06-12T20:56:33.395Z</time>
      </trkpt>
      <trkpt lat="45.650894" lon="5.892099">
        <ele>235.714616</ele>
        <time>2017-06-12T20:56:38.274Z</time>
      </trkpt>
      <trkpt lat="45.650447" lon="5.892285">
        <ele>235.703183</ele>
        <time>2017-06-12T20:56:49.513Z</time>
      </trkpt>
      <trkpt lat="45.650379" lon="5.892283">
        <ele>235.682423</ele>
        <time>2017-06-12T20:56:51.067Z</time>
      </trkpt>
      <trkpt lat="45.650184" lon="5.892214">
        <ele>235.621111</ele>
        <time>2017-06-12T20:56:56.028Z</time>
      </trkpt>
      <trkpt lat="45.650046" lon="5.892149">
        <ele>235.576766</ele>
        <time>2017-06-12T20:56:59.201Z</time>
      </trkpt>
      <trkpt lat="45.649842" lon="5.892071">
        <ele>235.512314</ele>
        <time>2017-06-12T20:57:03.473Z</time>
      </trkpt>
      <trkpt lat="45.649714" lon="5.892079">
        <ele>235.473208</ele>
        <time>2017-06-12T20:57:06.315Z</time>
      </trkpt>
      <trkpt lat="45.649438" lon="5.892195">
        <ele>235.385406</ele>
        <time>2017-06-12T20:57:12.332Z</time>
      </trkpt>
      <trkpt lat="45.649239" lon="5.892284">
        <ele>235.321767</ele>
        <time>2017-06-12T20:57:16.740Z</time>
      </trkpt>
      <trkpt lat="45.649165" lon="5.892299">
        <ele>235.298955</ele>
        <time>2017-06-12T20:57:18.192Z</time>
      </trkpt>
      <trkpt lat="45.648747" lon="5.892286">
        <ele>235.169825</ele>
        <time>2017-06-12T20:57:26.953Z</time>
      </trkpt>
      <trkpt lat="45.648596" lon="5.892264">
        <ele>235.122442</ele>
        <time>2017-06-12T20:57:30.284Z</time>
      </trkpt>
      <trkpt lat="45.648523" lon="5.892257">
        <ele>235.099602</ele>
        <time>2017-06-12T20:57:31.959Z</time>
      </trkpt>
      <trkpt lat="45.648475" lon="5.892240">
        <ele>235.084165</ele>
        <time>2017-06-12T20:57:32.875Z</time>
      </trkpt>
      <trkpt lat="45.648398" lon="5.892168">
        <ele>235.055447</ele>
        <time>2017-06-12T20:57:34.884Z</time>
      </trkpt>
      <trkpt lat="45.648323" lon="5.891948">
        <ele>235.002030</ele>
        <time>2017-06-12T20:57:38.727Z</time>
      </trkpt>
      <trkpt lat="45.648325" lon="5.891577">
        <ele>234.921063</ele>
        <time>2017-06-12T20:57:44.849Z</time>
      </trkpt>
      <trkpt lat="45.648287" lon="5.891487">
        <ele>234.898118</ele>
        <time>2017-06-12T20:57:46.303Z</time>
      </trkpt>
      <trkpt lat="45.648266" lon="5.891674">
        <ele>234.856785</ele>
        <time>2017-06-12T20:57:49.818Z</time>
      </trkpt>
      <trkpt lat="45.648240" lon="5.891818">
        <ele>234.824328</ele>
        <time>2017-06-12T20:57:52.905Z</time>
      </trkpt>
      <trkpt lat="45.648209" lon="5.891930">
        <ele>234.798039</ele>
        <time>2017-06-12T20:57:55.731Z</time>
      </trkpt>
      <trkpt lat="45.648178" lon="5.891877">
        <ele>234.782958</ele>
        <time>2017-06-12T20:57:56.950Z</time>
      </trkpt>
      <trkpt lat="45.648137" lon="5.891824">
        <ele>234.765707</ele>
        <time>2017-06-12T20:57:58.633Z</time>
      </trkpt>
      <trkpt lat="45.648065" lon="5.891766">
        <ele>234.739911</ele>
        <time>2017-06-12T20:58:00.732Z</time>
      </trkpt>
      <trkpt lat="45.648019" lon="5.891753">
        <ele>234.725273</ele>
        <time>2017-06-12T20:58:02.089Z</time>
      </trkpt>
      <trkpt lat="45.647981" lon="5.891745">
        <ele>234.713282</ele>
        <time>2017-06-12T20:58:03.290Z</time>
      </trkpt>
      <trkpt lat="45.647967" lon="5.891807">
        <ele>234.699063</ele>
        <time>2017-06-12T20:58:04.746Z</time>
      </trkpt>
      <trkpt lat="45.647843" lon="5.892271">
        <ele>234.746348</ele>
        <time>2017-06-12T20:58:12.233Z</time>
      </trkpt>
      <trkpt lat="45.647841" lon="5.892542">
        <ele>234.794684</ele>
        <time>2017-06-12T20:58:16.355Z</time>
      </trkpt>
      <trkpt lat="45.647802" lon="5.892655">
        <ele>234.817160</ele>
        <time>2017-06-12T20:58:18.230Z</time>
      </trkpt>
      <trkpt lat="45.647715" lon="5.892730">
        <ele>234.843075</ele>
        <time>2017-06-12T20:58:21.130Z</time>
      </trkpt>
      <trkpt lat="45.647666" lon="5.892762">
        <ele>234.856817</ele>
        <time>2017-06-12T20:58:22.188Z</time>
      </trkpt>
      <trkpt lat="45.647629" lon="5.892801">
        <ele>234.868543</ele>
        <time>2017-06-12T20:58:23.137Z</time>
      </trkpt>
      <trkpt lat="45.647597" lon="5.892853">
        <ele>234.880899</ele>
        <time>2017-06-12T20:58:24.316Z</time>
      </trkpt>
      <trkpt lat="45.647550" lon="5.892870">
        <ele>234.893267</ele>
        <time>2017-06-12T20:58:25.319Z</time>
      </trkpt>
      <trkpt lat="45.646683" lon="5.892850">
        <ele>235.114490</ele>
        <time>2017-06-12T20:58:46.352Z</time>
      </trkpt>
      <trkpt lat="45.646287" lon="5.892859">
        <ele>235.268064</ele>
        <time>2017-06-12T20:58:55.775Z</time>
      </trkpt>
      <trkpt lat="45.643007" lon="5.892645">
        <ele>236.612991</ele>
        <time>2017-06-12T21:00:14.237Z</time>
      </trkpt>
      <trkpt lat="45.638602" lon="5.892347">
        <ele>237.831253</ele>
        <time>2017-06-12T21:01:57.266Z</time>
      </trkpt>
      <trkpt lat="45.638362" lon="5.892299">
        <ele>237.881905</ele>
        <time>2017-06-12T21:02:02.790Z</time>
      </trkpt>
      <trkpt lat="45.638207" lon="5.892277">
        <ele>237.914461</ele>
        <time>2017-06-12T21:02:06.340Z</time>
      </trkpt>
      <trkpt lat="45.638105" lon="5.892258">
        <ele>237.935960</ele>
        <time>2017-06-12T21:02:08.691Z</time>
      </trkpt>
      <trkpt lat="45.638008" lon="5.892117">
        <ele>237.964868</ele>
        <time>2017-06-12T21:02:11.994Z</time>
      </trkpt>
      <trkpt lat="45.637893" lon="5.891847">
        <ele>238.011071</ele>
        <time>2017-06-12T21:02:17.247Z</time>
      </trkpt>
      <trkpt lat="45.637859" lon="5.891551">
        <ele>238.051314</ele>
        <time>2017-06-12T21:02:22.251Z</time>
      </trkpt>
      <trkpt lat="45.637800" lon="5.891535">
        <ele>238.061327</ele>
        <time>2017-06-12T21:02:23.666Z</time>
      </trkpt>
      <trkpt lat="45.637730" lon="5.891518">
        <ele>238.073165</ele>
        <time>2017-06-12T21:02:25.347Z</time>
      </trkpt>
      <trkpt lat="45.637691" lon="5.891508">
        <ele>238.079771</ele>
        <time>2017-06-12T21:02:26.292Z</time>
      </trkpt>
      <trkpt lat="45.637578" lon="5.891692">
        <ele>238.108320</ele>
        <time>2017-06-12T21:02:30.355Z</time>
      </trkpt>
      <trkpt lat="45.637297" lon="5.891963">
        <ele>238.164828</ele>
        <time>2017-06-12T21:02:38.395Z</time>
      </trkpt>
      <trkpt lat="45.637135" lon="5.892075">
        <ele>238.194828</ele>
        <time>2017-06-12T21:02:42.668Z</time>
      </trkpt>
      <trkpt lat="45.636984" lon="5.892115">
        <ele>238.220433</ele>
        <time>2017-06-12T21:02:46.341Z</time>
      </trkpt>
      <trkpt lat="45.635917" lon="5.892041">
        <ele>238.405631</ele>
        <time>2017-06-12T21:03:11.910Z</time>
      </trkpt>
      <trkpt lat="45.635530" lon="5.891957">
        <ele>238.478416</ele>
        <time>2017-06-12T21:03:21.306Z</time>
      </trkpt>
      <trkpt lat="45.633227" lon="5.891800">
        <ele>238.854538</ele>
        <time>2017-06-12T21:04:16.303Z</time>
      </trkpt>
      <trkpt lat="45.632992" lon="5.891687">
        <ele>238.890350</ele>
        <time>2017-06-12T21:04:22.133Z</time>
      </trkpt>
      <trkpt lat="45.632915" lon="5.891641">
        <ele>238.902403</ele>
        <time>2017-06-12T21:04:24.101Z</time>
      </trkpt>
      <trkpt lat="45.632762" lon="5.891631">
        <ele>238.924526</ele>
        <time>2017-06-12T21:04:27.555Z</time>
      </trkpt>
      <trkpt lat="45.632491" lon="5.891623">
        <ele>238.939288</ele>
        <time>2017-06-12T21:04:33.665Z</time>
      </trkpt>
      <trkpt lat="45.632177" lon="5.891556">
        <ele>238.950620</ele>
        <time>2017-06-12T21:04:40.807Z</time>
      </trkpt>
      <trkpt lat="45.631608" lon="5.891506">
        <ele>238.970968</ele>
        <time>2017-06-12T21:04:53.549Z</time>
      </trkpt>
      <trkpt lat="45.629445" lon="5.891355">
        <ele>238.998899</ele>
        <time>2017-06-12T21:05:41.704Z</time>
      </trkpt>
      <trkpt lat="45.627459" lon="5.891219">
        <ele>238.999878</ele>
        <time>2017-06-12T21:06:25.913Z</time>
      </trkpt>
      <trkpt lat="45.627246" lon="5.891181">
        <ele>238.999897</ele>
        <time>2017-06-12T21:06:30.678Z</time>
      </trkpt>
      <trkpt lat="45.626951" lon="5.891128">
        <ele>238.999897</ele>
        <time>2017-06-12T21:06:37.280Z</time>
      </trkpt>
      <trkpt lat="45.626281" lon="5.890934">
        <ele>238.999897</ele>
        <time>2017-06-12T21:06:52.492Z</time>
      </trkpt>
      <trkpt lat="45.626021" lon="5.890789">
        <ele>238.999897</ele>
        <time>2017-06-12T21:06:58.686Z</time>
      </trkpt>
      <trkpt lat="45.625836" lon="5.890545">
        <ele>238.999897</ele>
        <time>2017-06-12T21:07:04.289Z</time>
      </trkpt>
      <trkpt lat="45.625582" lon="5.889823">
        <ele>238.999898</ele>
        <time>2017-06-12T21:07:16.886Z</time>
      </trkpt>
      <trkpt lat="45.625482" lon="5.889717">
        <ele>238.999898</ele>
        <time>2017-06-12T21:07:19.651Z</time>
      </trkpt>
      <trkpt lat="45.625359" lon="5.889674">
        <ele>238.999898</ele>
        <time>2017-06-12T21:07:22.475Z</time>
      </trkpt>
      <trkpt lat="45.625316" lon="5.889671">
        <ele>238.999898</ele>
        <time>2017-06-12T21:07:23.412Z</time>
      </trkpt>
      <trkpt lat="45.625308" lon="5.889619">
        <ele>238.999898</ele>
        <time>2017-06-12T21:07:24.248Z</time>
      </trkpt>
      <trkpt lat="45.625206" lon="5.889315">
        <ele>238.999898</ele>
        <time>2017-06-12T21:07:29.504Z</time>
      </trkpt>
      <trkpt lat="45.625005" lon="5.889067">
        <ele>238.999899</ele>
        <time>2017-06-12T21:07:35.412Z</time>
      </trkpt>
      <trkpt lat="45.624863" lon="5.888987">
        <ele>238.999899</ele>
        <time>2017-06-12T21:07:38.804Z</time>
      </trkpt>
      <trkpt lat="45.624427" lon="5.888867">
        <ele>238.999900</ele>
        <time>2017-06-12T21:07:48.664Z</time>
      </trkpt>
      <trkpt lat="45.623553" lon="5.888631">
        <ele>239.035113</ele>
        <time>2017-06-12T21:08:08.446Z</time>
      </trkpt>
      <trkpt lat="45.623145" lon="5.888513">
        <ele>239.051718</ele>
        <time>2017-06-12T21:08:17.774Z</time>
      </trkpt>
      <trkpt lat="45.623074" lon="5.888490">
        <ele>239.054622</ele>
        <time>2017-06-12T21:08:19.390Z</time>
      </trkpt>
      <trkpt lat="45.622714" lon="5.888279">
        <ele>239.070142</ele>
        <time>2017-06-12T21:08:28.184Z</time>
      </trkpt>
      <trkpt lat="45.622014" lon="5.887723">
        <ele>239.232427</ele>
        <time>2017-06-12T21:08:46.437Z</time>
      </trkpt>
      <trkpt lat="45.621941" lon="5.887672">
        <ele>239.249548</ele>
        <time>2017-06-12T21:08:48.299Z</time>
      </trkpt>
      <trkpt lat="45.621911" lon="5.887652">
        <ele>239.256523</ele>
        <time>2017-06-12T21:08:49.099Z</time>
      </trkpt>
      <trkpt lat="45.621314" lon="5.887258">
        <ele>239.395076</ele>
        <time>2017-06-12T21:09:04.379Z</time>
      </trkpt>
      <trkpt lat="45.620527" lon="5.886597">
        <ele>239.608393</ele>
        <time>2017-06-12T21:09:25.898Z</time>
      </trkpt>
      <trkpt lat="45.620360" lon="5.886382">
        <ele>239.663013</ele>
        <time>2017-06-12T21:09:31.054Z</time>
      </trkpt>
      <trkpt lat="45.620342" lon="5.886317">
        <ele>239.674898</ele>
        <time>2017-06-12T21:09:32.315Z</time>
      </trkpt>
      <trkpt lat="45.620322" lon="5.886176">
        <ele>239.699355</ele>
        <time>2017-06-12T21:09:34.618Z</time>
      </trkpt>
      <trkpt lat="45.620231" lon="5.886180">
        <ele>239.721483</ele>
        <time>2017-06-12T21:09:36.787Z</time>
      </trkpt>
      <trkpt lat="45.619931" lon="5.886095">
        <ele>239.795818</ele>
        <time>2017-06-12T21:09:44.153Z</time>
      </trkpt>
      <trkpt lat="45.619518" lon="5.885768">
        <ele>239.893850</ele>
        <time>2017-06-12T21:09:55.384Z</time>
      </trkpt>
      <trkpt lat="45.618937" lon="5.885261">
        <ele>239.937692</ele>
        <time>2017-06-12T21:10:11.498Z</time>
      </trkpt>
      <trkpt lat="45.618668" lon="5.885029">
        <ele>239.957927</ele>
        <time>2017-06-12T21:10:18.797Z</time>
      </trkpt>
      <trkpt lat="45.617678" lon="5.884159">
        <ele>240.065725</ele>
        <time>2017-06-12T21:10:45.732Z</time>
      </trkpt>
      <trkpt lat="45.617457" lon="5.883914">
        <ele>240.104133</ele>
        <time>2017-06-12T21:10:52.282Z</time>
      </trkpt>
      <trkpt lat="45.617360" lon="5.883748">
        <ele>240.124913</ele>
        <time>2017-06-12T21:10:55.825Z</time>
      </trkpt>
      <trkpt lat="45.617273" lon="5.883680">
        <ele>240.138530</ele>
        <time>2017-06-12T21:10:58.211Z</time>
      </trkpt>
      <trkpt lat="45.617208" lon="5.883669">
        <ele>240.147520</ele>
        <time>2017-06-12T21:10:59.788Z</time>
      </trkpt>
      <trkpt lat="45.617155" lon="5.883669">
        <ele>240.154799</ele>
        <time>2017-06-12T21:11:01.032Z</time>
      </trkpt>
      <trkpt lat="45.617113" lon="5.883660">
        <ele>240.160632</ele>
        <time>2017-06-12T21:11:02.036Z</time>
      </trkpt>
      <trkpt lat="45.616883" lon="5.883580">
        <ele>240.193142</ele>
        <time>2017-06-12T21:11:07.765Z</time>
      </trkpt>
      <trkpt lat="45.616702" lon="5.883443">
        <ele>240.221270</ele>
        <time>2017-06-12T21:11:12.652Z</time>
      </trkpt>
      <trkpt lat="45.616626" lon="5.883422">
        <ele>240.231901</ele>
        <time>2017-06-12T21:11:14.550Z</time>
      </trkpt>
      <trkpt lat="45.616531" lon="5.883399">
        <ele>240.245134</ele>
        <time>2017-06-12T21:11:16.900Z</time>
      </trkpt>
      <trkpt lat="45.616513" lon="5.883383">
        <ele>240.248045</ele>
        <time>2017-06-12T21:11:17.417Z</time>
      </trkpt>
      <trkpt lat="45.616467" lon="5.883333">
        <ele>240.264850</ele>
        <time>2017-06-12T21:11:18.800Z</time>
      </trkpt>
      <trkpt lat="45.616441" lon="5.883299">
        <ele>240.277822</ele>
        <time>2017-06-12T21:11:19.643Z</time>
      </trkpt>
      <trkpt lat="45.616396" lon="5.883236">
        <ele>240.301009</ele>
        <time>2017-06-12T21:11:21.147Z</time>
      </trkpt>
      <trkpt lat="45.616366" lon="5.883180">
        <ele>240.319173</ele>
        <time>2017-06-12T21:11:22.404Z</time>
      </trkpt>
      <trkpt lat="45.616242" lon="5.883276">
        <ele>240.371088</ele>
        <time>2017-06-12T21:11:25.873Z</time>
      </trkpt>
      <trkpt lat="45.615985" lon="5.883375">
        <ele>240.469078</ele>
        <time>2017-06-12T21:11:32.336Z</time>
      </trkpt>
      <trkpt lat="45.615948" lon="5.883312">
        <ele>240.490261</ele>
        <time>2017-06-12T21:11:33.783Z</time>
      </trkpt>
      <trkpt lat="45.615560" lon="5.883352">
        <ele>240.633475</ele>
        <time>2017-06-12T21:11:43.367Z</time>
      </trkpt>
      <trkpt lat="45.612874" lon="5.883351">
        <ele>241.761349</ele>
        <time>2017-06-12T21:12:50.167Z</time>
      </trkpt>
      <trkpt lat="45.612165" lon="5.883403">
        <ele>242.132620</ele>
        <time>2017-06-12T21:13:08.018Z</time>
      </trkpt>
      <trkpt lat="45.611481" lon="5.883549">
        <ele>242.494295</ele>
        <time>2017-06-12T21:13:25.574Z</time>
      </trkpt>
      <trkpt lat="45.610346" lon="5.883875">
        <ele>243.124008</ele>
        <time>2017-06-12T21:13:55.073Z</time>
      </trkpt>
      <trkpt lat="45.609757" lon="5.884141">
        <ele>243.463914</ele>
        <time>2017-06-12T21:14:10.725Z</time>
      </trkpt>
      <trkpt lat="45.608754" lon="5.884630">
        <ele>244.020163</ele>
        <time>2017-06-12T21:14:37.358Z</time>
      </trkpt>
      <trkpt lat="45.607968" lon="5.884965">
        <ele>244.442762</ele>
        <time>2017-06-12T21:14:57.969Z</time>
      </trkpt>
      <trkpt lat="45.607320" lon="5.885265">
        <ele>244.804196</ele>
        <time>2017-06-12T21:15:15.424Z</time>
      </trkpt>
      <trkpt lat="45.606473" lon="5.885652">
        <ele>245.282174</ele>
        <time>2017-06-12T21:15:37.844Z</time>
      </trkpt>
      <trkpt lat="45.606239" lon="5.885773">
        <ele>245.415932</ele>
        <time>2017-06-12T21:15:44.113Z</time>
      </trkpt>
      <trkpt lat="45.606105" lon="5.885872">
        <ele>245.497013</ele>
        <time>2017-06-12T21:15:47.841Z</time>
      </trkpt>
      <trkpt lat="45.606040" lon="5.885902">
        <ele>245.530562</ele>
        <time>2017-06-12T21:15:49.795Z</time>
      </trkpt>
      <trkpt lat="45.605981" lon="5.885930">
        <ele>245.557192</ele>
        <time>2017-06-12T21:15:51.335Z</time>
      </trkpt>
      <trkpt lat="45.605841" lon="5.885981">
        <ele>245.619078</ele>
        <time>2017-06-12T21:15:54.856Z</time>
      </trkpt>
      <trkpt lat="45.605733" lon="5.886097">
        <ele>245.676945</ele>
        <time>2017-06-12T21:15:58.395Z</time>
      </trkpt>
      <trkpt lat="45.605563" lon="5.886122">
        <ele>245.750150</ele>
        <time>2017-06-12T21:16:02.678Z</time>
      </trkpt>
      <trkpt lat="45.605122" lon="5.886321">
        <ele>245.948243</ele>
        <time>2017-06-12T21:16:14.164Z</time>
      </trkpt>
      <trkpt lat="45.604772" lon="5.886543">
        <ele>246.112265</ele>
        <time>2017-06-12T21:16:23.661Z</time>
      </trkpt>
      <trkpt lat="45.604684" lon="5.886596">
        <ele>246.153170</ele>
        <time>2017-06-12T21:16:26.261Z</time>
      </trkpt>
      <trkpt lat="45.603016" lon="5.888443">
        <ele>246.668626</ele>
        <time>2017-06-12T21:17:16.898Z</time>
      </trkpt>
      <trkpt lat="45.602591" lon="5.888911">
        <ele>246.755861</ele>
        <time>2017-06-12T21:17:29.551Z</time>
      </trkpt>
      <trkpt lat="45.602408" lon="5.889090">
        <ele>246.791818</ele>
        <time>2017-06-12T21:17:34.836Z</time>
      </trkpt>
      <trkpt lat="45.602380" lon="5.889080">
        <ele>246.796498</ele>
        <time>2017-06-12T21:17:35.514Z</time>
      </trkpt>
      <trkpt lat="45.602362" lon="5.889054">
        <ele>246.800648</ele>
        <time>2017-06-12T21:17:36.117Z</time>
      </trkpt>
      <trkpt lat="45.602300" lon="5.888965">
        <ele>246.814896</ele>
        <time>2017-06-12T21:17:38.133Z</time>
      </trkpt>
      <trkpt lat="45.602215" lon="5.888816">
        <ele>246.836707</ele>
        <time>2017-06-12T21:17:41.245Z</time>
      </trkpt>
      <trkpt lat="45.602199" lon="5.888789">
        <ele>246.840721</ele>
        <time>2017-06-12T21:17:41.839Z</time>
      </trkpt>
      <trkpt lat="45.602183" lon="5.888794">
        <ele>246.843377</ele>
        <time>2017-06-12T21:17:42.227Z</time>
      </trkpt>
      <trkpt lat="45.602162" lon="5.888819">
        <ele>246.847808</ele>
        <time>2017-06-12T21:17:42.989Z</time>
      </trkpt>
      <trkpt lat="45.600979" lon="5.890226">
        <ele>247.237545</ele>
        <time>2017-06-12T21:18:19.968Z</time>
      </trkpt>
      <trkpt lat="45.600528" lon="5.890621">
        <ele>247.411683</ele>
        <time>2017-06-12T21:18:33.159Z</time>
      </trkpt>
      <trkpt lat="45.600078" lon="5.890853">
        <ele>247.572918</ele>
        <time>2017-06-12T21:18:45.077Z</time>
      </trkpt>
      <trkpt lat="45.598649" lon="5.891428">
        <ele>248.177977</ele>
        <time>2017-06-12T21:19:21.833Z</time>
      </trkpt>
      <trkpt lat="45.597844" lon="5.891823">
        <ele>248.515297</ele>
        <time>2017-06-12T21:19:42.972Z</time>
      </trkpt>
      <trkpt lat="45.597182" lon="5.892200">
        <ele>248.794075</ele>
        <time>2017-06-12T21:20:00.536Z</time>
      </trkpt>
      <trkpt lat="45.597110" lon="5.892224">
        <ele>248.822998</ele>
        <time>2017-06-12T21:20:02.492Z</time>
      </trkpt>
      <trkpt lat="45.597001" lon="5.892288">
        <ele>248.869097</ele>
        <time>2017-06-12T21:20:05.306Z</time>
      </trkpt>
      <trkpt lat="45.596350" lon="5.892492">
        <ele>249.166490</ele>
        <time>2017-06-12T21:20:21.679Z</time>
      </trkpt>
      <trkpt lat="45.595823" lon="5.892556">
        <ele>249.427725</ele>
        <time>2017-06-12T21:20:34.858Z</time>
      </trkpt>
      <trkpt lat="45.595172" lon="5.892723">
        <ele>249.754407</ele>
        <time>2017-06-12T21:20:51.427Z</time>
      </trkpt>
      <trkpt lat="45.594932" lon="5.892816">
        <ele>249.877228</ele>
        <time>2017-06-12T21:20:57.863Z</time>
      </trkpt>
      <trkpt lat="45.594638" lon="5.892962">
        <ele>250.160056</ele>
        <time>2017-06-12T21:21:05.996Z</time>
      </trkpt>
      <trkpt lat="45.594562" lon="5.892993">
        <ele>250.232159</ele>
        <time>2017-06-12T21:21:08.078Z</time>
      </trkpt>
      <trkpt lat="45.594472" lon="5.892754">
        <ele>250.405418</ele>
        <time>2017-06-12T21:21:13.152Z</time>
      </trkpt>
      <trkpt lat="45.594290" lon="5.892173">
        <ele>250.811776</ele>
        <time>2017-06-12T21:21:25.110Z</time>
      </trkpt>
      <trkpt lat="45.594231" lon="5.891936">
        <ele>250.972358</ele>
        <time>2017-06-12T21:21:29.917Z</time>
      </trkpt>
      <trkpt lat="45.594132" lon="5.891496">
        <ele>251.267402</ele>
        <time>2017-06-12T21:21:38.838Z</time>
      </trkpt>
      <trkpt lat="45.594037" lon="5.891090">
        <ele>251.544629</ele>
        <time>2017-06-12T21:21:47.070Z</time>
      </trkpt>
      <trkpt lat="45.593765" lon="5.889257">
        <ele>252.962785</ele>
        <time>2017-06-12T21:22:23.141Z</time>
      </trkpt>
      <trkpt lat="45.593848" lon="5.889032">
        <ele>253.155291</ele>
        <time>2017-06-12T21:22:28.029Z</time>
      </trkpt>
      <trkpt lat="45.593834" lon="5.888856">
        <ele>253.289355</ele>
        <time>2017-06-12T21:22:31.532Z</time>
      </trkpt>
      <trkpt lat="45.593712" lon="5.888560">
        <ele>253.548729</ele>
        <time>2017-06-12T21:22:38.099Z</time>
      </trkpt>
      <trkpt lat="45.593537" lon="5.887420">
        <ele>254.425496</ele>
        <time>2017-06-12T21:23:00.796Z</time>
      </trkpt>
      <trkpt lat="45.593386" lon="5.887160">
        <ele>254.679326</ele>
        <time>2017-06-12T21:23:07.141Z</time>
      </trkpt>
      <trkpt lat="45.593378" lon="5.887083">
        <ele>254.737805</ele>
        <time>2017-06-12T21:23:08.909Z</time>
      </trkpt>
      <trkpt lat="45.593399" lon="5.887067">
        <ele>254.763354</ele>
        <time>2017-06-12T21:23:09.539Z</time>
      </trkpt>
      <trkpt lat="45.593411" lon="5.887010">
        <ele>254.808071</ele>
        <time>2017-06-12T21:23:10.610Z</time>
      </trkpt>
      <trkpt lat="45.593411" lon="5.886973">
        <ele>254.835866</ele>
        <time>2017-06-12T21:23:11.281Z</time>
      </trkpt>
      <trkpt lat="45.593407" lon="5.886916">
        <ele>254.878901</ele>
        <time>2017-06-12T21:23:12.328Z</time>
      </trkpt>
      <trkpt lat="45.593392" lon="5.886843">
        <ele>254.936057</ele>
        <time>2017-06-12T21:23:13.705Z</time>
      </trkpt>
      <trkpt lat="45.593355" lon="5.886711">
        <ele>255.042880</ele>
        <time>2017-06-12T21:23:16.412Z</time>
      </trkpt>
      <trkpt lat="45.593338" lon="5.886603">
        <ele>255.126040</ele>
        <time>2017-06-12T21:23:18.813Z</time>
      </trkpt>
      <trkpt lat="45.593441" lon="5.886362">
        <ele>255.338186</ele>
        <time>2017-06-12T21:23:23.906Z</time>
      </trkpt>
      <trkpt lat="45.593445" lon="5.886312">
        <ele>255.375992</ele>
        <time>2017-06-12T21:23:24.838Z</time>
      </trkpt>
      <trkpt lat="45.593424" lon="5.886154">
        <ele>255.489616</ele>
        <time>2017-06-12T21:23:28.185Z</time>
      </trkpt>
      <trkpt lat="45.593350" lon="5.885728">
        <ele>255.795857</ele>
        <time>2017-06-12T21:23:36.282Z</time>
      </trkpt>
      <trkpt lat="45.593182" lon="5.885188">
        <ele>256.208175</ele>
        <time>2017-06-12T21:23:47.885Z</time>
      </trkpt>
      <trkpt lat="45.592832" lon="5.884315">
        <ele>256.910160</ele>
        <time>2017-06-12T21:24:06.993Z</time>
      </trkpt>
      <trkpt lat="45.592788" lon="5.884284">
        <ele>256.959073</ele>
        <time>2017-06-12T21:24:08.355Z</time>
      </trkpt>
      <trkpt lat="45.592574" lon="5.884335">
        <ele>257.175394</ele>
        <time>2017-06-12T21:24:14.098Z</time>
      </trkpt>
      <trkpt lat="45.592483" lon="5.883927">
        <ele>257.418433</ele>
        <time>2017-06-12T21:24:22.090Z</time>
      </trkpt>
      <trkpt lat="45.592442" lon="5.883661">
        <ele>257.571296</ele>
        <time>2017-06-12T21:24:27.165Z</time>
      </trkpt>
      <trkpt lat="45.592433" lon="5.883595">
        <ele>257.609033</ele>
        <time>2017-06-12T21:24:28.537Z</time>
      </trkpt>
      <trkpt lat="45.592446" lon="5.883270">
        <ele>257.791728</ele>
        <time>2017-06-12T21:24:34.483Z</time>
      </trkpt>
      <trkpt lat="45.591989" lon="5.881110">
        <ele>258.838363</ele>
        <time>2017-06-12T21:25:15.972Z</time>
      </trkpt>
      <trkpt lat="45.591970" lon="5.880837">
        <ele>258.912958</ele>
        <time>2017-06-12T21:25:20.832Z</time>
      </trkpt>
      <trkpt lat="45.591889" lon="5.880682">
        <ele>258.965557</ele>
        <time>2017-06-12T21:25:24.106Z</time>
      </trkpt>
      <trkpt lat="45.591831" lon="5.880668">
        <ele>258.988412</ele>
        <time>2017-06-12T21:25:25.426Z</time>
      </trkpt>
      <trkpt lat="45.591785" lon="5.880670">
        <ele>259.006294</ele>
        <time>2017-06-12T21:25:26.681Z</time>
      </trkpt>
      <trkpt lat="45.591757" lon="5.880569">
        <ele>259.035833</ele>
        <time>2017-06-12T21:25:28.559Z</time>
      </trkpt>
      <trkpt lat="45.591725" lon="5.880477">
        <ele>259.063767</ele>
        <time>2017-06-12T21:25:30.312Z</time>
      </trkpt>
      <trkpt lat="45.591696" lon="5.880386">
        <ele>259.090955</ele>
        <time>2017-06-12T21:25:32.009Z</time>
      </trkpt>
      <trkpt lat="45.591614" lon="5.880462">
        <ele>259.128931</ele>
        <time>2017-06-12T21:25:34.187Z</time>
      </trkpt>
      <trkpt lat="45.590816" lon="5.881121">
        <ele>259.313871</ele>
        <time>2017-06-12T21:25:56.117Z</time>
      </trkpt>
      <trkpt lat="45.588805" lon="5.882327">
        <ele>259.241449</ele>
        <time>2017-06-12T21:26:45.719Z</time>
      </trkpt>
      <trkpt lat="45.588540" lon="5.882507">
        <ele>259.236169</ele>
        <time>2017-06-12T21:26:52.528Z</time>
      </trkpt>
      <trkpt lat="45.588045" lon="5.882865">
        <ele>259.226186</ele>
        <time>2017-06-12T21:27:05.497Z</time>
      </trkpt>
      <trkpt lat="45.587212" lon="5.883460">
        <ele>259.315567</ele>
        <time>2017-06-12T21:27:27.440Z</time>
      </trkpt>
      <trkpt lat="45.586721" lon="5.883789">
        <ele>259.380996</ele>
        <time>2017-06-12T21:27:40.300Z</time>
      </trkpt>
      <trkpt lat="45.586428" lon="5.883980">
        <ele>259.419851</ele>
        <time>2017-06-12T21:27:47.945Z</time>
      </trkpt>
      <trkpt lat="45.583504" lon="5.886013">
        <ele>260.038649</ele>
        <time>2017-06-12T21:29:05.388Z</time>
      </trkpt>
      <trkpt lat="45.583206" lon="5.886178">
        <ele>260.115860</ele>
        <time>2017-06-12T21:29:13.031Z</time>
      </trkpt>
      <trkpt lat="45.583058" lon="5.886255">
        <ele>260.153913</ele>
        <time>2017-06-12T21:29:16.912Z</time>
      </trkpt>
      <trkpt lat="45.582836" lon="5.886367">
        <ele>260.389537</ele>
        <time>2017-06-12T21:29:22.699Z</time>
      </trkpt>
      <trkpt lat="45.582260" lon="5.886854">
        <ele>261.154552</ele>
        <time>2017-06-12T21:29:40.558Z</time>
      </trkpt>
      <trkpt lat="45.582025" lon="5.887117">
        <ele>261.495754</ele>
        <time>2017-06-12T21:29:48.883Z</time>
      </trkpt>
      <trkpt lat="45.581953" lon="5.887173">
        <ele>261.589455</ele>
        <time>2017-06-12T21:29:51.104Z</time>
      </trkpt>
      <trkpt lat="45.581883" lon="5.887200">
        <ele>261.672331</ele>
        <time>2017-06-12T21:29:53.332Z</time>
      </trkpt>
      <trkpt lat="45.581819" lon="5.887221">
        <ele>261.747389</ele>
        <time>2017-06-12T21:29:55.248Z</time>
      </trkpt>
      <trkpt lat="45.581754" lon="5.887243">
        <ele>261.823742</ele>
        <time>2017-06-12T21:29:57.088Z</time>
      </trkpt>
      <trkpt lat="45.581694" lon="5.887283">
        <ele>261.899422</ele>
        <time>2017-06-12T21:29:58.894Z</time>
      </trkpt>
      <trkpt lat="45.581661" lon="5.887319">
        <ele>261.946879</ele>
        <time>2017-06-12T21:30:00.053Z</time>
      </trkpt>
      <trkpt lat="45.581602" lon="5.887398">
        <ele>262.039303</ele>
        <time>2017-06-12T21:30:02.321Z</time>
      </trkpt>
      <trkpt lat="45.581561" lon="5.887453">
        <ele>262.103585</ele>
        <time>2017-06-12T21:30:04.253Z</time>
      </trkpt>
      <trkpt lat="45.581373" lon="5.887566">
        <ele>262.497540</ele>
        <time>2017-06-12T21:30:10.014Z</time>
      </trkpt>
      <trkpt lat="45.579700" lon="5.887462">
        <ele>267.021866</ele>
        <time>2017-06-12T21:31:08.119Z</time>
      </trkpt>
      <trkpt lat="45.579569" lon="5.887455">
        <ele>267.381798</ele>
        <time>2017-06-12T21:31:13.201Z</time>
      </trkpt>
      <trkpt lat="45.579138" lon="5.887419">
        <ele>268.570783</ele>
        <time>2017-06-12T21:31:28.605Z</time>
      </trkpt>
      <trkpt lat="45.577747" lon="5.887294">
        <ele>272.203433</ele>
        <time>2017-06-12T21:32:16.296Z</time>
      </trkpt>
      <trkpt lat="45.577403" lon="5.887388">
        <ele>272.642329</ele>
        <time>2017-06-12T21:32:26.436Z</time>
      </trkpt>
      <trkpt lat="45.576925" lon="5.887704">
        <ele>273.302353</ele>
        <time>2017-06-12T21:32:40.982Z</time>
      </trkpt>
      <trkpt lat="45.576360" lon="5.887921">
        <ele>274.035518</ele>
        <time>2017-06-12T21:32:56.505Z</time>
      </trkpt>
      <trkpt lat="45.575560" lon="5.887959">
        <ele>274.574927</ele>
        <time>2017-06-12T21:33:16.741Z</time>
      </trkpt>
      <trkpt lat="45.575363" lon="5.888024">
        <ele>274.672270</ele>
        <time>2017-06-12T21:33:21.776Z</time>
      </trkpt>
      <trkpt lat="45.573291" lon="5.889344">
        <ele>275.674871</ele>
        <time>2017-06-12T21:34:18.093Z</time>
      </trkpt>
      <trkpt lat="45.573109" lon="5.889408">
        <ele>275.751910</ele>
        <time>2017-06-12T21:34:22.701Z</time>
      </trkpt>
      <trkpt lat="45.573011" lon="5.889462">
        <ele>275.795083</ele>
        <time>2017-06-12T21:34:25.350Z</time>
      </trkpt>
      <trkpt lat="45.572854" lon="5.889554">
        <ele>275.864831</ele>
        <time>2017-06-12T21:34:29.520Z</time>
      </trkpt>
      <trkpt lat="45.572702" lon="5.889733">
        <ele>275.979216</ele>
        <time>2017-06-12T21:34:34.434Z</time>
      </trkpt>
      <trkpt lat="45.572296" lon="5.890084">
        <ele>276.293000</ele>
        <time>2017-06-12T21:34:46.196Z</time>
      </trkpt>
      <trkpt lat="45.572177" lon="5.890115">
        <ele>276.372982</ele>
        <time>2017-06-12T21:34:49.152Z</time>
      </trkpt>
      <trkpt lat="45.572078" lon="5.890037">
        <ele>276.447737</ele>
        <time>2017-06-12T21:34:51.995Z</time>
      </trkpt>
      <trkpt lat="45.572004" lon="5.890021">
        <ele>276.497224</ele>
        <time>2017-06-12T21:34:53.848Z</time>
      </trkpt>
      <trkpt lat="45.571969" lon="5.890026">
        <ele>276.520482</ele>
        <time>2017-06-12T21:34:54.729Z</time>
      </trkpt>
      <trkpt lat="45.571940" lon="5.890031">
        <ele>276.539797</ele>
        <time>2017-06-12T21:34:55.457Z</time>
      </trkpt>
      <trkpt lat="45.571840" lon="5.890127">
        <ele>276.619461</ele>
        <time>2017-06-12T21:34:58.364Z</time>
      </trkpt>
      <trkpt lat="45.571793" lon="5.890422">
        <ele>276.759496</ele>
        <time>2017-06-12T21:35:03.969Z</time>
      </trkpt>
      <trkpt lat="45.571510" lon="5.890806">
        <ele>277.017577</ele>
        <time>2017-06-12T21:35:14.608Z</time>
      </trkpt>
      <trkpt lat="45.571373" lon="5.890934">
        <ele>277.203478</ele>
        <time>2017-06-12T21:35:19.146Z</time>
      </trkpt>
      <trkpt lat="45.570663" lon="5.891406">
        <ele>278.602452</ele>
        <time>2017-06-12T21:35:41.581Z</time>
      </trkpt>
      <trkpt lat="45.570575" lon="5.891458">
        <ele>278.772575</ele>
        <time>2017-06-12T21:35:44.432Z</time>
      </trkpt>
      <trkpt lat="45.570381" lon="5.891573">
        <ele>279.147795</ele>
        <time>2017-06-12T21:35:50.700Z</time>
      </trkpt>
      <trkpt lat="45.570125" lon="5.891713">
        <ele>279.637485</ele>
        <time>2017-06-12T21:35:59.404Z</time>
      </trkpt>
      <trkpt lat="45.569128" lon="5.892085">
        <ele>282.031292</ele>
        <time>2017-06-12T21:36:34.395Z</time>
      </trkpt>
      <trkpt lat="45.568807" lon="5.892085">
        <ele>282.872337</ele>
        <time>2017-06-12T21:36:45.402Z</time>
      </trkpt>
      <trkpt lat="45.568704" lon="5.892075">
        <ele>283.142828</ele>
        <time>2017-06-12T21:36:49.145Z</time>
      </trkpt>
      <trkpt lat="45.568642" lon="5.892108">
        <ele>283.316183</ele>
        <time>2017-06-12T21:36:51.779Z</time>
      </trkpt>
      <trkpt lat="45.568518" lon="5.892298">
        <ele>283.792633</ele>
        <time>2017-06-12T21:36:57.349Z</time>
      </trkpt>
      <trkpt lat="45.567938" lon="5.892524">
        <ele>285.235249</ele>
        <time>2017-06-12T21:37:17.530Z</time>
      </trkpt>
      <trkpt lat="45.567247" lon="5.892820">
        <ele>286.433090</ele>
        <time>2017-06-12T21:37:40.364Z</time>
      </trkpt>
      <trkpt lat="45.567169" lon="5.892854">
        <ele>286.568500</ele>
        <time>2017-06-12T21:37:42.692Z</time>
      </trkpt>
      <trkpt lat="45.565949" lon="5.893308">
        <ele>288.382941</ele>
        <time>2017-06-12T21:38:17.407Z</time>
      </trkpt>
      <trkpt lat="45.565822" lon="5.893273">
        <ele>288.508226</ele>
        <time>2017-06-12T21:38:20.823Z</time>
      </trkpt>
      <trkpt lat="45.565788" lon="5.893262">
        <ele>288.541994</ele>
        <time>2017-06-12T21:38:21.710Z</time>
      </trkpt>
      <trkpt lat="45.565749" lon="5.893284">
        <ele>288.582610</ele>
        <time>2017-06-12T21:38:22.868Z</time>
      </trkpt>
      <trkpt lat="45.565644" lon="5.893380">
        <ele>288.703368</ele>
        <time>2017-06-12T21:38:26.142Z</time>
      </trkpt>
      <trkpt lat="45.565408" lon="5.893389">
        <ele>288.932047</ele>
        <time>2017-06-12T21:38:32.299Z</time>
      </trkpt>
      <trkpt lat="45.565321" lon="5.893329">
        <ele>289.025627</ele>
        <time>2017-06-12T21:38:34.832Z</time>
      </trkpt>
      <trkpt lat="45.565086" lon="5.893351">
        <ele>289.253745</ele>
        <time>2017-06-12T21:38:41.051Z</time>
      </trkpt>
      <trkpt lat="45.565003" lon="5.893379">
        <ele>289.336354</ele>
        <time>2017-06-12T21:38:43.377Z</time>
      </trkpt>
      <trkpt lat="45.564972" lon="5.893391">
        <ele>289.367465</ele>
        <time>2017-06-12T21:38:44.190Z</time>
      </trkpt>
      <trkpt lat="45.564865" lon="5.893397">
        <ele>289.471189</ele>
        <time>2017-06-12T21:38:47.208Z</time>
      </trkpt>
      <trkpt lat="45.563741" lon="5.893367">
        <ele>290.655983</ele>
        <time>2017-06-12T21:39:18.446Z</time>
      </trkpt>
      <trkpt lat="45.563013" lon="5.893479">
        <ele>291.447590</ele>
        <time>2017-06-12T21:39:38.728Z</time>
      </trkpt>
      <trkpt lat="45.562909" lon="5.893505">
        <ele>291.561736</ele>
        <time>2017-06-12T21:39:41.549Z</time>
      </trkpt>
      <trkpt lat="45.562828" lon="5.893513">
        <ele>291.649516</ele>
        <time>2017-06-12T21:39:43.788Z</time>
      </trkpt>
      <trkpt lat="45.562455" lon="5.893567">
        <ele>291.930681</ele>
        <time>2017-06-12T21:39:53.713Z</time>
      </trkpt>
      <trkpt lat="45.562406" lon="5.893535">
        <ele>291.969677</ele>
        <time>2017-06-12T21:39:55.051Z</time>
      </trkpt>
      <trkpt lat="45.562339" lon="5.893507">
        <ele>292.020204</ele>
        <time>2017-06-12T21:39:56.998Z</time>
      </trkpt>
      <trkpt lat="45.562277" lon="5.893499">
        <ele>292.065261</ele>
        <time>2017-06-12T21:39:58.581Z</time>
      </trkpt>
      <trkpt lat="45.562235" lon="5.893518">
        <ele>292.097148</ele>
        <time>2017-06-12T21:39:59.718Z</time>
      </trkpt>
      <trkpt lat="45.562084" lon="5.893803">
        <ele>292.278261</ele>
        <time>2017-06-12T21:40:06.311Z</time>
      </trkpt>
      <trkpt lat="45.562077" lon="5.893813">
        <ele>292.285426</ele>
        <time>2017-06-12T21:40:06.559Z</time>
      </trkpt>
      <trkpt lat="45.562049" lon="5.893848">
        <ele>292.312357</ele>
        <time>2017-06-12T21:40:07.487Z</time>
      </trkpt>
      <trkpt lat="45.562036" lon="5.893864">
        <ele>292.324778</ele>
        <time>2017-06-12T21:40:07.964Z</time>
      </trkpt>
      <trkpt lat="45.560794" lon="5.894648">
        <ele>293.385069</ele>
        <time>2017-06-12T21:40:42.747Z</time>
      </trkpt>
      <trkpt lat="45.560673" lon="5.894656">
        <ele>293.493541</ele>
        <time>2017-06-12T21:40:45.638Z</time>
      </trkpt>
      <trkpt lat="45.560635" lon="5.894665">
        <ele>293.528034</ele>
        <time>2017-06-12T21:40:46.762Z</time>
      </trkpt>
      <trkpt lat="45.560562" lon="5.894780">
        <ele>293.625360</ele>
        <time>2017-06-12T21:40:49.494Z</time>
      </trkpt>
      <trkpt lat="45.560518" lon="5.894841">
        <ele>293.680272</ele>
        <time>2017-06-12T21:40:50.948Z</time>
      </trkpt>
      <trkpt lat="45.560045" lon="5.895151">
        <ele>294.146309</ele>
        <time>2017-06-12T21:41:05.161Z</time>
      </trkpt>
      <trkpt lat="45.560015" lon="5.895152">
        <ele>294.173181</ele>
        <time>2017-06-12T21:41:06.193Z</time>
      </trkpt>
      <trkpt lat="45.559946" lon="5.895154">
        <ele>294.234983</ele>
        <time>2017-06-12T21:41:07.995Z</time>
      </trkpt>
      <trkpt lat="45.559841" lon="5.895205">
        <ele>294.334299</ele>
        <time>2017-06-12T21:41:10.751Z</time>
      </trkpt>
      <trkpt lat="45.559746" lon="5.895298">
        <ele>294.437437</ele>
        <time>2017-06-12T21:41:14.043Z</time>
      </trkpt>
      <trkpt lat="45.559606" lon="5.895439">
        <ele>294.590843</ele>
        <time>2017-06-12T21:41:18.923Z</time>
      </trkpt>
      <trkpt lat="45.559460" lon="5.895539">
        <ele>294.842935</ele>
        <time>2017-06-12T21:41:23.755Z</time>
      </trkpt>
      <trkpt lat="45.559192" lon="5.895411">
        <ele>295.284009</ele>
        <time>2017-06-12T21:41:31.416Z</time>
      </trkpt>
      <trkpt lat="45.559167" lon="5.895434">
        <ele>295.330425</ele>
        <time>2017-06-12T21:41:32.520Z</time>
      </trkpt>
      <trkpt lat="45.559059" lon="5.895304">
        <ele>295.550880</ele>
        <time>2017-06-12T21:41:36.850Z</time>
      </trkpt>
      <trkpt lat="45.558625" lon="5.894762">
        <ele>296.450730</ele>
        <time>2017-06-12T21:41:53.427Z</time>
      </trkpt>
      <trkpt lat="45.558484" lon="5.894338">
        <ele>296.963713</ele>
        <time>2017-06-12T21:42:02.708Z</time>
      </trkpt>
      <trkpt lat="45.558466" lon="5.894267">
        <ele>297.046237</ele>
        <time>2017-06-12T21:42:04.721Z</time>
      </trkpt>
      <trkpt lat="45.558406" lon="5.894298">
        <ele>297.145827</ele>
        <time>2017-06-12T21:42:06.559Z</time>
      </trkpt>
      <trkpt lat="45.558221" lon="5.894611">
        <ele>297.598615</ele>
        <time>2017-06-12T21:42:14.733Z</time>
      </trkpt>
      <trkpt lat="45.557775" lon="5.894023">
        <ele>298.571052</ele>
        <time>2017-06-12T21:42:31.839Z</time>
      </trkpt>
      <trkpt lat="45.557307" lon="5.894289">
        <ele>299.378029</ele>
        <time>2017-06-12T21:42:46.462Z</time>
      </trkpt>
      <trkpt lat="45.557251" lon="5.894345">
        <ele>299.487553</ele>
        <time>2017-06-12T21:42:48.406Z</time>
      </trkpt>
      <trkpt lat="45.557223" lon="5.894373">
        <ele>299.542315</ele>
        <time>2017-06-12T21:42:49.438Z</time>
      </trkpt>
      <trkpt lat="45.556383" lon="5.893563">
        <ele>301.161122</ele>
        <time>2017-06-12T21:43:18.164Z</time>
      </trkpt>
      <trkpt lat="45.556321" lon="5.893497">
        <ele>301.284311</ele>
        <time>2017-06-12T21:43:20.616Z</time>
      </trkpt>
      <trkpt lat="45.556325" lon="5.893475">
        <ele>301.309665</ele>
        <time>2017-06-12T21:43:21.099Z</time>
      </trkpt>
      <trkpt lat="45.556320" lon="5.893432">
        <ele>301.358288</ele>
        <time>2017-06-12T21:43:21.972Z</time>
      </trkpt>
      <trkpt lat="45.556311" lon="5.893413">
        <ele>301.383876</ele>
        <time>2017-06-12T21:43:22.454Z</time>
      </trkpt>
      <trkpt lat="45.556299" lon="5.893397">
        <ele>301.410029</ele>
        <time>2017-06-12T21:43:22.915Z</time>
      </trkpt>
      <trkpt lat="45.556238" lon="5.893397">
        <ele>301.507206</ele>
        <time>2017-06-12T21:43:24.653Z</time>
      </trkpt>
      <trkpt lat="45.556226" lon="5.893411">
        <ele>301.531891</ele>
        <time>2017-06-12T21:43:25.122Z</time>
      </trkpt>
      <trkpt lat="45.556170" lon="5.893354">
        <ele>301.641442</ele>
        <time>2017-06-12T21:43:26.977Z</time>
      </trkpt>
      <trkpt lat="45.556110" lon="5.893293">
        <ele>301.758771</ele>
        <time>2017-06-12T21:43:29.045Z</time>
      </trkpt>
      <trkpt lat="45.555914" lon="5.893091">
        <ele>302.143825</ele>
        <time>2017-06-12T21:43:36.270Z</time>
      </trkpt>
      <trkpt lat="45.555672" lon="5.892868">
        <ele>302.602634</ele>
        <time>2017-06-12T21:43:44.918Z</time>
      </trkpt>
      <trkpt lat="45.555369" lon="5.892564">
        <ele>303.164934</ele>
        <time>2017-06-12T21:43:55.742Z</time>
      </trkpt>
      <trkpt lat="45.555294" lon="5.892490">
        <ele>303.223916</ele>
        <time>2017-06-12T21:43:58.064Z</time>
      </trkpt>
      <trkpt lat="45.555022" lon="5.892226">
        <ele>303.436704</ele>
        <time>2017-06-12T21:44:06.865Z</time>
      </trkpt>
      <trkpt lat="45.554561" lon="5.891846">
        <ele>303.781103</ele>
        <time>2017-06-12T21:44:18.891Z</time>
      </trkpt>
      <trkpt lat="45.554430" lon="5.891773">
        <ele>303.872087</ele>
        <time>2017-06-12T21:44:22.680Z</time>
      </trkpt>
      <trkpt lat="45.554256" lon="5.891671">
        <ele>303.993785</ele>
        <time>2017-06-12T21:44:26.771Z</time>
      </trkpt>
      <trkpt lat="45.554206" lon="5.891633">
        <ele>304.030432</ele>
        <time>2017-06-12T21:44:28.156Z</time>
      </trkpt>
      <trkpt lat="45.554168" lon="5.891613">
        <ele>304.056636</ele>
        <time>2017-06-12T21:44:29.217Z</time>
      </trkpt>
      <trkpt lat="45.554143" lon="5.891553">
        <ele>304.088268</ele>
        <time>2017-06-12T21:44:30.620Z</time>
      </trkpt>
      <trkpt lat="45.554104" lon="5.891511">
        <ele>304.119873</ele>
        <time>2017-06-12T21:44:31.940Z</time>
      </trkpt>
      <trkpt lat="45.554052" lon="5.891493">
        <ele>304.154493</ele>
        <time>2017-06-12T21:44:33.015Z</time>
      </trkpt>
      <trkpt lat="45.554000" lon="5.891506">
        <ele>304.188650</ele>
        <time>2017-06-12T21:44:34.271Z</time>
      </trkpt>
      <trkpt lat="45.553956" lon="5.891548">
        <ele>304.222893</ele>
        <time>2017-06-12T21:44:35.333Z</time>
      </trkpt>
      <trkpt lat="45.553854" lon="5.891527">
        <ele>304.289571</ele>
        <time>2017-06-12T21:44:37.908Z</time>
      </trkpt>
      <trkpt lat="45.553721" lon="5.891489">
        <ele>304.520756</ele>
        <time>2017-06-12T21:44:41.362Z</time>
      </trkpt>
      <trkpt lat="45.553425" lon="5.891373">
        <ele>305.141255</ele>
        <time>2017-06-12T21:44:48.799Z</time>
      </trkpt>
      <trkpt lat="45.553237" lon="5.891300">
        <ele>305.535105</ele>
        <time>2017-06-12T21:44:53.050Z</time>
      </trkpt>
      <trkpt lat="45.552930" lon="5.891178">
        <ele>306.179301</ele>
        <time>2017-06-12T21:45:01.103Z</time>
      </trkpt>
      <trkpt lat="45.551535" lon="5.890634">
        <ele>310.440586</ele>
        <time>2017-06-12T21:45:54.229Z</time>
      </trkpt>
      <trkpt lat="45.551296" lon="5.890547">
        <ele>311.515896</ele>
        <time>2017-06-12T21:46:04.086Z</time>
      </trkpt>
      <trkpt lat="45.551204" lon="5.890514">
        <ele>311.929456</ele>
        <time>2017-06-12T21:46:08.101Z</time>
      </trkpt>
      <trkpt lat="45.551116" lon="5.890477">
        <ele>312.329402</ele>
        <time>2017-06-12T21:46:13.178Z</time>
      </trkpt>
      <trkpt lat="45.550871" lon="5.890232">
        <ele>313.633410</ele>
        <time>2017-06-12T21:46:24.831Z</time>
      </trkpt>
      <trkpt lat="45.550592" lon="5.890196">
        <ele>314.854747</ele>
        <time>2017-06-12T21:46:34.970Z</time>
      </trkpt>
      <trkpt lat="45.550519" lon="5.890188">
        <ele>315.173947</ele>
        <time>2017-06-12T21:46:39.014Z</time>
      </trkpt>
      <trkpt lat="45.550396" lon="5.890145">
        <ele>315.726037</ele>
        <time>2017-06-12T21:46:44.298Z</time>
      </trkpt>
      <trkpt lat="45.549014" lon="5.889595">
        <ele>322.001734</ele>
        <time>2017-06-12T21:47:42.064Z</time>
      </trkpt>
      <trkpt lat="45.548730" lon="5.889438">
        <ele>323.333932</ele>
        <time>2017-06-12T21:47:53.363Z</time>
      </trkpt>
      <trkpt lat="45.548579" lon="5.889362">
        <ele>324.007946</ele>
        <time>2017-06-12T21:47:59.672Z</time>
      </trkpt>
      <trkpt lat="45.548138" lon="5.889021">
        <ele>326.049040</ele>
        <time>2017-06-12T21:48:18.524Z</time>
      </trkpt>
      <trkpt lat="45.548037" lon="5.888942">
        <ele>326.517732</ele>
        <time>2017-06-12T21:48:23.293Z</time>
      </trkpt>
      <trkpt lat="45.547886" lon="5.888802">
        <ele>327.250472</ele>
        <time>2017-06-12T21:48:30.107Z</time>
      </trkpt>
      <trkpt lat="45.547767" lon="5.888661">
        <ele>327.879818</ele>
        <time>2017-06-12T21:48:36.389Z</time>
      </trkpt>
      <trkpt lat="45.547588" lon="5.888428">
        <ele>328.865602</ele>
        <time>2017-06-12T21:48:45.715Z</time>
      </trkpt>
      <trkpt lat="45.547521" lon="5.888342">
        <ele>329.232264</ele>
        <time>2017-06-12T21:48:49.511Z</time>
      </trkpt>
      <trkpt lat="45.547313" lon="5.888011">
        <ele>330.499821</ele>
        <time>2017-06-12T21:49:01.979Z</time>
      </trkpt>
      <trkpt lat="45.546636" lon="5.886536">
        <ele>334.419512</ele>
        <time>2017-06-12T21:49:46.556Z</time>
      </trkpt>
      <trkpt lat="45.546594" lon="5.886446">
        <ele>334.652787</ele>
        <time>2017-06-12T21:49:48.910Z</time>
      </trkpt>
      <trkpt lat="45.546540" lon="5.886335">
        <ele>334.944305</ele>
        <time>2017-06-12T21:49:51.800Z</time>
      </trkpt>
      <trkpt lat="45.546425" lon="5.886100">
        <ele>335.562673</ele>
        <time>2017-06-12T21:49:58.302Z</time>
      </trkpt>
      <trkpt lat="45.546227" lon="5.885694">
        <ele>336.589795</ele>
        <time>2017-06-12T21:50:09.137Z</time>
      </trkpt>
      <trkpt lat="45.546092" lon="5.885400">
        <ele>337.082346</ele>
        <time>2017-06-12T21:50:16.796Z</time>
      </trkpt>
      <trkpt lat="45.545943" lon="5.885074">
        <ele>337.627748</ele>
        <time>2017-06-12T21:50:25.102Z</time>
      </trkpt>
      <trkpt lat="45.545895" lon="5.884971">
        <ele>337.801085</ele>
        <time>2017-06-12T21:50:27.831Z</time>
      </trkpt>
      <trkpt lat="45.545547" lon="5.884233">
        <ele>339.047594</ele>
        <time>2017-06-12T21:50:46.829Z</time>
      </trkpt>
      <trkpt lat="45.544931" lon="5.882930">
        <ele>341.022076</ele>
        <time>2017-06-12T21:51:18.922Z</time>
      </trkpt>
      <trkpt lat="45.544828" lon="5.882601">
        <ele>341.425628</ele>
        <time>2017-06-12T21:51:25.761Z</time>
      </trkpt>
      <trkpt lat="45.544796" lon="5.882484">
        <ele>341.566283</ele>
        <time>2017-06-12T21:51:28.321Z</time>
      </trkpt>
      <trkpt lat="45.544754" lon="5.882342">
        <ele>341.738895</ele>
        <time>2017-06-12T21:51:31.513Z</time>
      </trkpt>
      <trkpt lat="45.544640" lon="5.882027">
        <ele>342.135949</ele>
        <time>2017-06-12T21:51:38.087Z</time>
      </trkpt>
      <trkpt lat="45.543554" lon="5.879574">
        <ele>346.427397</ele>
        <time>2017-06-12T21:52:37.682Z</time>
      </trkpt>
      <trkpt lat="45.543444" lon="5.879356">
        <ele>346.859101</ele>
        <time>2017-06-12T21:52:44.826Z</time>
      </trkpt>
      <trkpt lat="45.543304" lon="5.879170">
        <ele>347.529217</ele>
        <time>2017-06-12T21:52:52.207Z</time>
      </trkpt>
      <trkpt lat="45.543193" lon="5.879074">
        <ele>348.206060</ele>
        <time>2017-06-12T21:52:57.252Z</time>
      </trkpt>
      <trkpt lat="45.542860" lon="5.878858">
        <ele>350.113639</ele>
        <time>2017-06-12T21:53:11.962Z</time>
      </trkpt>
      <trkpt lat="45.542635" lon="5.878663">
        <ele>351.486387</ele>
        <time>2017-06-12T21:53:23.174Z</time>
      </trkpt>
      <trkpt lat="45.542440" lon="5.878456">
        <ele>352.753696</ele>
        <time>2017-06-12T21:53:34.520Z</time>
      </trkpt>
      <trkpt lat="45.542105" lon="5.878091">
        <ele>354.951497</ele>
        <time>2017-06-12T21:53:53.963Z</time>
      </trkpt>
      <trkpt lat="45.541973" lon="5.877938">
        <ele>355.838239</ele>
        <time>2017-06-12T21:54:02.135Z</time>
      </trkpt>
      <trkpt lat="45.541793" lon="5.877628">
        <ele>357.198264</ele>
        <time>2017-06-12T21:54:15.760Z</time>
      </trkpt>
      <trkpt lat="45.541540" lon="5.877093">
        <ele>359.234352</ele>
        <time>2017-06-12T21:54:36.932Z</time>
      </trkpt>
      <trkpt lat="45.540918" lon="5.875771">
        <ele>364.257635</ele>
        <time>2017-06-12T21:55:19.441Z</time>
      </trkpt>
      <trkpt lat="45.540744" lon="5.875250">
        <ele>365.509608</ele>
        <time>2017-06-12T21:55:31.829Z</time>
      </trkpt>
      <trkpt lat="45.540670" lon="5.874063">
        <ele>367.825591</ele>
        <time>2017-06-12T21:55:59.210Z</time>
      </trkpt>
      <trkpt lat="45.540620" lon="5.873878">
        <ele>368.210967</ele>
        <time>2017-06-12T21:56:03.730Z</time>
      </trkpt>
      <trkpt lat="45.540423" lon="5.873453">
        <ele>369.201429</ele>
        <time>2017-06-12T21:56:15.533Z</time>
      </trkpt>
      <trkpt lat="45.539863" lon="5.872270">
        <ele>372.550875</ele>
        <time>2017-06-12T21:56:50.114Z</time>
      </trkpt>
      <trkpt lat="45.539459" lon="5.871419">
        <ele>375.029399</ele>
        <time>2017-06-12T21:57:17.897Z</time>
      </trkpt>
      <trkpt lat="45.538191" lon="5.869280">
        <ele>381.816495</ele>
        <time>2017-06-12T21:58:28.916Z</time>
      </trkpt>
      <trkpt lat="45.537725" lon="5.868491">
        <ele>383.924020</ele>
        <time>2017-06-12T21:58:53.875Z</time>
      </trkpt>
      <trkpt lat="45.537570" lon="5.868247">
        <ele>384.586625</ele>
        <time>2017-06-12T21:59:01.749Z</time>
      </trkpt>
      <trkpt lat="45.537121" lon="5.867730">
        <ele>386.243196</ele>
        <time>2017-06-12T21:59:20.883Z</time>
      </trkpt>
      <trkpt lat="45.535906" lon="5.866617">
        <ele>389.924801</ele>
        <time>2017-06-12T22:00:07.365Z</time>
      </trkpt>
      <trkpt lat="45.535598" lon="5.866338">
        <ele>390.821422</ele>
        <time>2017-06-12T22:00:18.647Z</time>
      </trkpt>
      <trkpt lat="45.535156" lon="5.865937">
        <ele>392.421740</ele>
        <time>2017-06-12T22:00:34.740Z</time>
      </trkpt>
      <trkpt lat="45.534939" lon="5.865773">
        <ele>393.388382</ele>
        <time>2017-06-12T22:00:43.003Z</time>
      </trkpt>
      <trkpt lat="45.534437" lon="5.865573">
        <ele>395.440241</ele>
        <time>2017-06-12T22:01:03.210Z</time>
      </trkpt>
      <trkpt lat="45.534228" lon="5.865443">
        <ele>396.337771</ele>
        <time>2017-06-12T22:01:12.334Z</time>
      </trkpt>
      <trkpt lat="45.533831" lon="5.864970">
        <ele>398.373543</ele>
        <time>2017-06-12T22:01:33.271Z</time>
      </trkpt>
      <trkpt lat="45.533762" lon="5.864869">
        <ele>398.823185</ele>
        <time>2017-06-12T22:01:37.347Z</time>
      </trkpt>
      <trkpt lat="45.533681" lon="5.864751">
        <ele>399.575339</ele>
        <time>2017-06-12T22:01:42.441Z</time>
      </trkpt>
      <trkpt lat="45.533590" lon="5.864629">
        <ele>400.386688</ele>
        <time>2017-06-12T22:01:47.846Z</time>
      </trkpt>
      <trkpt lat="45.533536" lon="5.864585">
        <ele>400.790792</ele>
        <time>2017-06-12T22:01:50.846Z</time>
      </trkpt>
      <trkpt lat="45.533410" lon="5.864542">
        <ele>401.632771</ele>
        <time>2017-06-12T22:01:56.019Z</time>
      </trkpt>
      <trkpt lat="45.533367" lon="5.864530">
        <ele>401.917529</ele>
        <time>2017-06-12T22:01:58.406Z</time>
      </trkpt>
      <trkpt lat="45.533236" lon="5.864471">
        <ele>402.810297</ele>
        <time>2017-06-12T22:02:04.422Z</time>
      </trkpt>
      <trkpt lat="45.533183" lon="5.864417">
        <ele>403.233490</ele>
        <time>2017-06-12T22:02:07.375Z</time>
      </trkpt>
      <trkpt lat="45.532809" lon="5.863566">
        <ele>407.807224</ele>
        <time>2017-06-12T22:02:43.810Z</time>
      </trkpt>
      <trkpt lat="45.532677" lon="5.863321">
        <ele>409.214404</ele>
        <time>2017-06-12T22:02:54.961Z</time>
      </trkpt>
      <trkpt lat="45.532523" lon="5.863065">
        <ele>410.797093</ele>
        <time>2017-06-12T22:03:07.130Z</time>
      </trkpt>
      <trkpt lat="45.532219" lon="5.862773">
        <ele>413.460892</ele>
        <time>2017-06-12T22:03:26.309Z</time>
      </trkpt>
      <trkpt lat="45.532117" lon="5.862694">
        <ele>414.304543</ele>
        <time>2017-06-12T22:03:31.934Z</time>
      </trkpt>
      <trkpt lat="45.531953" lon="5.862568">
        <ele>415.658534</ele>
        <time>2017-06-12T22:03:41.838Z</time>
      </trkpt>
      <trkpt lat="45.531620" lon="5.862373">
        <ele>418.275217</ele>
        <time>2017-06-12T22:04:00.870Z</time>
      </trkpt>
      <trkpt lat="45.531039" lon="5.862184">
        <ele>422.607374</ele>
        <time>2017-06-12T22:04:31.630Z</time>
      </trkpt>
      <trkpt lat="45.530793" lon="5.862087">
        <ele>424.138617</ele>
        <time>2017-06-12T22:04:44.768Z</time>
      </trkpt>
      <trkpt lat="45.529993" lon="5.861769">
        <ele>428.270812</ele>
        <time>2017-06-12T22:05:22.543Z</time>
      </trkpt>
      <trkpt lat="45.529262" lon="5.861173">
        <ele>432.422744</ele>
        <time>2017-06-12T22:05:54.326Z</time>
      </trkpt>
      <trkpt lat="45.529123" lon="5.861041">
        <ele>432.839954</ele>
        <time>2017-06-12T22:06:00.009Z</time>
      </trkpt>
      <trkpt lat="45.528641" lon="5.860512">
        <ele>434.359353</ele>
        <time>2017-06-12T22:06:18.137Z</time>
      </trkpt>
      <trkpt lat="45.528201" lon="5.859990">
        <ele>435.789109</ele>
        <time>2017-06-12T22:06:35.665Z</time>
      </trkpt>
      <trkpt lat="45.527748" lon="5.859370">
        <ele>437.595424</ele>
        <time>2017-06-12T22:06:55.928Z</time>
      </trkpt>
      <trkpt lat="45.527560" lon="5.859065">
        <ele>438.661332</ele>
        <time>2017-06-12T22:07:05.843Z</time>
      </trkpt>
      <trkpt lat="45.527287" lon="5.858372">
        <ele>440.747367</ele>
        <time>2017-06-12T22:07:26.921Z</time>
      </trkpt>
      <trkpt lat="45.527113" lon="5.858084">
        <ele>441.745206</ele>
        <time>2017-06-12T22:07:37.379Z</time>
      </trkpt>
      <trkpt lat="45.526929" lon="5.857902">
        <ele>442.583612</ele>
        <time>2017-06-12T22:07:46.282Z</time>
      </trkpt>
      <trkpt lat="45.526420" lon="5.857616">
        <ele>444.795741</ele>
        <time>2017-06-12T22:08:08.267Z</time>
      </trkpt>
      <trkpt lat="45.526134" lon="5.857381">
        <ele>446.230536</ele>
        <time>2017-06-12T22:08:21.371Z</time>
      </trkpt>
      <trkpt lat="45.524990" lon="5.855770">
        <ele>453.736299</ele>
        <time>2017-06-12T22:09:24.572Z</time>
      </trkpt>
      <trkpt lat="45.524656" lon="5.855365">
        <ele>456.196619</ele>
        <time>2017-06-12T22:09:43.580Z</time>
      </trkpt>
      <trkpt lat="45.524501" lon="5.855275">
        <ele>457.136022</ele>
        <time>2017-06-12T22:09:51.113Z</time>
      </trkpt>
      <trkpt lat="45.523376" lon="5.855002">
        <ele>463.552451</ele>
        <time>2017-06-12T22:10:46.411Z</time>
      </trkpt>
      <trkpt lat="45.523035" lon="5.855057">
        <ele>465.488713</ele>
        <time>2017-06-12T22:11:03.481Z</time>
      </trkpt>
      <trkpt lat="45.522545" lon="5.855288">
        <ele>468.400333</ele>
        <time>2017-06-12T22:11:28.711Z</time>
      </trkpt>
      <trkpt lat="45.522252" lon="5.855248">
        <ele>470.061064</ele>
        <time>2017-06-12T22:11:41.159Z</time>
      </trkpt>
      <trkpt lat="45.521780" lon="5.855140">
        <ele>471.998802</ele>
        <time>2017-06-12T22:11:58.482Z</time>
      </trkpt>
      <trkpt lat="45.521100" lon="5.854882">
        <ele>473.165622</ele>
        <time>2017-06-12T22:12:19.256Z</time>
      </trkpt>
      <trkpt lat="45.520956" lon="5.854775">
        <ele>473.434844</ele>
        <time>2017-06-12T22:12:22.960Z</time>
      </trkpt>
      <trkpt lat="45.520708" lon="5.854540">
        <ele>473.928496</ele>
        <time>2017-06-12T22:12:30.592Z</time>
      </trkpt>
      <trkpt lat="45.520517" lon="5.854382">
        <ele>474.294590</ele>
        <time>2017-06-12T22:12:36.448Z</time>
      </trkpt>
      <trkpt lat="45.520305" lon="5.854232">
        <ele>474.677999</ele>
        <time>2017-06-12T22:12:41.480Z</time>
      </trkpt>
      <trkpt lat="45.520174" lon="5.854161">
        <ele>474.813566</ele>
        <time>2017-06-12T22:12:45.421Z</time>
      </trkpt>
      <trkpt lat="45.518554" lon="5.853470">
        <ele>476.478492</ele>
        <time>2017-06-12T22:13:29.324Z</time>
      </trkpt>
      <trkpt lat="45.514122" lon="5.851699">
        <ele>483.764987</ele>
        <time>2017-06-12T22:15:42.255Z</time>
      </trkpt>
      <trkpt lat="45.513599" lon="5.851489">
        <ele>484.574010</ele>
        <time>2017-06-12T22:15:57.202Z</time>
      </trkpt>
      <trkpt lat="45.513362" lon="5.851390">
        <ele>484.927531</ele>
        <time>2017-06-12T22:16:03.905Z</time>
      </trkpt>
      <trkpt lat="45.511567" lon="5.850628">
        <ele>487.080684</ele>
        <time>2017-06-12T22:16:53.931Z</time>
      </trkpt>
      <trkpt lat="45.511041" lon="5.850424">
        <ele>487.691844</ele>
        <time>2017-06-12T22:17:08.675Z</time>
      </trkpt>
      <trkpt lat="45.510413" lon="5.850254">
        <ele>488.408534</ele>
        <time>2017-06-12T22:17:26.143Z</time>
      </trkpt>
      <trkpt lat="45.508920" lon="5.849931">
        <ele>489.756111</ele>
        <time>2017-06-12T22:18:05.167Z</time>
      </trkpt>
      <trkpt lat="45.508639" lon="5.849796">
        <ele>489.987301</ele>
        <time>2017-06-12T22:18:11.946Z</time>
      </trkpt>
      <trkpt lat="45.506808" lon="5.848900">
        <ele>492.133907</ele>
        <time>2017-06-12T22:19:01.264Z</time>
      </trkpt>
      <trkpt lat="45.504857" lon="5.847953">
        <ele>496.420513</ele>
        <time>2017-06-12T22:20:08.256Z</time>
      </trkpt>
      <trkpt lat="45.504556" lon="5.847779">
        <ele>496.732272</ele>
        <time>2017-06-12T22:20:17.141Z</time>
      </trkpt>
      <trkpt lat="45.504526" lon="5.847759">
        <ele>496.747306</ele>
        <time>2017-06-12T22:20:18.114Z</time>
      </trkpt>
      <trkpt lat="45.504288" lon="5.847537">
        <ele>496.876403</ele>
        <time>2017-06-12T22:20:25.420Z</time>
      </trkpt>
      <trkpt lat="45.504024" lon="5.847265">
        <ele>497.024246</ele>
        <time>2017-06-12T22:20:33.065Z</time>
      </trkpt>
      <trkpt lat="45.503952" lon="5.847186">
        <ele>497.065484</ele>
        <time>2017-06-12T22:20:34.887Z</time>
      </trkpt>
      <trkpt lat="45.503824" lon="5.847103">
        <ele>497.129318</ele>
        <time>2017-06-12T22:20:37.884Z</time>
      </trkpt>
      <trkpt lat="45.503611" lon="5.846833">
        <ele>497.258675</ele>
        <time>2017-06-12T22:20:43.873Z</time>
      </trkpt>
      <trkpt lat="45.503483" lon="5.846675">
        <ele>497.335519</ele>
        <time>2017-06-12T22:20:47.667Z</time>
      </trkpt>
      <trkpt lat="45.503459" lon="5.846645">
        <ele>497.350006</ele>
        <time>2017-06-12T22:20:48.391Z</time>
      </trkpt>
      <trkpt lat="45.503431" lon="5.846569">
        <ele>497.377327</ele>
        <time>2017-06-12T22:20:49.477Z</time>
      </trkpt>
      <trkpt lat="45.503149" lon="5.846193">
        <ele>497.759993</ele>
        <time>2017-06-12T22:20:57.838Z</time>
      </trkpt>
      <trkpt lat="45.503103" lon="5.846167">
        <ele>497.824907</ele>
        <time>2017-06-12T22:20:58.790Z</time>
      </trkpt>
      <trkpt lat="45.502937" lon="5.845941">
        <ele>498.125935</ele>
        <time>2017-06-12T22:21:04.810Z</time>
      </trkpt>
      <trkpt lat="45.502703" lon="5.845623">
        <ele>498.549910</ele>
        <time>2017-06-12T22:21:13.024Z</time>
      </trkpt>
      <trkpt lat="45.502548" lon="5.845412">
        <ele>498.830976</ele>
        <time>2017-06-12T22:21:18.700Z</time>
      </trkpt>
      <trkpt lat="45.502426" lon="5.845247">
        <ele>499.051520</ele>
        <time>2017-06-12T22:21:23.802Z</time>
      </trkpt>
      <trkpt lat="45.502384" lon="5.845191">
        <ele>499.126938</ele>
        <time>2017-06-12T22:21:25.407Z</time>
      </trkpt>
      <trkpt lat="45.502299" lon="5.845077">
        <ele>499.279991</ele>
        <time>2017-06-12T22:21:28.716Z</time>
      </trkpt>
      <trkpt lat="45.502203" lon="5.844953">
        <ele>499.449886</ele>
        <time>2017-06-12T22:21:32.933Z</time>
      </trkpt>
      <trkpt lat="45.502139" lon="5.844870">
        <ele>499.563356</ele>
        <time>2017-06-12T22:21:35.754Z</time>
      </trkpt>
      <trkpt lat="45.502126" lon="5.844852">
        <ele>499.587123</ele>
        <time>2017-06-12T22:21:36.389Z</time>
      </trkpt>
      <trkpt lat="45.502114" lon="5.844797">
        <ele>499.640092</ele>
        <time>2017-06-12T22:21:37.905Z</time>
      </trkpt>
      <trkpt lat="45.502022" lon="5.844673">
        <ele>499.809834</ele>
        <time>2017-06-12T22:21:41.689Z</time>
      </trkpt>
      <trkpt lat="45.501973" lon="5.844653">
        <ele>499.946118</ele>
        <time>2017-06-12T22:21:43.615Z</time>
      </trkpt>
      <trkpt lat="45.501768" lon="5.844381">
        <ele>500.694701</ele>
        <time>2017-06-12T22:21:53.538Z</time>
      </trkpt>
      <trkpt lat="45.501456" lon="5.844010">
        <ele>501.780767</ele>
        <time>2017-06-12T22:22:08.131Z</time>
      </trkpt>
      <trkpt lat="45.501272" lon="5.843844">
        <ele>502.362903</ele>
        <time>2017-06-12T22:22:16.185Z</time>
      </trkpt>
      <trkpt lat="45.501189" lon="5.843777">
        <ele>502.617909</ele>
        <time>2017-06-12T22:22:19.397Z</time>
      </trkpt>
      <trkpt lat="45.501054" lon="5.843664">
        <ele>503.036444</ele>
        <time>2017-06-12T22:22:24.920Z</time>
      </trkpt>
      <trkpt lat="45.500668" lon="5.843339">
        <ele>504.234954</ele>
        <time>2017-06-12T22:22:38.895Z</time>
      </trkpt>
      <trkpt lat="45.500601" lon="5.843282">
        <ele>504.443548</ele>
        <time>2017-06-12T22:22:41.296Z</time>
      </trkpt>
      <trkpt lat="45.500476" lon="5.843141">
        <ele>504.629868</ele>
        <time>2017-06-12T22:22:46.115Z</time>
      </trkpt>
      <trkpt lat="45.500309" lon="5.842998">
        <ele>504.665586</ele>
        <time>2017-06-12T22:22:50.786Z</time>
      </trkpt>
      <trkpt lat="45.500262" lon="5.842959">
        <ele>504.675557</ele>
        <time>2017-06-12T22:22:52.410Z</time>
      </trkpt>
      <trkpt lat="45.500225" lon="5.842926">
        <ele>504.683558</ele>
        <time>2017-06-12T22:22:53.617Z</time>
      </trkpt>
      <trkpt lat="45.500188" lon="5.842893">
        <ele>504.691560</ele>
        <time>2017-06-12T22:22:54.868Z</time>
      </trkpt>
      <trkpt lat="45.500069" lon="5.842786">
        <ele>504.717356</ele>
        <time>2017-06-12T22:22:57.946Z</time>
      </trkpt>
      <trkpt lat="45.499801" lon="5.842473">
        <ele>504.780870</ele>
        <time>2017-06-12T22:23:06.307Z</time>
      </trkpt>
      <trkpt lat="45.499680" lon="5.842303">
        <ele>504.812012</ele>
        <time>2017-06-12T22:23:10.463Z</time>
      </trkpt>
      <trkpt lat="45.499630" lon="5.842161">
        <ele>504.832438</ele>
        <time>2017-06-12T22:23:12.918Z</time>
      </trkpt>
      <trkpt lat="45.499593" lon="5.842038">
        <ele>504.849643</ele>
        <time>2017-06-12T22:23:14.531Z</time>
      </trkpt>
      <trkpt lat="45.499420" lon="5.841073">
        <ele>504.913396</ele>
        <time>2017-06-12T22:23:28.036Z</time>
      </trkpt>
      <trkpt lat="45.499242" lon="5.840614">
        <ele>504.859139</ele>
        <time>2017-06-12T22:23:34.968Z</time>
      </trkpt>
      <trkpt lat="45.499106" lon="5.840412">
        <ele>504.830168</ele>
        <time>2017-06-12T22:23:39.236Z</time>
      </trkpt>
      <trkpt lat="45.498735" lon="5.840019">
        <ele>504.761979</ele>
        <time>2017-06-12T22:23:49.177Z</time>
      </trkpt>
      <trkpt lat="45.498317" lon="5.839613">
        <ele>504.687358</ele>
        <time>2017-06-12T22:24:01.596Z</time>
      </trkpt>
      <trkpt lat="45.498126" lon="5.839498">
        <ele>504.922612</ele>
        <time>2017-06-12T22:24:06.886Z</time>
      </trkpt>
      <trkpt lat="45.497858" lon="5.839387">
        <ele>505.432397</ele>
        <time>2017-06-12T22:24:14.221Z</time>
      </trkpt>
      <trkpt lat="45.497868" lon="5.839339">
        <ele>505.496516</ele>
        <time>2017-06-12T22:24:15.580Z</time>
      </trkpt>
      <trkpt lat="45.497878" lon="5.839288">
        <ele>505.564325</ele>
        <time>2017-06-12T22:24:16.485Z</time>
      </trkpt>
      <trkpt lat="45.497569" lon="5.839078">
        <ele>506.189568</ele>
        <time>2017-06-12T22:24:26.661Z</time>
      </trkpt>
      <trkpt lat="45.497338" lon="5.838997">
        <ele>506.624109</ele>
        <time>2017-06-12T22:24:33.735Z</time>
      </trkpt>
      <trkpt lat="45.497302" lon="5.838922">
        <ele>506.740502</ele>
        <time>2017-06-12T22:24:35.734Z</time>
      </trkpt>
      <trkpt lat="45.497304" lon="5.838785">
        <ele>506.915963</ele>
        <time>2017-06-12T22:24:38.959Z</time>
      </trkpt>
      <trkpt lat="45.497323" lon="5.838654">
        <ele>507.087256</ele>
        <time>2017-06-12T22:24:42.249Z</time>
      </trkpt>
      <trkpt lat="45.497366" lon="5.838513">
        <ele>507.284147</ele>
        <time>2017-06-12T22:24:45.304Z</time>
      </trkpt>
      <trkpt lat="45.497524" lon="5.838211">
        <ele>507.766683</ele>
        <time>2017-06-12T22:24:54.449Z</time>
      </trkpt>
      <trkpt lat="45.497564" lon="5.838120">
        <ele>507.904219</ele>
        <time>2017-06-12T22:24:56.668Z</time>
      </trkpt>
      <trkpt lat="45.497556" lon="5.838024">
        <ele>508.102338</ele>
        <time>2017-06-12T22:24:58.891Z</time>
      </trkpt>
      <trkpt lat="45.497479" lon="5.837860">
        <ele>508.641119</ele>
        <time>2017-06-12T22:25:03.805Z</time>
      </trkpt>
      <trkpt lat="45.497167" lon="5.837466">
        <ele>510.263658</ele>
        <time>2017-06-12T22:25:19.145Z</time>
      </trkpt>
      <trkpt lat="45.497096" lon="5.837309">
        <ele>510.773640</ele>
        <time>2017-06-12T22:25:23.934Z</time>
      </trkpt>
      <trkpt lat="45.497075" lon="5.837136">
        <ele>511.252875</ele>
        <time>2017-06-12T22:25:28.542Z</time>
      </trkpt>
      <trkpt lat="45.497097" lon="5.836943">
        <ele>511.786593</ele>
        <time>2017-06-12T22:25:34.524Z</time>
      </trkpt>
      <trkpt lat="45.497190" lon="5.836637">
        <ele>512.696957</ele>
        <time>2017-06-12T22:25:43.370Z</time>
      </trkpt>
      <trkpt lat="45.497101" lon="5.836028">
        <ele>514.394977</ele>
        <time>2017-06-12T22:26:01.679Z</time>
      </trkpt>
      <trkpt lat="45.497154" lon="5.835606">
        <ele>515.972606</ele>
        <time>2017-06-12T22:26:14.297Z</time>
      </trkpt>
      <trkpt lat="45.497043" lon="5.835554">
        <ele>516.737085</ele>
        <time>2017-06-12T22:26:19.648Z</time>
      </trkpt>
      <trkpt lat="45.496454" lon="5.835334">
        <ele>520.721076</ele>
        <time>2017-06-12T22:26:45.411Z</time>
      </trkpt>
      <trkpt lat="45.496074" lon="5.835098">
        <ele>523.432980</ele>
        <time>2017-06-12T22:27:07.996Z</time>
      </trkpt>
      <trkpt lat="45.495703" lon="5.834699">
        <ele>526.473138</ele>
        <time>2017-06-12T22:27:35.141Z</time>
      </trkpt>
      <trkpt lat="45.495372" lon="5.834122">
        <ele>530.337557</ele>
        <time>2017-06-12T22:28:00.485Z</time>
      </trkpt>
      <trkpt lat="45.495315" lon="5.833975">
        <ele>531.216595</ele>
        <time>2017-06-12T22:28:06.868Z</time>
      </trkpt>
      <trkpt lat="45.495285" lon="5.833914">
        <ele>531.606510</ele>
        <time>2017-06-12T22:28:11.346Z</time>
      </trkpt>
      <trkpt lat="45.495093" lon="5.833627">
        <ele>533.682446</ele>
        <time>2017-06-12T22:28:24.278Z</time>
      </trkpt>
      <trkpt lat="45.494670" lon="5.832831">
        <ele>538.909254</ele>
        <time>2017-06-12T22:29:01.413Z</time>
      </trkpt>
      <trkpt lat="45.494488" lon="5.832549">
        <ele>540.690941</ele>
        <time>2017-06-12T22:29:15.615Z</time>
      </trkpt>
      <trkpt lat="45.494202" lon="5.832230">
        <ele>542.594170</ele>
        <time>2017-06-12T22:29:34.409Z</time>
      </trkpt>
      <trkpt lat="45.494042" lon="5.832117">
        <ele>543.530128</ele>
        <time>2017-06-12T22:29:41.624Z</time>
      </trkpt>
      <trkpt lat="45.493892" lon="5.832056">
        <ele>544.347826</ele>
        <time>2017-06-12T22:29:47.933Z</time>
      </trkpt>
      <trkpt lat="45.493525" lon="5.832032">
        <ele>546.273831</ele>
        <time>2017-06-12T22:30:02.492Z</time>
      </trkpt>
      <trkpt lat="45.492717" lon="5.831849">
        <ele>550.559093</ele>
        <time>2017-06-12T22:30:34.122Z</time>
      </trkpt>
      <trkpt lat="45.492508" lon="5.831694">
        <ele>551.789280</ele>
        <time>2017-06-12T22:30:43.369Z</time>
      </trkpt>
      <trkpt lat="45.491402" lon="5.831181">
        <ele>557.862994</ele>
        <time>2017-06-12T22:31:32.934Z</time>
      </trkpt>
      <trkpt lat="45.491045" lon="5.831189">
        <ele>560.150839</ele>
        <time>2017-06-12T22:31:50.342Z</time>
      </trkpt>
      <trkpt lat="45.490799" lon="5.831280">
        <ele>562.234321</ele>
        <time>2017-06-12T22:32:03.517Z</time>
      </trkpt>
      <trkpt lat="45.490543" lon="5.831291">
        <ele>564.334030</ele>
        <time>2017-06-12T22:32:17.203Z</time>
      </trkpt>
      <trkpt lat="45.490413" lon="5.831213">
        <ele>565.490245</ele>
        <time>2017-06-12T22:32:24.949Z</time>
      </trkpt>
      <trkpt lat="45.489962" lon="5.830792">
        <ele>569.908991</ele>
        <time>2017-06-12T22:32:55.985Z</time>
      </trkpt>
      <trkpt lat="45.489199" lon="5.830245">
        <ele>577.291867</ele>
        <time>2017-06-12T22:33:46.958Z</time>
      </trkpt>
      <trkpt lat="45.489016" lon="5.830184">
        <ele>579.017712</ele>
        <time>2017-06-12T22:33:58.366Z</time>
      </trkpt>
      <trkpt lat="45.488805" lon="5.830210">
        <ele>580.962634</ele>
        <time>2017-06-12T22:34:10.809Z</time>
      </trkpt>
      <trkpt lat="45.488747" lon="5.830184">
        <ele>581.520957</ele>
        <time>2017-06-12T22:34:14.479Z</time>
      </trkpt>
      <trkpt lat="45.488704" lon="5.830073">
        <ele>582.337427</ele>
        <time>2017-06-12T22:34:19.903Z</time>
      </trkpt>
      <trkpt lat="45.488725" lon="5.830006">
        <ele>582.809924</ele>
        <time>2017-06-12T22:34:22.908Z</time>
      </trkpt>
      <trkpt lat="45.489155" lon="5.829760">
        <ele>587.064560</ele>
        <time>2017-06-12T22:34:50.129Z</time>
      </trkpt>
      <trkpt lat="45.489200" lon="5.829655">
        <ele>587.856861</ele>
        <time>2017-06-12T22:34:55.116Z</time>
      </trkpt>
      <trkpt lat="45.489163" lon="5.829532">
        <ele>588.718556</ele>
        <time>2017-06-12T22:35:00.773Z</time>
      </trkpt>
      <trkpt lat="45.489108" lon="5.829505">
        <ele>589.252720</ele>
        <time>2017-06-12T22:35:04.100Z</time>
      </trkpt>
      <trkpt lat="45.488225" lon="5.829545">
        <ele>597.043485</ele>
        <time>2017-06-12T22:35:55.010Z</time>
      </trkpt>
      <trkpt lat="45.487753" lon="5.829400">
        <ele>601.276669</ele>
        <time>2017-06-12T22:36:22.931Z</time>
      </trkpt>
      <trkpt lat="45.487610" lon="5.829322">
        <ele>602.618974</ele>
        <time>2017-06-12T22:36:31.713Z</time>
      </trkpt>
      <trkpt lat="45.487329" lon="5.829009">
        <ele>605.744859</ele>
        <time>2017-06-12T22:36:52.165Z</time>
      </trkpt>
      <trkpt lat="45.486653" lon="5.828711">
        <ele>610.777031</ele>
        <time>2017-06-12T22:37:31.192Z</time>
      </trkpt>
      <trkpt lat="45.486527" lon="5.828606">
        <ele>611.803753</ele>
        <time>2017-06-12T22:37:38.944Z</time>
      </trkpt>
      <trkpt lat="45.486205" lon="5.827898">
        <ele>615.966572</ele>
        <time>2017-06-12T22:38:08.997Z</time>
      </trkpt>
      <trkpt lat="45.485408" lon="5.827421">
        <ele>620.051345</ele>
        <time>2017-06-12T22:38:45.249Z</time>
      </trkpt>
      <trkpt lat="45.485218" lon="5.827327">
        <ele>620.629210</ele>
        <time>2017-06-12T22:38:52.377Z</time>
      </trkpt>
      <trkpt lat="45.484676" lon="5.827340">
        <ele>622.186841</ele>
        <time>2017-06-12T22:39:09.275Z</time>
      </trkpt>
      <trkpt lat="45.483501" lon="5.827102">
        <ele>624.733516</ele>
        <time>2017-06-12T22:39:41.512Z</time>
      </trkpt>
      <trkpt lat="45.483072" lon="5.826949">
        <ele>625.379182</ele>
        <time>2017-06-12T22:39:53.252Z</time>
      </trkpt>
      <trkpt lat="45.482170" lon="5.826418">
        <ele>626.931581</ele>
        <time>2017-06-12T22:40:21.713Z</time>
      </trkpt>
      <trkpt lat="45.481030" lon="5.825642">
        <ele>629.475824</ele>
        <time>2017-06-12T22:41:01.398Z</time>
      </trkpt>
      <trkpt lat="45.480197" lon="5.825264">
        <ele>630.548482</ele>
        <time>2017-06-12T22:41:26.444Z</time>
      </trkpt>
      <trkpt lat="45.479781" lon="5.824891">
        <ele>630.944069</ele>
        <time>2017-06-12T22:41:39.242Z</time>
      </trkpt>
      <trkpt lat="45.478201" lon="5.824256">
        <ele>631.142906</ele>
        <time>2017-06-12T22:42:15.623Z</time>
      </trkpt>
      <trkpt lat="45.477453" lon="5.823778">
        <ele>630.784041</ele>
        <time>2017-06-12T22:42:31.988Z</time>
      </trkpt>
      <trkpt lat="45.476125" lon="5.823212">
        <ele>628.895282</ele>
        <time>2017-06-12T22:42:58.072Z</time>
      </trkpt>
      <trkpt lat="45.474808" lon="5.822094">
        <ele>626.138850</ele>
        <time>2017-06-12T22:43:24.970Z</time>
      </trkpt>
      <trkpt lat="45.474496" lon="5.821917">
        <ele>625.474942</ele>
        <time>2017-06-12T22:43:30.718Z</time>
      </trkpt>
      <trkpt lat="45.474310" lon="5.821890">
        <ele>625.105281</ele>
        <time>2017-06-12T22:43:33.949Z</time>
      </trkpt>
      <trkpt lat="45.474209" lon="5.821886">
        <ele>624.905507</ele>
        <time>2017-06-12T22:43:35.579Z</time>
      </trkpt>
      <trkpt lat="45.473728" lon="5.821894">
        <ele>624.767998</ele>
        <time>2017-06-12T22:43:44.489Z</time>
      </trkpt>
      <trkpt lat="45.473259" lon="5.821901">
        <ele>624.929210</ele>
        <time>2017-06-12T22:43:54.299Z</time>
      </trkpt>
      <trkpt lat="45.473118" lon="5.821971">
        <ele>624.980527</ele>
        <time>2017-06-12T22:43:57.234Z</time>
      </trkpt>
      <trkpt lat="45.472946" lon="5.822165">
        <ele>625.055903</ele>
        <time>2017-06-12T22:44:03.091Z</time>
      </trkpt>
      <trkpt lat="45.472904" lon="5.822213">
        <ele>625.074403</ele>
        <time>2017-06-12T22:44:04.038Z</time>
      </trkpt>
      <trkpt lat="45.472486" lon="5.821618">
        <ele>625.394593</ele>
        <time>2017-06-12T22:44:21.515Z</time>
      </trkpt>
      <trkpt lat="45.470575" lon="5.818896">
        <ele>635.285535</ele>
        <time>2017-06-12T22:46:06.393Z</time>
      </trkpt>
      <trkpt lat="45.470466" lon="5.818749">
        <ele>635.797335</ele>
        <time>2017-06-12T22:46:12.174Z</time>
      </trkpt>
      <trkpt lat="45.470401" lon="5.818661">
        <ele>636.103096</ele>
        <time>2017-06-12T22:46:15.219Z</time>
      </trkpt>
      <trkpt lat="45.469490" lon="5.817358">
        <ele>638.632467</ele>
        <time>2017-06-12T22:46:55.814Z</time>
      </trkpt>
      <trkpt lat="45.469383" lon="5.817204">
        <ele>638.724756</ele>
        <time>2017-06-12T22:46:59.985Z</time>
      </trkpt>
      <trkpt lat="45.469135" lon="5.816869">
        <ele>638.932129</ele>
        <time>2017-06-12T22:47:07.738Z</time>
      </trkpt>
      <trkpt lat="45.468636" lon="5.816285">
        <ele>639.286767</ele>
        <time>2017-06-12T22:47:20.836Z</time>
      </trkpt>
      <trkpt lat="45.468441" lon="5.816098">
        <ele>638.364618</ele>
        <time>2017-06-12T22:47:25.149Z</time>
      </trkpt>
      <trkpt lat="45.468119" lon="5.815823">
        <ele>636.891759</ele>
        <time>2017-06-12T22:47:31.606Z</time>
      </trkpt>
      <trkpt lat="45.467594" lon="5.815507">
        <ele>634.655587</ele>
        <time>2017-06-12T22:47:40.727Z</time>
      </trkpt>
      <trkpt lat="45.464482" lon="5.813931">
        <ele>615.440520</ele>
        <time>2017-06-12T22:48:28.342Z</time>
      </trkpt>
      <trkpt lat="45.464089" lon="5.813646">
        <ele>613.025219</ele>
        <time>2017-06-12T22:48:34.894Z</time>
      </trkpt>
      <trkpt lat="45.462802" lon="5.812613">
        <ele>608.357949</ele>
        <time>2017-06-12T22:48:58.802Z</time>
      </trkpt>
      <trkpt lat="45.462043" lon="5.812024">
        <ele>606.713230</ele>
        <time>2017-06-12T22:49:16.528Z</time>
      </trkpt>
      <trkpt lat="45.460280" lon="5.810795">
        <ele>606.831022</ele>
        <time>2017-06-12T22:50:00.898Z</time>
      </trkpt>
      <trkpt lat="45.460076" lon="5.810615">
        <ele>606.861430</ele>
        <time>2017-06-12T22:50:07.044Z</time>
      </trkpt>
      <trkpt lat="45.459811" lon="5.810269">
        <ele>606.906975</ele>
        <time>2017-06-12T22:50:16.469Z</time>
      </trkpt>
      <trkpt lat="45.459719" lon="5.810125">
        <ele>606.924292</ele>
        <time>2017-06-12T22:50:20.181Z</time>
      </trkpt>
      <trkpt lat="45.459385" lon="5.809512">
        <ele>606.993301</ele>
        <time>2017-06-12T22:50:31.573Z</time>
      </trkpt>
      <trkpt lat="45.458946" lon="5.808706">
        <ele>606.352621</ele>
        <time>2017-06-12T22:50:46.036Z</time>
      </trkpt>
      <trkpt lat="45.458824" lon="5.808466">
        <ele>606.033012</ele>
        <time>2017-06-12T22:50:50.623Z</time>
      </trkpt>
      <trkpt lat="45.458761" lon="5.808342">
        <ele>605.867910</ele>
        <time>2017-06-12T22:50:52.368Z</time>
      </trkpt>
      <trkpt lat="45.458684" lon="5.807992">
        <ele>605.472374</ele>
        <time>2017-06-12T22:50:57.507Z</time>
      </trkpt>
      <trkpt lat="45.458690" lon="5.807806">
        <ele>605.271596</ele>
        <time>2017-06-12T22:50:59.621Z</time>
      </trkpt>
      <trkpt lat="45.458716" lon="5.807566">
        <ele>605.009734</ele>
        <time>2017-06-12T22:51:02.834Z</time>
      </trkpt>
      <trkpt lat="45.458843" lon="5.807069">
        <ele>604.439359</ele>
        <time>2017-06-12T22:51:09.196Z</time>
      </trkpt>
      <trkpt lat="45.458896" lon="5.806705">
        <ele>603.937584</ele>
        <time>2017-06-12T22:51:13.488Z</time>
      </trkpt>
      <trkpt lat="45.458888" lon="5.806481">
        <ele>603.587145</ele>
        <time>2017-06-12T22:51:16.214Z</time>
      </trkpt>
      <trkpt lat="45.458804" lon="5.806064">
        <ele>602.909272</ele>
        <time>2017-06-12T22:51:21.224Z</time>
      </trkpt>
      <trkpt lat="45.457989" lon="5.804382">
        <ele>599.575809</ele>
        <time>2017-06-12T22:51:46.622Z</time>
      </trkpt>
      <trkpt lat="45.457329" lon="5.803265">
        <ele>596.706681</ele>
        <time>2017-06-12T22:52:04.415Z</time>
      </trkpt>
      <trkpt lat="45.457186" lon="5.803028">
        <ele>596.092539</ele>
        <time>2017-06-12T22:52:07.968Z</time>
      </trkpt>
      <trkpt lat="45.457027" lon="5.802765">
        <ele>595.410451</ele>
        <time>2017-06-12T22:52:11.795Z</time>
      </trkpt>
      <trkpt lat="45.456698" lon="5.802308">
        <ele>593.268501</ele>
        <time>2017-06-12T22:52:18.786Z</time>
      </trkpt>
      <trkpt lat="45.456390" lon="5.802120">
        <ele>591.597279</ele>
        <time>2017-06-12T22:52:23.771Z</time>
      </trkpt>
      <trkpt lat="45.456166" lon="5.802103">
        <ele>590.478368</ele>
        <time>2017-06-12T22:52:27.105Z</time>
      </trkpt>
      <trkpt lat="45.455850" lon="5.802129">
        <ele>588.899514</ele>
        <time>2017-06-12T22:52:31.778Z</time>
      </trkpt>
      <trkpt lat="45.455541" lon="5.802166">
        <ele>587.352773</ele>
        <time>2017-06-12T22:52:36.440Z</time>
      </trkpt>
      <trkpt lat="45.454936" lon="5.802230">
        <ele>585.038071</ele>
        <time>2017-06-12T22:52:45.697Z</time>
      </trkpt>
      <trkpt lat="45.454719" lon="5.802236">
        <ele>584.356404</ele>
        <time>2017-06-12T22:52:49.076Z</time>
      </trkpt>
      <trkpt lat="45.454329" lon="5.802175">
        <ele>583.124167</ele>
        <time>2017-06-12T22:52:55.225Z</time>
      </trkpt>
      <trkpt lat="45.454132" lon="5.802091">
        <ele>582.478358</ele>
        <time>2017-06-12T22:52:58.633Z</time>
      </trkpt>
      <trkpt lat="45.453943" lon="5.801980">
        <ele>581.836358</ele>
        <time>2017-06-12T22:53:02.212Z</time>
      </trkpt>
      <trkpt lat="45.453760" lon="5.801819">
        <ele>581.160960</ele>
        <time>2017-06-12T22:53:06.204Z</time>
      </trkpt>
      <trkpt lat="45.453459" lon="5.801476">
        <ele>580.540799</ele>
        <time>2017-06-12T22:53:13.775Z</time>
      </trkpt>
      <trkpt lat="45.453343" lon="5.801302">
        <ele>580.493726</ele>
        <time>2017-06-12T22:53:17.333Z</time>
      </trkpt>
      <trkpt lat="45.453268" lon="5.801153">
        <ele>580.457763</ele>
        <time>2017-06-12T22:53:20.145Z</time>
      </trkpt>
      <trkpt lat="45.453028" lon="5.800465">
        <ele>580.307083</ele>
        <time>2017-06-12T22:53:31.832Z</time>
      </trkpt>
      <trkpt lat="45.452984" lon="5.800253">
        <ele>580.263727</ele>
        <time>2017-06-12T22:53:35.324Z</time>
      </trkpt>
      <trkpt lat="45.452962" lon="5.800091">
        <ele>580.231369</ele>
        <time>2017-06-12T22:53:37.934Z</time>
      </trkpt>
      <trkpt lat="45.452962" lon="5.799415">
        <ele>580.098803</ele>
        <time>2017-06-12T22:53:48.625Z</time>
      </trkpt>
      <trkpt lat="45.452987" lon="5.799185">
        <ele>580.122199</ele>
        <time>2017-06-12T22:53:52.325Z</time>
      </trkpt>
      <trkpt lat="45.452997" lon="5.799090">
        <ele>580.133974</ele>
        <time>2017-06-12T22:53:53.864Z</time>
      </trkpt>
      <trkpt lat="45.453082" lon="5.798703">
        <ele>580.183683</ele>
        <time>2017-06-12T22:54:00.330Z</time>
      </trkpt>
      <trkpt lat="45.453179" lon="5.798428">
        <ele>580.221414</ele>
        <time>2017-06-12T22:54:05.291Z</time>
      </trkpt>
      <trkpt lat="45.453427" lon="5.797958">
        <ele>580.293505</ele>
        <time>2017-06-12T22:54:14.817Z</time>
      </trkpt>
      <trkpt lat="45.453917" lon="5.797257">
        <ele>580.418308</ele>
        <time>2017-06-12T22:54:30.950Z</time>
      </trkpt>
      <trkpt lat="45.454105" lon="5.796931">
        <ele>580.507203</ele>
        <time>2017-06-12T22:54:37.806Z</time>
      </trkpt>
      <trkpt lat="45.454268" lon="5.796478">
        <ele>580.614444</ele>
        <time>2017-06-12T22:54:46.017Z</time>
      </trkpt>
      <trkpt lat="45.454346" lon="5.795986">
        <ele>580.720692</ele>
        <time>2017-06-12T22:54:54.042Z</time>
      </trkpt>
      <trkpt lat="45.454341" lon="5.795534">
        <ele>580.815912</ele>
        <time>2017-06-12T22:55:01.315Z</time>
      </trkpt>
      <trkpt lat="45.454239" lon="5.795014">
        <ele>580.929647</ele>
        <time>2017-06-12T22:55:10.651Z</time>
      </trkpt>
      <trkpt lat="45.453953" lon="5.794308">
        <ele>580.818432</ele>
        <time>2017-06-12T22:55:25.053Z</time>
      </trkpt>
      <trkpt lat="45.453730" lon="5.793781">
        <ele>580.705699</ele>
        <time>2017-06-12T22:55:35.519Z</time>
      </trkpt>
      <trkpt lat="45.453676" lon="5.793594">
        <ele>580.668658</ele>
        <time>2017-06-12T22:55:39.841Z</time>
      </trkpt>
      <trkpt lat="45.453601" lon="5.793098">
        <ele>580.575719</ele>
        <time>2017-06-12T22:55:47.471Z</time>
      </trkpt>
      <trkpt lat="45.453551" lon="5.792355">
        <ele>579.575702</ele>
        <time>2017-06-12T22:55:56.527Z</time>
      </trkpt>
      <trkpt lat="45.453544" lon="5.791947">
        <ele>577.941338</ele>
        <time>2017-06-12T22:56:01.622Z</time>
      </trkpt>
      <trkpt lat="45.453506" lon="5.791937">
        <ele>577.720742</ele>
        <time>2017-06-12T22:56:02.300Z</time>
      </trkpt>
      <trkpt lat="45.452949" lon="5.791787">
        <ele>574.484743</ele>
        <time>2017-06-12T22:56:14.149Z</time>
      </trkpt>
      <trkpt lat="45.452357" lon="5.791678">
        <ele>571.077106</ele>
        <time>2017-06-12T22:56:25.619Z</time>
      </trkpt>
      <trkpt lat="45.451448" lon="5.791536">
        <ele>563.436289</ele>
        <time>2017-06-12T22:56:38.802Z</time>
      </trkpt>
      <trkpt lat="45.451031" lon="5.791342">
        <ele>559.540583</ele>
        <time>2017-06-12T22:56:45.088Z</time>
      </trkpt>
      <trkpt lat="45.450875" lon="5.791134">
        <ele>557.643505</ele>
        <time>2017-06-12T22:56:48.164Z</time>
      </trkpt>
      <trkpt lat="45.450619" lon="5.790253">
        <ele>551.855608</ele>
        <time>2017-06-12T22:56:57.940Z</time>
      </trkpt>
      <trkpt lat="45.450335" lon="5.789658">
        <ele>547.642860</ele>
        <time>2017-06-12T22:57:05.573Z</time>
      </trkpt>
      <trkpt lat="45.450250" lon="5.789502">
        <ele>546.486578</ele>
        <time>2017-06-12T22:57:07.604Z</time>
      </trkpt>
      <trkpt lat="45.450243" lon="5.789487">
        <ele>546.381118</ele>
        <time>2017-06-12T22:57:07.818Z</time>
      </trkpt>
      <trkpt lat="45.450165" lon="5.789321">
        <ele>545.211552</ele>
        <time>2017-06-12T22:57:10.022Z</time>
      </trkpt>
      <trkpt lat="45.450016" lon="5.789079">
        <ele>543.326705</ele>
        <time>2017-06-12T22:57:13.398Z</time>
      </trkpt>
      <trkpt lat="45.449929" lon="5.788783">
        <ele>541.448038</ele>
        <time>2017-06-12T22:57:16.847Z</time>
      </trkpt>
      <trkpt lat="45.449757" lon="5.788392">
        <ele>538.211919</ele>
        <time>2017-06-12T22:57:21.702Z</time>
      </trkpt>
      <trkpt lat="45.449559" lon="5.788260">
        <ele>534.371052</ele>
        <time>2017-06-12T22:57:24.644Z</time>
      </trkpt>
      <trkpt lat="45.449242" lon="5.787730">
        <ele>525.785499</ele>
        <time>2017-06-12T22:57:31.209Z</time>
      </trkpt>
      <trkpt lat="45.448977" lon="5.786769">
        <ele>513.056789</ele>
        <time>2017-06-12T22:57:40.806Z</time>
      </trkpt>
      <trkpt lat="45.448887" lon="5.786608">
        <ele>510.519093</ele>
        <time>2017-06-12T22:57:42.728Z</time>
      </trkpt>
      <trkpt lat="45.448759" lon="5.786400">
        <ele>507.243917</ele>
        <time>2017-06-12T22:57:45.292Z</time>
      </trkpt>
      <trkpt lat="45.448716" lon="5.785837">
        <ele>502.094900</ele>
        <time>2017-06-12T22:57:50.656Z</time>
      </trkpt>
      <trkpt lat="45.448193" lon="5.785069">
        <ele>492.363563</ele>
        <time>2017-06-12T22:58:00.964Z</time>
      </trkpt>
      <trkpt lat="45.447587" lon="5.784715">
        <ele>484.044702</ele>
        <time>2017-06-12T22:58:13.601Z</time>
      </trkpt>
      <trkpt lat="45.447081" lon="5.784727">
        <ele>480.008712</ele>
        <time>2017-06-12T22:58:23.734Z</time>
      </trkpt>
      <trkpt lat="45.446741" lon="5.784601">
        <ele>477.207010</ele>
        <time>2017-06-12T22:58:31.123Z</time>
      </trkpt>
      <trkpt lat="45.446493" lon="5.784354">
        <ele>474.794172</ele>
        <time>2017-06-12T22:58:38.073Z</time>
      </trkpt>
      <trkpt lat="45.446295" lon="5.784101">
        <ele>472.673471</ele>
        <time>2017-06-12T22:58:41.933Z</time>
      </trkpt>
      <trkpt lat="45.445692" lon="5.783565">
        <ele>464.025662</ele>
        <time>2017-06-12T22:58:51.726Z</time>
      </trkpt>
      <trkpt lat="45.444821" lon="5.783058">
        <ele>448.978610</ele>
        <time>2017-06-12T22:59:04.252Z</time>
      </trkpt>
      <trkpt lat="45.444197" lon="5.782622">
        <ele>439.235397</ele>
        <time>2017-06-12T22:59:13.679Z</time>
      </trkpt>
      <trkpt lat="45.444119" lon="5.782612">
        <ele>438.497140</ele>
        <time>2017-06-12T22:59:14.693Z</time>
      </trkpt>
      <trkpt lat="45.443772" lon="5.782464">
        <ele>435.082732</ele>
        <time>2017-06-12T22:59:19.537Z</time>
      </trkpt>
      <trkpt lat="45.443560" lon="5.782423">
        <ele>433.065944</ele>
        <time>2017-06-12T22:59:22.478Z</time>
      </trkpt>
      <trkpt lat="45.443313" lon="5.782426">
        <ele>430.737447</ele>
        <time>2017-06-12T22:59:25.846Z</time>
      </trkpt>
      <trkpt lat="45.443074" lon="5.782393">
        <ele>428.473902</ele>
        <time>2017-06-12T22:59:29.279Z</time>
      </trkpt>
      <trkpt lat="45.442976" lon="5.782403">
        <ele>427.547714</ele>
        <time>2017-06-12T22:59:30.688Z</time>
      </trkpt>
      <trkpt lat="45.442894" lon="5.782454">
        <ele>426.704326</ele>
        <time>2017-06-12T22:59:32.730Z</time>
      </trkpt>
      <trkpt lat="45.442718" lon="5.782715">
        <ele>424.310037</ele>
        <time>2017-06-12T22:59:36.503Z</time>
      </trkpt>
      <trkpt lat="45.442566" lon="5.782805">
        <ele>423.634050</ele>
        <time>2017-06-12T22:59:39.151Z</time>
      </trkpt>
      <trkpt lat="45.442466" lon="5.782788">
        <ele>423.242543</ele>
        <time>2017-06-12T22:59:40.814Z</time>
      </trkpt>
      <trkpt lat="45.442341" lon="5.782731">
        <ele>422.732338</ele>
        <time>2017-06-12T22:59:42.811Z</time>
      </trkpt>
      <trkpt lat="45.442195" lon="5.782665">
        <ele>422.136896</ele>
        <time>2017-06-12T22:59:45.320Z</time>
      </trkpt>
      <trkpt lat="45.442128" lon="5.782630">
        <ele>421.859488</ele>
        <time>2017-06-12T22:59:46.479Z</time>
      </trkpt>
      <trkpt lat="45.442005" lon="5.782417">
        <ele>421.107040</ele>
        <time>2017-06-12T22:59:49.549Z</time>
      </trkpt>
      <trkpt lat="45.441756" lon="5.782163">
        <ele>419.916663</ele>
        <time>2017-06-12T22:59:54.568Z</time>
      </trkpt>
      <trkpt lat="45.441694" lon="5.782102">
        <ele>419.623786</ele>
        <time>2017-06-12T22:59:56.002Z</time>
      </trkpt>
      <trkpt lat="45.441631" lon="5.782030">
        <ele>419.309857</ele>
        <time>2017-06-12T22:59:57.291Z</time>
      </trkpt>
      <trkpt lat="45.441579" lon="5.781939">
        <ele>418.989740</ele>
        <time>2017-06-12T22:59:58.868Z</time>
      </trkpt>
      <trkpt lat="45.441531" lon="5.781836">
        <ele>418.652472</ele>
        <time>2017-06-12T23:00:00.454Z</time>
      </trkpt>
      <trkpt lat="45.441470" lon="5.781661">
        <ele>418.119477</ele>
        <time>2017-06-12T23:00:02.552Z</time>
      </trkpt>
      <trkpt lat="45.441043" lon="5.779771">
        <ele>411.275319</ele>
        <time>2017-06-12T23:00:23.490Z</time>
      </trkpt>
      <trkpt lat="45.440853" lon="5.779069">
        <ele>408.579135</ele>
        <time>2017-06-12T23:00:31.285Z</time>
      </trkpt>
      <trkpt lat="45.440749" lon="5.778711">
        <ele>407.507339</ele>
        <time>2017-06-12T23:00:35.431Z</time>
      </trkpt>
      <trkpt lat="45.440635" lon="5.778302">
        <ele>406.497931</ele>
        <time>2017-06-12T23:00:40.211Z</time>
      </trkpt>
      <trkpt lat="45.440533" lon="5.777962">
        <ele>405.649800</ele>
        <time>2017-06-12T23:00:44.295Z</time>
      </trkpt>
      <trkpt lat="45.440449" lon="5.777709">
        <ele>405.007819</ele>
        <time>2017-06-12T23:00:47.401Z</time>
      </trkpt>
      <trkpt lat="45.440196" lon="5.777076">
        <ele>403.336901</ele>
        <time>2017-06-12T23:00:56.032Z</time>
      </trkpt>
      <trkpt lat="45.439813" lon="5.776367">
        <ele>402.065462</ele>
        <time>2017-06-12T23:01:07.667Z</time>
      </trkpt>
      <trkpt lat="45.439665" lon="5.776132">
        <ele>401.965271</ele>
        <time>2017-06-12T23:01:12.045Z</time>
      </trkpt>
      <trkpt lat="45.439559" lon="5.775977">
        <ele>401.896598</ele>
        <time>2017-06-12T23:01:15.312Z</time>
      </trkpt>
      <trkpt lat="45.439528" lon="5.775802">
        <ele>401.839331</ele>
        <time>2017-06-12T23:01:18.102Z</time>
      </trkpt>
      <trkpt lat="45.439098" lon="5.774608">
        <ele>401.413509</ele>
        <time>2017-06-12T23:01:39.107Z</time>
      </trkpt>
      <trkpt lat="45.438972" lon="5.774168">
        <ele>401.330120</ele>
        <time>2017-06-12T23:01:46.443Z</time>
      </trkpt>
      <trkpt lat="45.438938" lon="5.774070">
        <ele>401.315801</ele>
        <time>2017-06-12T23:01:48.310Z</time>
      </trkpt>
      <trkpt lat="45.438887" lon="5.773954">
        <ele>401.297872</ele>
        <time>2017-06-12T23:01:50.449Z</time>
      </trkpt>
      <trkpt lat="45.438774" lon="5.773725">
        <ele>401.261204</ele>
        <time>2017-06-12T23:01:54.634Z</time>
      </trkpt>
      <trkpt lat="45.438790" lon="5.773676">
        <ele>401.254125</ele>
        <time>2017-06-12T23:01:55.534Z</time>
      </trkpt>
      <trkpt lat="45.438799" lon="5.773648">
        <ele>401.250091</ele>
        <time>2017-06-12T23:01:56.010Z</time>
      </trkpt>
      <trkpt lat="45.438845" lon="5.773493">
        <ele>401.228049</ele>
        <time>2017-06-12T23:01:58.526Z</time>
      </trkpt>
      <trkpt lat="45.438860" lon="5.773383">
        <ele>401.213372</ele>
        <time>2017-06-12T23:02:00.101Z</time>
      </trkpt>
      <trkpt lat="45.438852" lon="5.773289">
        <ele>401.200970</ele>
        <time>2017-06-12T23:02:01.493Z</time>
      </trkpt>
      <trkpt lat="45.438819" lon="5.773199">
        <ele>401.187670</ele>
        <time>2017-06-12T23:02:03.020Z</time>
      </trkpt>
      <trkpt lat="45.438732" lon="5.773100">
        <ele>401.166889</ele>
        <time>2017-06-12T23:02:05.466Z</time>
      </trkpt>
      <trkpt lat="45.438531" lon="5.772968">
        <ele>401.125578</ele>
        <time>2017-06-12T23:02:10.038Z</time>
      </trkpt>
      <trkpt lat="45.438454" lon="5.772913">
        <ele>401.109501</ele>
        <time>2017-06-12T23:02:11.890Z</time>
      </trkpt>
      <trkpt lat="45.438404" lon="5.772843">
        <ele>401.096418</ele>
        <time>2017-06-12T23:02:13.446Z</time>
      </trkpt>
      <trkpt lat="45.438387" lon="5.772757">
        <ele>401.084715</ele>
        <time>2017-06-12T23:02:14.645Z</time>
      </trkpt>
      <trkpt lat="45.438441" lon="5.771643">
        <ele>401.035445</ele>
        <time>2017-06-12T23:02:31.662Z</time>
      </trkpt>
      <trkpt lat="45.438433" lon="5.771472">
        <ele>401.034073</ele>
        <time>2017-06-12T23:02:34.257Z</time>
      </trkpt>
      <trkpt lat="45.438412" lon="5.771307">
        <ele>401.032731</ele>
        <time>2017-06-12T23:02:37.253Z</time>
      </trkpt>
      <trkpt lat="45.438258" lon="5.770528">
        <ele>401.026252</ele>
        <time>2017-06-12T23:02:49.703Z</time>
      </trkpt>
      <trkpt lat="45.438233" lon="5.770463">
        <ele>401.025658</ele>
        <time>2017-06-12T23:02:50.885Z</time>
      </trkpt>
      <trkpt lat="45.438211" lon="5.770408">
        <ele>401.025151</ele>
        <time>2017-06-12T23:02:52.014Z</time>
      </trkpt>
      <trkpt lat="45.437936" lon="5.770129">
        <ele>401.021300</ele>
        <time>2017-06-12T23:02:59.579Z</time>
      </trkpt>
      <trkpt lat="45.437434" lon="5.769797">
        <ele>401.017517</ele>
        <time>2017-06-12T23:03:12.329Z</time>
      </trkpt>
      <trkpt lat="45.437414" lon="5.769784">
        <ele>401.017367</ele>
        <time>2017-06-12T23:03:12.863Z</time>
      </trkpt>
      <trkpt lat="45.437308" lon="5.769677">
        <ele>401.016485</ele>
        <time>2017-06-12T23:03:15.910Z</time>
      </trkpt>
      <trkpt lat="45.437234" lon="5.769562">
        <ele>401.015742</ele>
        <time>2017-06-12T23:03:18.464Z</time>
      </trkpt>
      <trkpt lat="45.437170" lon="5.769443">
        <ele>401.015027</ele>
        <time>2017-06-12T23:03:20.835Z</time>
      </trkpt>
      <trkpt lat="45.437126" lon="5.769294">
        <ele>401.014257</ele>
        <time>2017-06-12T23:03:23.471Z</time>
      </trkpt>
      <trkpt lat="45.437108" lon="5.769215">
        <ele>401.013861</ele>
        <time>2017-06-12T23:03:24.865Z</time>
      </trkpt>
      <trkpt lat="45.437034" lon="5.768647">
        <ele>401.011108</ele>
        <time>2017-06-12T23:03:33.713Z</time>
      </trkpt>
      <trkpt lat="45.436998" lon="5.767628">
        <ele>400.706738</ele>
        <time>2017-06-12T23:03:48.683Z</time>
      </trkpt>
      <trkpt lat="45.436986" lon="5.767474">
        <ele>400.626368</ele>
        <time>2017-06-12T23:03:50.931Z</time>
      </trkpt>
      <trkpt lat="45.436969" lon="5.767353">
        <ele>400.562360</ele>
        <time>2017-06-12T23:03:52.662Z</time>
      </trkpt>
      <trkpt lat="45.436944" lon="5.767222">
        <ele>400.491943</ele>
        <time>2017-06-12T23:03:54.463Z</time>
      </trkpt>
      <trkpt lat="45.436887" lon="5.766937">
        <ele>400.338227</ele>
        <time>2017-06-12T23:03:58.751Z</time>
      </trkpt>
      <trkpt lat="45.436838" lon="5.766629">
        <ele>400.174413</ele>
        <time>2017-06-12T23:04:03.140Z</time>
      </trkpt>
      <trkpt lat="45.436822" lon="5.766419">
        <ele>400.064846</ele>
        <time>2017-06-12T23:04:06.175Z</time>
      </trkpt>
      <trkpt lat="45.436813" lon="5.766224">
        <ele>399.963482</ele>
        <time>2017-06-12T23:04:08.823Z</time>
      </trkpt>
      <trkpt lat="45.436793" lon="5.765735">
        <ele>399.709408</ele>
        <time>2017-06-12T23:04:15.456Z</time>
      </trkpt>
      <trkpt lat="45.436776" lon="5.765363">
        <ele>399.327906</ele>
        <time>2017-06-12T23:04:20.456Z</time>
      </trkpt>
      <trkpt lat="45.436763" lon="5.765231">
        <ele>399.179165</ele>
        <time>2017-06-12T23:04:22.132Z</time>
      </trkpt>
      <trkpt lat="45.436669" lon="5.764931">
        <ele>398.812540</ele>
        <time>2017-06-12T23:04:26.457Z</time>
      </trkpt>
      <trkpt lat="45.436592" lon="5.764805">
        <ele>398.626092</ele>
        <time>2017-06-12T23:04:28.549Z</time>
      </trkpt>
      <trkpt lat="45.436224" lon="5.764506">
        <ele>397.952442</ele>
        <time>2017-06-12T23:04:36.210Z</time>
      </trkpt>
      <trkpt lat="45.436098" lon="5.764403">
        <ele>397.721444</ele>
        <time>2017-06-12T23:04:38.843Z</time>
      </trkpt>
      <trkpt lat="45.435908" lon="5.764180">
        <ele>397.330012</ele>
        <time>2017-06-12T23:04:43.265Z</time>
      </trkpt>
      <trkpt lat="45.435772" lon="5.763979">
        <ele>397.018428</ele>
        <time>2017-06-12T23:04:46.781Z</time>
      </trkpt>
      <trkpt lat="45.435660" lon="5.763785">
        <ele>396.714298</ele>
        <time>2017-06-12T23:04:49.892Z</time>
      </trkpt>
      <trkpt lat="45.435285" lon="5.763089">
        <ele>395.447602</ele>
        <time>2017-06-12T23:05:00.692Z</time>
      </trkpt>
      <trkpt lat="45.435120" lon="5.762747">
        <ele>394.848485</ele>
        <time>2017-06-12T23:05:05.737Z</time>
      </trkpt>
      <trkpt lat="45.435047" lon="5.762438">
        <ele>394.377831</ele>
        <time>2017-06-12T23:05:09.688Z</time>
      </trkpt>
      <trkpt lat="45.434965" lon="5.761299">
        <ele>392.808526</ele>
        <time>2017-06-12T23:05:23.853Z</time>
      </trkpt>
      <trkpt lat="45.434946" lon="5.761147">
        <ele>392.632892</ele>
        <time>2017-06-12T23:05:25.694Z</time>
      </trkpt>
      <trkpt lat="45.434917" lon="5.760972">
        <ele>392.428340</ele>
        <time>2017-06-12T23:05:27.985Z</time>
      </trkpt>
      <trkpt lat="45.434705" lon="5.760169">
        <ele>391.452349</ele>
        <time>2017-06-12T23:05:38.887Z</time>
      </trkpt>
      <trkpt lat="45.434633" lon="5.759757">
        <ele>390.969348</ele>
        <time>2017-06-12T23:05:44.366Z</time>
      </trkpt>
      <trkpt lat="45.434559" lon="5.759215">
        <ele>390.341214</ele>
        <time>2017-06-12T23:05:51.506Z</time>
      </trkpt>
      <trkpt lat="45.434476" lon="5.758883">
        <ele>390.055908</ele>
        <time>2017-06-12T23:05:56.211Z</time>
      </trkpt>
      <trkpt lat="45.434305" lon="5.758545">
        <ele>389.790346</ele>
        <time>2017-06-12T23:06:02.004Z</time>
      </trkpt>
      <trkpt lat="45.434277" lon="5.758493">
        <ele>389.748573</ele>
        <time>2017-06-12T23:06:02.848Z</time>
      </trkpt>
      <trkpt lat="45.434198" lon="5.758374">
        <ele>389.644171</ele>
        <time>2017-06-12T23:06:05.059Z</time>
      </trkpt>
      <trkpt lat="45.434098" lon="5.758113">
        <ele>389.454650</ele>
        <time>2017-06-12T23:06:09.177Z</time>
      </trkpt>
      <trkpt lat="45.434065" lon="5.757739">
        <ele>389.214415</ele>
        <time>2017-06-12T23:06:14.353Z</time>
      </trkpt>
      <trkpt lat="45.433895" lon="5.757131">
        <ele>388.797294</ele>
        <time>2017-06-12T23:06:23.408Z</time>
      </trkpt>
      <trkpt lat="45.433745" lon="5.756704">
        <ele>388.542049</ele>
        <time>2017-06-12T23:06:30.166Z</time>
      </trkpt>
      <trkpt lat="45.433573" lon="5.756204">
        <ele>388.414321</ele>
        <time>2017-06-12T23:06:38.000Z</time>
      </trkpt>
      <trkpt lat="45.433561" lon="5.756113">
        <ele>388.393082</ele>
        <time>2017-06-12T23:06:39.360Z</time>
      </trkpt>
      <trkpt lat="45.433667" lon="5.755808">
        <ele>388.315012</ele>
        <time>2017-06-12T23:06:44.557Z</time>
      </trkpt>
      <trkpt lat="45.433690" lon="5.755719">
        <ele>388.293257</ele>
        <time>2017-06-12T23:06:45.871Z</time>
      </trkpt>
      <trkpt lat="45.433686" lon="5.755614">
        <ele>388.269137</ele>
        <time>2017-06-12T23:06:47.468Z</time>
      </trkpt>
      <trkpt lat="45.433637" lon="5.755451">
        <ele>388.228462</ele>
        <time>2017-06-12T23:06:50.326Z</time>
      </trkpt>
      <trkpt lat="45.433611" lon="5.755406">
        <ele>388.215091</ele>
        <time>2017-06-12T23:06:51.210Z</time>
      </trkpt>
      <trkpt lat="45.433595" lon="5.755377">
        <ele>388.206629</ele>
        <time>2017-06-12T23:06:51.780Z</time>
      </trkpt>
      <trkpt lat="45.433538" lon="5.755268">
        <ele>388.175449</ele>
        <time>2017-06-12T23:06:53.712Z</time>
      </trkpt>
      <trkpt lat="45.433394" lon="5.754751">
        <ele>388.047860</ele>
        <time>2017-06-12T23:07:02.106Z</time>
      </trkpt>
      <trkpt lat="45.433300" lon="5.754412">
        <ele>387.997815</ele>
        <time>2017-06-12T23:07:07.831Z</time>
      </trkpt>
      <trkpt lat="45.433229" lon="5.754158">
        <ele>388.055578</ele>
        <time>2017-06-12T23:07:11.914Z</time>
      </trkpt>
      <trkpt lat="45.433211" lon="5.754096">
        <ele>388.069753</ele>
        <time>2017-06-12T23:07:13.051Z</time>
      </trkpt>
      <trkpt lat="45.433089" lon="5.753814">
        <ele>388.139744</ele>
        <time>2017-06-12T23:07:18.243Z</time>
      </trkpt>
      <trkpt lat="45.432970" lon="5.753538">
        <ele>388.208181</ele>
        <time>2017-06-12T23:07:23.595Z</time>
      </trkpt>
      <trkpt lat="45.432906" lon="5.753223">
        <ele>388.277464</ele>
        <time>2017-06-12T23:07:29.269Z</time>
      </trkpt>
      <trkpt lat="45.432910" lon="5.753166">
        <ele>388.289567</ele>
        <time>2017-06-12T23:07:30.270Z</time>
      </trkpt>
      <trkpt lat="45.432960" lon="5.752827">
        <ele>388.362753</ele>
        <time>2017-06-12T23:07:36.329Z</time>
      </trkpt>
      <trkpt lat="45.432937" lon="5.752538">
        <ele>388.424201</ele>
        <time>2017-06-12T23:07:41.501Z</time>
      </trkpt>
      <trkpt lat="45.432923" lon="5.752380">
        <ele>388.457847</ele>
        <time>2017-06-12T23:07:44.223Z</time>
      </trkpt>
      <trkpt lat="45.432941" lon="5.752199">
        <ele>388.496469</ele>
        <time>2017-06-12T23:07:47.585Z</time>
      </trkpt>
      <trkpt lat="45.432926" lon="5.752071">
        <ele>388.521986</ele>
        <time>2017-06-12T23:07:49.782Z</time>
      </trkpt>
      <trkpt lat="45.432769" lon="5.751950">
        <ele>388.419872</ele>
        <time>2017-06-12T23:07:53.704Z</time>
      </trkpt>
      <trkpt lat="45.432558" lon="5.751616">
        <ele>388.239452</ele>
        <time>2017-06-12T23:08:00.649Z</time>
      </trkpt>
      <trkpt lat="45.432469" lon="5.751532">
        <ele>388.178380</ele>
        <time>2017-06-12T23:08:03.166Z</time>
      </trkpt>
      <trkpt lat="45.432298" lon="5.751351">
        <ele>388.056517</ele>
        <time>2017-06-12T23:08:07.605Z</time>
      </trkpt>
      <trkpt lat="45.432103" lon="5.751233">
        <ele>387.935316</ele>
        <time>2017-06-12T23:08:12.073Z</time>
      </trkpt>
      <trkpt lat="45.431661" lon="5.750984">
        <ele>387.663407</ele>
        <time>2017-06-12T23:08:21.594Z</time>
      </trkpt>
      <trkpt lat="45.431595" lon="5.750934">
        <ele>387.620644</ele>
        <time>2017-06-12T23:08:22.904Z</time>
      </trkpt>
      <trkpt lat="45.431469" lon="5.750789">
        <ele>387.527989</ele>
        <time>2017-06-12T23:08:26.090Z</time>
      </trkpt>
      <trkpt lat="45.431341" lon="5.750514">
        <ele>387.073609</ele>
        <time>2017-06-12T23:08:30.180Z</time>
      </trkpt>
      <trkpt lat="45.430905" lon="5.749429">
        <ele>384.935036</ele>
        <time>2017-06-12T23:08:44.937Z</time>
      </trkpt>
      <trkpt lat="45.430797" lon="5.749181">
        <ele>384.435801</ele>
        <time>2017-06-12T23:08:48.205Z</time>
      </trkpt>
      <trkpt lat="45.430561" lon="5.748635">
        <ele>383.338951</ele>
        <time>2017-06-12T23:08:55.662Z</time>
      </trkpt>
      <trkpt lat="45.430287" lon="5.748010">
        <ele>383.031728</ele>
        <time>2017-06-12T23:09:04.707Z</time>
      </trkpt>
      <trkpt lat="45.430123" lon="5.747662">
        <ele>382.977142</ele>
        <time>2017-06-12T23:09:10.814Z</time>
      </trkpt>
      <trkpt lat="45.430088" lon="5.747580">
        <ele>382.964644</ele>
        <time>2017-06-12T23:09:12.215Z</time>
      </trkpt>
      <trkpt lat="45.429997" lon="5.747323">
        <ele>382.927158</ele>
        <time>2017-06-12T23:09:16.744Z</time>
      </trkpt>
      <trkpt lat="45.429864" lon="5.746947">
        <ele>382.872327</ele>
        <time>2017-06-12T23:09:23.917Z</time>
      </trkpt>
      <trkpt lat="45.429747" lon="5.746596">
        <ele>382.821725</ele>
        <time>2017-06-12T23:09:30.953Z</time>
      </trkpt>
      <trkpt lat="45.429660" lon="5.746251">
        <ele>382.805755</ele>
        <time>2017-06-12T23:09:37.900Z</time>
      </trkpt>
      <trkpt lat="45.429638" lon="5.746216">
        <ele>382.876062</ele>
        <time>2017-06-12T23:09:38.888Z</time>
      </trkpt>
      <trkpt lat="45.429551" lon="5.746104">
        <ele>383.126053</ele>
        <time>2017-06-12T23:09:42.803Z</time>
      </trkpt>
      <trkpt lat="45.429409" lon="5.746085">
        <ele>383.430152</ele>
        <time>2017-06-12T23:09:46.828Z</time>
      </trkpt>
      <trkpt lat="45.429355" lon="5.746103">
        <ele>383.548397</ele>
        <time>2017-06-12T23:09:48.584Z</time>
      </trkpt>
      <trkpt lat="45.429252" lon="5.746138">
        <ele>383.774168</ele>
        <time>2017-06-12T23:09:52.120Z</time>
      </trkpt>
      <trkpt lat="45.428809" lon="5.746361">
        <ele>384.775926</ele>
        <time>2017-06-12T23:10:07.685Z</time>
      </trkpt>
      <trkpt lat="45.428568" lon="5.746435">
        <ele>385.301573</ele>
        <time>2017-06-12T23:10:16.117Z</time>
      </trkpt>
      <trkpt lat="45.426509" lon="5.746452">
        <ele>389.127614</ele>
        <time>2017-06-12T23:11:16.799Z</time>
      </trkpt>
      <trkpt lat="45.425182" lon="5.746050">
        <ele>391.220169</ele>
        <time>2017-06-12T23:11:54.944Z</time>
      </trkpt>
      <trkpt lat="45.424387" lon="5.745665">
        <ele>392.427554</ele>
        <time>2017-06-12T23:12:18.763Z</time>
      </trkpt>
      <trkpt lat="45.423857" lon="5.744942">
        <ele>393.026010</ele>
        <time>2017-06-12T23:12:38.522Z</time>
      </trkpt>
      <trkpt lat="45.423524" lon="5.744550">
        <ele>393.378317</ele>
        <time>2017-06-12T23:12:49.449Z</time>
      </trkpt>
      <trkpt lat="45.423452" lon="5.744466">
        <ele>393.454216</ele>
        <time>2017-06-12T23:12:51.651Z</time>
      </trkpt>
      <trkpt lat="45.422387" lon="5.743906">
        <ele>393.841060</ele>
        <time>2017-06-12T23:13:18.082Z</time>
      </trkpt>
      <trkpt lat="45.422267" lon="5.743833">
        <ele>393.837416</ele>
        <time>2017-06-12T23:13:20.881Z</time>
      </trkpt>
      <trkpt lat="45.420966" lon="5.743039">
        <ele>393.696792</ele>
        <time>2017-06-12T23:13:51.222Z</time>
      </trkpt>
      <trkpt lat="45.420713" lon="5.742808">
        <ele>393.609739</ele>
        <time>2017-06-12T23:13:57.814Z</time>
      </trkpt>
      <trkpt lat="45.420472" lon="5.742555">
        <ele>393.523016</ele>
        <time>2017-06-12T23:14:04.312Z</time>
      </trkpt>
      <trkpt lat="45.419398" lon="5.741838">
        <ele>393.003149</ele>
        <time>2017-06-12T23:14:29.042Z</time>
      </trkpt>
      <trkpt lat="45.418231" lon="5.741223">
        <ele>392.055437</ele>
        <time>2017-06-12T23:14:53.363Z</time>
      </trkpt>
      <trkpt lat="45.417928" lon="5.741218">
        <ele>391.832858</ele>
        <time>2017-06-12T23:14:59.270Z</time>
      </trkpt>
      <trkpt lat="45.417618" lon="5.741016">
        <ele>391.596155</ele>
        <time>2017-06-12T23:15:05.945Z</time>
      </trkpt>
      <trkpt lat="45.417436" lon="5.740819">
        <ele>391.437440</ele>
        <time>2017-06-12T23:15:10.473Z</time>
      </trkpt>
      <trkpt lat="45.416679" lon="5.740293">
        <ele>390.852610</ele>
        <time>2017-06-12T23:15:27.341Z</time>
      </trkpt>
      <trkpt lat="45.415990" lon="5.739916">
        <ele>390.546326</ele>
        <time>2017-06-12T23:15:42.701Z</time>
      </trkpt>
      <trkpt lat="45.415466" lon="5.739737">
        <ele>390.406946</ele>
        <time>2017-06-12T23:15:54.203Z</time>
      </trkpt>
      <trkpt lat="45.414125" lon="5.738422">
        <ele>390.203909</ele>
        <time>2017-06-12T23:16:29.609Z</time>
      </trkpt>
      <trkpt lat="45.413940" lon="5.737920">
        <ele>390.204099</ele>
        <time>2017-06-12T23:16:38.497Z</time>
      </trkpt>
      <trkpt lat="45.413805" lon="5.737798">
        <ele>390.204175</ele>
        <time>2017-06-12T23:16:42.079Z</time>
      </trkpt>
      <trkpt lat="45.413740" lon="5.737834">
        <ele>390.204208</ele>
        <time>2017-06-12T23:16:43.656Z</time>
      </trkpt>
      <trkpt lat="45.413645" lon="5.737887">
        <ele>390.204257</ele>
        <time>2017-06-12T23:16:45.982Z</time>
      </trkpt>
      <trkpt lat="45.413559" lon="5.738093">
        <ele>390.204337</ele>
        <time>2017-06-12T23:16:49.829Z</time>
      </trkpt>
      <trkpt lat="45.413429" lon="5.738237">
        <ele>390.249581</ele>
        <time>2017-06-12T23:16:53.654Z</time>
      </trkpt>
      <trkpt lat="45.413349" lon="5.738266">
        <ele>390.284990</ele>
        <time>2017-06-12T23:16:55.559Z</time>
      </trkpt>
      <trkpt lat="45.413246" lon="5.738245">
        <ele>390.329623</ele>
        <time>2017-06-12T23:16:57.986Z</time>
      </trkpt>
      <trkpt lat="45.412908" lon="5.737920">
        <ele>390.504546</ele>
        <time>2017-06-12T23:17:07.636Z</time>
      </trkpt>
      <trkpt lat="45.412739" lon="5.737622">
        <ele>390.619904</ele>
        <time>2017-06-12T23:17:14.085Z</time>
      </trkpt>
      <trkpt lat="45.412593" lon="5.737539">
        <ele>390.687334</ele>
        <time>2017-06-12T23:17:17.874Z</time>
      </trkpt>
      <trkpt lat="45.412029" lon="5.737503">
        <ele>390.929506</ele>
        <time>2017-06-12T23:17:31.686Z</time>
      </trkpt>
      <trkpt lat="45.411750" lon="5.737425">
        <ele>391.093591</ele>
        <time>2017-06-12T23:17:38.779Z</time>
      </trkpt>
      <trkpt lat="45.407576" lon="5.734674">
        <ele>394.125056</ele>
        <time>2017-06-12T23:19:33.465Z</time>
      </trkpt>
      <trkpt lat="45.407029" lon="5.733965">
        <ele>394.579542</ele>
        <time>2017-06-12T23:19:51.625Z</time>
      </trkpt>
      <trkpt lat="45.406920" lon="5.733595">
        <ele>394.725195</ele>
        <time>2017-06-12T23:19:58.499Z</time>
      </trkpt>
      <trkpt lat="45.406829" lon="5.733423">
        <ele>394.803374</ele>
        <time>2017-06-12T23:20:02.187Z</time>
      </trkpt>
      <trkpt lat="45.406318" lon="5.732855">
        <ele>395.138510</ele>
        <time>2017-06-12T23:20:17.928Z</time>
      </trkpt>
      <trkpt lat="45.405264" lon="5.731131">
        <ele>395.920302</ele>
        <time>2017-06-12T23:20:56.842Z</time>
      </trkpt>
      <trkpt lat="45.404641" lon="5.730273">
        <ele>396.320807</ele>
        <time>2017-06-12T23:21:17.689Z</time>
      </trkpt>
      <trkpt lat="45.404224" lon="5.729560">
        <ele>396.572283</ele>
        <time>2017-06-12T23:21:33.252Z</time>
      </trkpt>
      <trkpt lat="45.403991" lon="5.729328">
        <ele>396.682014</ele>
        <time>2017-06-12T23:21:40.005Z</time>
      </trkpt>
      <trkpt lat="45.403607" lon="5.729184">
        <ele>396.835282</ele>
        <time>2017-06-12T23:21:49.426Z</time>
      </trkpt>
      <trkpt lat="45.403479" lon="5.729057">
        <ele>396.895494</ele>
        <time>2017-06-12T23:21:53.146Z</time>
      </trkpt>
      <trkpt lat="45.403462" lon="5.728979">
        <ele>396.917627</ele>
        <time>2017-06-12T23:21:54.480Z</time>
      </trkpt>
      <trkpt lat="45.403475" lon="5.728758">
        <ele>396.977728</ele>
        <time>2017-06-12T23:21:58.158Z</time>
      </trkpt>
      <trkpt lat="45.403459" lon="5.728514">
        <ele>397.043269</ele>
        <time>2017-06-12T23:22:02.235Z</time>
      </trkpt>
      <trkpt lat="45.403259" lon="5.728067">
        <ele>397.184749</ele>
        <time>2017-06-12T23:22:11.025Z</time>
      </trkpt>
      <trkpt lat="45.402998" lon="5.727616">
        <ele>397.340752</ele>
        <time>2017-06-12T23:22:20.743Z</time>
      </trkpt>
      <trkpt lat="45.402892" lon="5.727236">
        <ele>397.449894</ele>
        <time>2017-06-12T23:22:27.613Z</time>
      </trkpt>
      <trkpt lat="45.402871" lon="5.726834">
        <ele>397.557493</ele>
        <time>2017-06-12T23:22:34.353Z</time>
      </trkpt>
      <trkpt lat="45.402787" lon="5.726369">
        <ele>397.687404</ele>
        <time>2017-06-12T23:22:42.455Z</time>
      </trkpt>
      <trkpt lat="45.402642" lon="5.726154">
        <ele>397.775950</ele>
        <time>2017-06-12T23:22:47.484Z</time>
      </trkpt>
      <trkpt lat="45.402244" lon="5.725901">
        <ele>397.960325</ele>
        <time>2017-06-12T23:22:57.938Z</time>
      </trkpt>
      <trkpt lat="45.401978" lon="5.725671">
        <ele>398.091965</ele>
        <time>2017-06-12T23:23:05.389Z</time>
      </trkpt>
      <trkpt lat="45.401657" lon="5.725270">
        <ele>398.272592</ele>
        <time>2017-06-12T23:23:15.638Z</time>
      </trkpt>
      <trkpt lat="45.401374" lon="5.724746">
        <ele>398.454448</ele>
        <time>2017-06-12T23:23:26.804Z</time>
      </trkpt>
      <trkpt lat="45.401329" lon="5.724620">
        <ele>398.480387</ele>
        <time>2017-06-12T23:23:29.159Z</time>
      </trkpt>
      <trkpt lat="45.401239" lon="5.724058">
        <ele>398.586159</ele>
        <time>2017-06-12T23:23:38.752Z</time>
      </trkpt>
      <trkpt lat="45.400984" lon="5.723519">
        <ele>398.705418</ele>
        <time>2017-06-12T23:23:49.378Z</time>
      </trkpt>
      <trkpt lat="45.400913" lon="5.723321">
        <ele>398.746214</ele>
        <time>2017-06-12T23:23:53.020Z</time>
      </trkpt>
      <trkpt lat="45.400861" lon="5.723222">
        <ele>398.768900</ele>
        <time>2017-06-12T23:23:55.015Z</time>
      </trkpt>
      <trkpt lat="45.400838" lon="5.723178">
        <ele>398.778966</ele>
        <time>2017-06-12T23:23:55.895Z</time>
      </trkpt>
      <trkpt lat="45.400745" lon="5.723078">
        <ele>398.809419</ele>
        <time>2017-06-12T23:23:58.560Z</time>
      </trkpt>
      <trkpt lat="45.400722" lon="5.723058">
        <ele>398.816461</ele>
        <time>2017-06-12T23:23:59.192Z</time>
      </trkpt>
      <trkpt lat="45.400691" lon="5.723032">
        <ele>398.825863</ele>
        <time>2017-06-12T23:24:00.020Z</time>
      </trkpt>
      <trkpt lat="45.400637" lon="5.722974">
        <ele>398.843538</ele>
        <time>2017-06-12T23:24:01.636Z</time>
      </trkpt>
      <trkpt lat="45.400137" lon="5.722359">
        <ele>398.924898</ele>
        <time>2017-06-12T23:24:17.274Z</time>
      </trkpt>
      <trkpt lat="45.399398" lon="5.721774">
        <ele>398.970649</ele>
        <time>2017-06-12T23:24:36.981Z</time>
      </trkpt>
      <trkpt lat="45.399076" lon="5.721544">
        <ele>398.990142</ele>
        <time>2017-06-12T23:24:45.335Z</time>
      </trkpt>
      <trkpt lat="45.399051" lon="5.721528">
        <ele>398.991625</ele>
        <time>2017-06-12T23:24:45.971Z</time>
      </trkpt>
      <trkpt lat="45.398704" lon="5.721381">
        <ele>399.002699</ele>
        <time>2017-06-12T23:24:54.354Z</time>
      </trkpt>
      <trkpt lat="45.398639" lon="5.721331">
        <ele>399.004043</ele>
        <time>2017-06-12T23:24:56.064Z</time>
      </trkpt>
      <trkpt lat="45.398521" lon="5.721187">
        <ele>399.006870</ele>
        <time>2017-06-12T23:24:59.660Z</time>
      </trkpt>
      <trkpt lat="45.398432" lon="5.721111">
        <ele>399.008758</ele>
        <time>2017-06-12T23:25:02.066Z</time>
      </trkpt>
      <trkpt lat="45.398083" lon="5.720653">
        <ele>399.017391</ele>
        <time>2017-06-12T23:25:13.069Z</time>
      </trkpt>
      <trkpt lat="45.397776" lon="5.719844">
        <ele>399.029138</ele>
        <time>2017-06-12T23:25:28.130Z</time>
      </trkpt>
      <trkpt lat="45.397519" lon="5.719478">
        <ele>399.065436</ele>
        <time>2017-06-12T23:25:36.632Z</time>
      </trkpt>
      <trkpt lat="45.396997" lon="5.719188">
        <ele>399.140808</ele>
        <time>2017-06-12T23:25:49.831Z</time>
      </trkpt>
      <trkpt lat="45.396468" lon="5.719116">
        <ele>399.212292</ele>
        <time>2017-06-12T23:26:02.461Z</time>
      </trkpt>
      <trkpt lat="45.395638" lon="5.718846">
        <ele>399.365373</ele>
        <time>2017-06-12T23:26:22.906Z</time>
      </trkpt>
      <trkpt lat="45.395295" lon="5.718319">
        <ele>399.481923</ele>
        <time>2017-06-12T23:26:35.121Z</time>
      </trkpt>
      <trkpt lat="45.394716" lon="5.717951">
        <ele>399.628380</ele>
        <time>2017-06-12T23:26:50.472Z</time>
      </trkpt>
      <trkpt lat="45.394400" lon="5.717898">
        <ele>399.696865</ele>
        <time>2017-06-12T23:26:58.141Z</time>
      </trkpt>
      <trkpt lat="45.393267" lon="5.716818">
        <ele>399.893672</ele>
        <time>2017-06-12T23:27:30.591Z</time>
      </trkpt>
      <trkpt lat="45.392872" lon="5.716607">
        <ele>399.949395</ele>
        <time>2017-06-12T23:27:40.484Z</time>
      </trkpt>
      <trkpt lat="45.392398" lon="5.716528">
        <ele>399.962752</ele>
        <time>2017-06-12T23:27:51.635Z</time>
      </trkpt>
      <trkpt lat="45.391370" lon="5.716107">
        <ele>399.992692</ele>
        <time>2017-06-12T23:28:16.441Z</time>
      </trkpt>
      <trkpt lat="45.390949" lon="5.716028">
        <ele>400.003935</ele>
        <time>2017-06-12T23:28:26.286Z</time>
      </trkpt>
      <trkpt lat="45.390317" lon="5.715949">
        <ele>400.019817</ele>
        <time>2017-06-12T23:28:40.986Z</time>
      </trkpt>
      <trkpt lat="45.389843" lon="5.715870">
        <ele>400.031764</ele>
        <time>2017-06-12T23:28:52.072Z</time>
      </trkpt>
      <trkpt lat="45.389113" lon="5.715616">
        <ele>400.102067</ele>
        <time>2017-06-12T23:29:09.644Z</time>
      </trkpt>
      <trkpt lat="45.388799" lon="5.715556">
        <ele>400.167873</ele>
        <time>2017-06-12T23:29:17.086Z</time>
      </trkpt>
      <trkpt lat="45.388462" lon="5.715676">
        <ele>400.240026</ele>
        <time>2017-06-12T23:29:25.312Z</time>
      </trkpt>
      <trkpt lat="45.387038" lon="5.716424">
        <ele>400.626041</ele>
        <time>2017-06-12T23:30:02.533Z</time>
      </trkpt>
      <trkpt lat="45.386945" lon="5.716471">
        <ele>400.657034</ele>
        <time>2017-06-12T23:30:05.026Z</time>
      </trkpt>
      <trkpt lat="45.386613" lon="5.716643">
        <ele>400.767991</ele>
        <time>2017-06-12T23:30:13.589Z</time>
      </trkpt>
      <trkpt lat="45.386569" lon="5.716665">
        <ele>400.782638</ele>
        <time>2017-06-12T23:30:14.755Z</time>
      </trkpt>
      <trkpt lat="45.386176" lon="5.715874">
        <ele>400.994234</ele>
        <time>2017-06-12T23:30:30.678Z</time>
      </trkpt>
      <trkpt lat="45.386158" lon="5.715837">
        <ele>401.002693</ele>
        <time>2017-06-12T23:30:31.412Z</time>
      </trkpt>
      <trkpt lat="45.383497" lon="5.710456">
        <ele>402.667669</ele>
        <time>2017-06-12T23:32:19.304Z</time>
      </trkpt>
      <trkpt lat="45.383042" lon="5.709544">
        <ele>403.283705</ele>
        <time>2017-06-12T23:32:39.981Z</time>
      </trkpt>
      <trkpt lat="45.382506" lon="5.708466">
        <ele>404.938511</ele>
        <time>2017-06-12T23:33:07.962Z</time>
      </trkpt>
      <trkpt lat="45.382303" lon="5.708083">
        <ele>405.539675</ele>
        <time>2017-06-12T23:33:18.252Z</time>
      </trkpt>
      <trkpt lat="45.382196" lon="5.707920">
        <ele>405.819208</ele>
        <time>2017-06-12T23:33:22.661Z</time>
      </trkpt>
      <trkpt lat="45.382085" lon="5.707771">
        <ele>406.091342</ele>
        <time>2017-06-12T23:33:27.713Z</time>
      </trkpt>
      <trkpt lat="45.381299" lon="5.706955">
        <ele>407.331146</ele>
        <time>2017-06-12T23:33:55.621Z</time>
      </trkpt>
      <trkpt lat="45.381186" lon="5.706772">
        <ele>407.535164</ele>
        <time>2017-06-12T23:34:00.493Z</time>
      </trkpt>
      <trkpt lat="45.379761" lon="5.703698">
        <ele>409.602673</ele>
        <time>2017-06-12T23:35:04.033Z</time>
      </trkpt>
      <trkpt lat="45.379569" lon="5.703117">
        <ele>409.998691</ele>
        <time>2017-06-12T23:35:15.914Z</time>
      </trkpt>
      <trkpt lat="45.379480" lon="5.702712">
        <ele>410.260731</ele>
        <time>2017-06-12T23:35:23.667Z</time>
      </trkpt>
      <trkpt lat="45.379440" lon="5.702517">
        <ele>410.386173</ele>
        <time>2017-06-12T23:35:27.696Z</time>
      </trkpt>
      <trkpt lat="45.379258" lon="5.701853">
        <ele>410.826305</ele>
        <time>2017-06-12T23:35:40.566Z</time>
      </trkpt>
      <trkpt lat="45.379058" lon="5.701405">
        <ele>411.154091</ele>
        <time>2017-06-12T23:35:50.235Z</time>
      </trkpt>
      <trkpt lat="45.378979" lon="5.701247">
        <ele>411.220526</ele>
        <time>2017-06-12T23:35:54.019Z</time>
      </trkpt>
      <trkpt lat="45.378932" lon="5.701161">
        <ele>411.247405</ele>
        <time>2017-06-12T23:35:56.019Z</time>
      </trkpt>
      <trkpt lat="45.377596" lon="5.698857">
        <ele>412.001584</ele>
        <time>2017-06-12T23:36:44.556Z</time>
      </trkpt>
      <trkpt lat="45.377381" lon="5.698520">
        <ele>412.125396</ele>
        <time>2017-06-12T23:36:51.670Z</time>
      </trkpt>
      <trkpt lat="45.377194" lon="5.698303">
        <ele>412.218804</ele>
        <time>2017-06-12T23:36:57.367Z</time>
      </trkpt>
      <trkpt lat="45.376826" lon="5.697981">
        <ele>412.386046</ele>
        <time>2017-06-12T23:37:07.579Z</time>
      </trkpt>
      <trkpt lat="45.376049" lon="5.697556">
        <ele>413.118292</ele>
        <time>2017-06-12T23:37:28.855Z</time>
      </trkpt>
      <trkpt lat="45.375993" lon="5.697525">
        <ele>413.190410</ele>
        <time>2017-06-12T23:37:30.705Z</time>
      </trkpt>
      <trkpt lat="45.375837" lon="5.697445">
        <ele>413.389429</ele>
        <time>2017-06-12T23:37:35.484Z</time>
      </trkpt>
      <trkpt lat="45.375789" lon="5.697417">
        <ele>413.451691</ele>
        <time>2017-06-12T23:37:36.817Z</time>
      </trkpt>
      <trkpt lat="45.375596" lon="5.697321">
        <ele>413.697075</ele>
        <time>2017-06-12T23:37:42.611Z</time>
      </trkpt>
      <trkpt lat="45.375473" lon="5.697258">
        <ele>413.853973</ele>
        <time>2017-06-12T23:37:46.102Z</time>
      </trkpt>
      <trkpt lat="45.375352" lon="5.697194">
        <ele>414.008905</ele>
        <time>2017-06-12T23:37:49.469Z</time>
      </trkpt>
      <trkpt lat="45.375216" lon="5.697122">
        <ele>414.183063</ele>
        <time>2017-06-12T23:37:53.937Z</time>
      </trkpt>
      <trkpt lat="45.374957" lon="5.697022">
        <ele>414.505162</ele>
        <time>2017-06-12T23:38:01.127Z</time>
      </trkpt>
      <trkpt lat="45.374854" lon="5.697000">
        <ele>414.630173</ele>
        <time>2017-06-12T23:38:04.257Z</time>
      </trkpt>
      <trkpt lat="45.374660" lon="5.696957">
        <ele>414.794314</ele>
        <time>2017-06-12T23:38:09.255Z</time>
      </trkpt>
      <trkpt lat="45.374603" lon="5.696941">
        <ele>414.838324</ele>
        <time>2017-06-12T23:38:11.042Z</time>
      </trkpt>
      <trkpt lat="45.374571" lon="5.696932">
        <ele>414.863034</ele>
        <time>2017-06-12T23:38:12.135Z</time>
      </trkpt>
      <trkpt lat="45.374200" lon="5.696805">
        <ele>415.152089</ele>
        <time>2017-06-12T23:38:22.361Z</time>
      </trkpt>
      <trkpt lat="45.374037" lon="5.696700">
        <ele>415.287620</ele>
        <time>2017-06-12T23:38:26.752Z</time>
      </trkpt>
      <trkpt lat="45.373883" lon="5.696581">
        <ele>415.420359</ele>
        <time>2017-06-12T23:38:31.527Z</time>
      </trkpt>
      <trkpt lat="45.373676" lon="5.696378">
        <ele>415.610775</ele>
        <time>2017-06-12T23:38:37.479Z</time>
      </trkpt>
      <trkpt lat="45.373462" lon="5.696070">
        <ele>415.841305</ele>
        <time>2017-06-12T23:38:44.877Z</time>
      </trkpt>
      <trkpt lat="45.373326" lon="5.695832">
        <ele>416.004568</ele>
        <time>2017-06-12T23:38:50.042Z</time>
      </trkpt>
      <trkpt lat="45.372936" lon="5.695122">
        <ele>415.808213</ele>
        <time>2017-06-12T23:39:03.861Z</time>
      </trkpt>
      <trkpt lat="45.372562" lon="5.694470">
        <ele>415.582846</ele>
        <time>2017-06-12T23:39:16.063Z</time>
      </trkpt>
      <trkpt lat="45.372449" lon="5.694266">
        <ele>415.513290</ele>
        <time>2017-06-12T23:39:19.755Z</time>
      </trkpt>
      <trkpt lat="45.372310" lon="5.693984">
        <ele>415.421057</ele>
        <time>2017-06-12T23:39:24.567Z</time>
      </trkpt>
      <trkpt lat="45.372212" lon="5.693743">
        <ele>415.343303</ele>
        <time>2017-06-12T23:39:28.538Z</time>
      </trkpt>
      <trkpt lat="45.372020" lon="5.693241">
        <ele>414.991733</ele>
        <time>2017-06-12T23:39:36.516Z</time>
      </trkpt>
      <trkpt lat="45.371950" lon="5.693043">
        <ele>414.855393</ele>
        <time>2017-06-12T23:39:39.505Z</time>
      </trkpt>
      <trkpt lat="45.371740" lon="5.692077">
        <ele>414.233417</ele>
        <time>2017-06-12T23:39:53.179Z</time>
      </trkpt>
      <trkpt lat="45.371719" lon="5.691181">
        <ele>413.790662</ele>
        <time>2017-06-12T23:40:05.365Z</time>
      </trkpt>
      <trkpt lat="45.371619" lon="5.690269">
        <ele>413.892524</ele>
        <time>2017-06-12T23:40:19.166Z</time>
      </trkpt>
      <trkpt lat="45.371570" lon="5.690049">
        <ele>413.917993</ele>
        <time>2017-06-12T23:40:22.726Z</time>
      </trkpt>
      <trkpt lat="45.371496" lon="5.689823">
        <ele>413.945509</ele>
        <time>2017-06-12T23:40:26.972Z</time>
      </trkpt>
      <trkpt lat="45.371379" lon="5.689561">
        <ele>413.979769</ele>
        <time>2017-06-12T23:40:32.050Z</time>
      </trkpt>
      <trkpt lat="45.371058" lon="5.688909">
        <ele>414.174617</ele>
        <time>2017-06-12T23:40:46.501Z</time>
      </trkpt>
      <trkpt lat="45.370860" lon="5.688547">
        <ele>414.719618</ele>
        <time>2017-06-12T23:40:55.338Z</time>
      </trkpt>
      <trkpt lat="45.370491" lon="5.688043">
        <ele>415.584373</ele>
        <time>2017-06-12T23:41:10.330Z</time>
      </trkpt>
      <trkpt lat="45.369782" lon="5.687333">
        <ele>417.050236</ele>
        <time>2017-06-12T23:41:36.817Z</time>
      </trkpt>
      <trkpt lat="45.369228" lon="5.686889">
        <ele>418.303770</ele>
        <time>2017-06-12T23:41:55.640Z</time>
      </trkpt>
      <trkpt lat="45.367991" lon="5.685909">
        <ele>421.310205</ele>
        <time>2017-06-12T23:42:38.148Z</time>
      </trkpt>
      <trkpt lat="45.367845" lon="5.685809">
        <ele>421.773700</ele>
        <time>2017-06-12T23:42:43.258Z</time>
      </trkpt>
      <trkpt lat="45.367079" lon="5.685460">
        <ele>424.074481</ele>
        <time>2017-06-12T23:43:10.368Z</time>
      </trkpt>
      <trkpt lat="45.366881" lon="5.685275">
        <ele>424.752023</ele>
        <time>2017-06-12T23:43:18.885Z</time>
      </trkpt>
      <trkpt lat="45.366421" lon="5.684776">
        <ele>426.502608</ele>
        <time>2017-06-12T23:43:39.730Z</time>
      </trkpt>
      <trkpt lat="45.366310" lon="5.684667">
        <ele>426.950854</ele>
        <time>2017-06-12T23:43:44.680Z</time>
      </trkpt>
      <trkpt lat="45.365990" lon="5.684317">
        <ele>428.292290</ele>
        <time>2017-06-12T23:43:59.259Z</time>
      </trkpt>
      <trkpt lat="45.365805" lon="5.684120">
        <ele>429.060269</ele>
        <time>2017-06-12T23:44:07.793Z</time>
      </trkpt>
      <trkpt lat="45.364631" lon="5.682870">
        <ele>433.449435</ele>
        <time>2017-06-12T23:44:58.797Z</time>
      </trkpt>
      <trkpt lat="45.364296" lon="5.682516">
        <ele>434.522771</ele>
        <time>2017-06-12T23:45:12.055Z</time>
      </trkpt>
      <trkpt lat="45.364104" lon="5.682313">
        <ele>435.138057</ele>
        <time>2017-06-12T23:45:19.395Z</time>
      </trkpt>
      <trkpt lat="45.364052" lon="5.682250">
        <ele>435.313728</ele>
        <time>2017-06-12T23:45:21.780Z</time>
      </trkpt>
      <trkpt lat="45.363753" lon="5.681946">
        <ele>436.258999</ele>
        <time>2017-06-12T23:45:33.231Z</time>
      </trkpt>
      <trkpt lat="45.363466" lon="5.681638">
        <ele>437.111227</ele>
        <time>2017-06-12T23:45:44.180Z</time>
      </trkpt>
      <trkpt lat="45.363239" lon="5.681168">
        <ele>438.044450</ele>
        <time>2017-06-12T23:45:56.048Z</time>
      </trkpt>
      <trkpt lat="45.363005" lon="5.680568">
        <ele>439.167321</ele>
        <time>2017-06-12T23:46:11.036Z</time>
      </trkpt>
      <trkpt lat="45.362793" lon="5.679843">
        <ele>440.452264</ele>
        <time>2017-06-12T23:46:29.267Z</time>
      </trkpt>
      <trkpt lat="45.362787" lon="5.679553">
        <ele>441.055775</ele>
        <time>2017-06-12T23:46:36.316Z</time>
      </trkpt>
      <trkpt lat="45.362850" lon="5.679230">
        <ele>441.825456</ele>
        <time>2017-06-12T23:46:43.797Z</time>
      </trkpt>
      <trkpt lat="45.362876" lon="5.679140">
        <ele>442.048889</ele>
        <time>2017-06-12T23:46:46.240Z</time>
      </trkpt>
      <trkpt lat="45.362828" lon="5.679111">
        <ele>442.219297</ele>
        <time>2017-06-12T23:46:48.338Z</time>
      </trkpt>
      <trkpt lat="45.362730" lon="5.678901">
        <ele>442.798140</ele>
        <time>2017-06-12T23:46:54.083Z</time>
      </trkpt>
      <trkpt lat="45.362649" lon="5.678770">
        <ele>443.198815</ele>
        <time>2017-06-12T23:46:58.227Z</time>
      </trkpt>
      <trkpt lat="45.362548" lon="5.678667">
        <ele>443.604857</ele>
        <time>2017-06-12T23:47:03.059Z</time>
      </trkpt>
      <trkpt lat="45.361960" lon="5.678356">
        <ele>445.654787</ele>
        <time>2017-06-12T23:47:25.176Z</time>
      </trkpt>
      <trkpt lat="45.361792" lon="5.678231">
        <ele>446.274295</ele>
        <time>2017-06-12T23:47:32.147Z</time>
      </trkpt>
      <trkpt lat="45.361562" lon="5.677975">
        <ele>447.322263</ele>
        <time>2017-06-12T23:47:43.853Z</time>
      </trkpt>
      <trkpt lat="45.360929" lon="5.677080">
        <ele>450.606194</ele>
        <time>2017-06-12T23:48:17.701Z</time>
      </trkpt>
      <trkpt lat="45.360663" lon="5.676887">
        <ele>451.705066</ele>
        <time>2017-06-12T23:48:28.647Z</time>
      </trkpt>
      <trkpt lat="45.360327" lon="5.676686">
        <ele>453.046485</ele>
        <time>2017-06-12T23:48:41.633Z</time>
      </trkpt>
      <trkpt lat="45.359851" lon="5.676401">
        <ele>454.810604</ele>
        <time>2017-06-12T23:48:59.187Z</time>
      </trkpt>
      <trkpt lat="45.359707" lon="5.676315">
        <ele>455.342770</ele>
        <time>2017-06-12T23:49:04.763Z</time>
      </trkpt>
      <trkpt lat="45.359323" lon="5.676083">
        <ele>456.764361</ele>
        <time>2017-06-12T23:49:19.797Z</time>
      </trkpt>
      <trkpt lat="45.358825" lon="5.675712">
        <ele>458.679851</ele>
        <time>2017-06-12T23:49:40.370Z</time>
      </trkpt>
      <trkpt lat="45.358595" lon="5.675592">
        <ele>459.587158</ele>
        <time>2017-06-12T23:49:49.048Z</time>
      </trkpt>
      <trkpt lat="45.358346" lon="5.675483">
        <ele>460.704681</ele>
        <time>2017-06-12T23:49:58.736Z</time>
      </trkpt>
      <trkpt lat="45.358120" lon="5.675389">
        <ele>461.714708</ele>
        <time>2017-06-12T23:50:07.617Z</time>
      </trkpt>
      <trkpt lat="45.357807" lon="5.675184">
        <ele>463.192749</ele>
        <time>2017-06-12T23:50:20.724Z</time>
      </trkpt>
      <trkpt lat="45.356560" lon="5.674017">
        <ele>469.598658</ele>
        <time>2017-06-12T23:51:23.047Z</time>
      </trkpt>
      <trkpt lat="45.355626" lon="5.673274">
        <ele>474.195103</ele>
        <time>2017-06-12T23:52:04.943Z</time>
      </trkpt>
      <trkpt lat="45.355457" lon="5.673177">
        <ele>474.861253</ele>
        <time>2017-06-12T23:52:11.415Z</time>
      </trkpt>
      <trkpt lat="45.355379" lon="5.673116">
        <ele>475.095666</ele>
        <time>2017-06-12T23:52:14.466Z</time>
      </trkpt>
      <trkpt lat="45.355361" lon="5.673099">
        <ele>475.152564</ele>
        <time>2017-06-12T23:52:15.395Z</time>
      </trkpt>
      <trkpt lat="45.355294" lon="5.673047">
        <ele>475.353565</ele>
        <time>2017-06-12T23:52:18.289Z</time>
      </trkpt>
      <trkpt lat="45.355057" lon="5.672866">
        <ele>476.061981</ele>
        <time>2017-06-12T23:52:27.347Z</time>
      </trkpt>
      <trkpt lat="45.354895" lon="5.672754">
        <ele>476.536341</ele>
        <time>2017-06-12T23:52:33.675Z</time>
      </trkpt>
      <trkpt lat="45.354359" lon="5.672386">
        <ele>478.103761</ele>
        <time>2017-06-12T23:52:52.463Z</time>
      </trkpt>
      <trkpt lat="45.353950" lon="5.672251">
        <ele>479.209575</ele>
        <time>2017-06-12T23:53:04.915Z</time>
      </trkpt>
      <trkpt lat="45.353483" lon="5.672132">
        <ele>480.560595</ele>
        <time>2017-06-12T23:53:18.915Z</time>
      </trkpt>
      <trkpt lat="45.353216" lon="5.672154">
        <ele>481.333365</ele>
        <time>2017-06-12T23:53:26.955Z</time>
      </trkpt>
      <trkpt lat="45.352966" lon="5.672123">
        <ele>482.058460</ele>
        <time>2017-06-12T23:53:35.054Z</time>
      </trkpt>
      <trkpt lat="45.352719" lon="5.672068">
        <ele>482.780834</ele>
        <time>2017-06-12T23:53:43.433Z</time>
      </trkpt>
      <trkpt lat="45.352279" lon="5.671887">
        <ele>484.104240</ele>
        <time>2017-06-12T23:53:59.920Z</time>
      </trkpt>
      <trkpt lat="45.351864" lon="5.671584">
        <ele>486.204383</ele>
        <time>2017-06-12T23:54:18.356Z</time>
      </trkpt>
      <trkpt lat="45.351006" lon="5.670806">
        <ele>491.773138</ele>
        <time>2017-06-12T23:55:03.914Z</time>
      </trkpt>
      <trkpt lat="45.350810" lon="5.670618">
        <ele>493.066927</ele>
        <time>2017-06-12T23:55:15.773Z</time>
      </trkpt>
      <trkpt lat="45.350637" lon="5.670382">
        <ele>494.378706</ele>
        <time>2017-06-12T23:55:27.321Z</time>
      </trkpt>
      <trkpt lat="45.350482" lon="5.670051">
        <ele>495.869668</ele>
        <time>2017-06-12T23:55:39.914Z</time>
      </trkpt>
      <trkpt lat="45.350443" lon="5.669967">
        <ele>496.246527</ele>
        <time>2017-06-12T23:55:43.741Z</time>
      </trkpt>
      <trkpt lat="45.350110" lon="5.669324">
        <ele>499.236417</ele>
        <time>2017-06-12T23:56:08.354Z</time>
      </trkpt>
      <trkpt lat="45.350046" lon="5.669236">
        <ele>499.710464</ele>
        <time>2017-06-12T23:56:12.748Z</time>
      </trkpt>
      <trkpt lat="45.349961" lon="5.669120">
        <ele>500.337788</ele>
        <time>2017-06-12T23:56:18.290Z</time>
      </trkpt>
      <trkpt lat="45.349735" lon="5.668916">
        <ele>501.763355</ele>
        <time>2017-06-12T23:56:29.593Z</time>
      </trkpt>
      <trkpt lat="45.348939" lon="5.668469">
        <ele>505.635833</ele>
        <time>2017-06-12T23:57:02.754Z</time>
      </trkpt>
      <trkpt lat="45.348779" lon="5.668405">
        <ele>506.255514</ele>
        <time>2017-06-12T23:57:09.202Z</time>
      </trkpt>
      <trkpt lat="45.348771" lon="5.668402">
        <ele>506.286360</ele>
        <time>2017-06-12T23:57:09.659Z</time>
      </trkpt>
      <trkpt lat="45.347643" lon="5.668230">
        <ele>510.516171</ele>
        <time>2017-06-12T23:57:50.461Z</time>
      </trkpt>
      <trkpt lat="45.346517" lon="5.667734">
        <ele>514.853266</ele>
        <time>2017-06-12T23:58:32.871Z</time>
      </trkpt>
      <trkpt lat="45.345693" lon="5.667658">
        <ele>518.033452</ele>
        <time>2017-06-12T23:59:04.250Z</time>
      </trkpt>
      <trkpt lat="45.345409" lon="5.667576">
        <ele>519.386669</ele>
        <time>2017-06-12T23:59:15.582Z</time>
      </trkpt>
      <trkpt lat="45.343205" lon="5.666237">
        <ele>531.116934</ele>
        <time>2017-06-13T00:00:56.028Z</time>
      </trkpt>
      <trkpt lat="45.343003" lon="5.666012">
        <ele>532.448855</ele>
        <time>2017-06-13T00:01:07.426Z</time>
      </trkpt>
      <trkpt lat="45.342821" lon="5.665732">
        <ele>533.840567</ele>
        <time>2017-06-13T00:01:19.363Z</time>
      </trkpt>
      <trkpt lat="45.342678" lon="5.665595">
        <ele>534.735632</ele>
        <time>2017-06-13T00:01:26.963Z</time>
      </trkpt>
      <trkpt lat="45.341933" lon="5.664985">
        <ele>539.550952</ele>
        <time>2017-06-13T00:02:05.476Z</time>
      </trkpt>
      <trkpt lat="45.341431" lon="5.664644">
        <ele>542.687132</ele>
        <time>2017-06-13T00:02:30.309Z</time>
      </trkpt>
      <trkpt lat="45.340947" lon="5.664119">
        <ele>546.069128</ele>
        <time>2017-06-13T00:02:57.648Z</time>
      </trkpt>
      <trkpt lat="45.340260" lon="5.663699">
        <ele>550.049996</ele>
        <time>2017-06-13T00:03:32.019Z</time>
      </trkpt>
      <trkpt lat="45.339881" lon="5.663312">
        <ele>552.533650</ele>
        <time>2017-06-13T00:03:52.441Z</time>
      </trkpt>
      <trkpt lat="45.339399" lon="5.662825">
        <ele>555.394014</ele>
        <time>2017-06-13T00:04:16.393Z</time>
      </trkpt>
      <trkpt lat="45.339288" lon="5.662730">
        <ele>555.856692</ele>
        <time>2017-06-13T00:04:21.448Z</time>
      </trkpt>
      <trkpt lat="45.339124" lon="5.662577">
        <ele>556.557176</ele>
        <time>2017-06-13T00:04:28.703Z</time>
      </trkpt>
      <trkpt lat="45.339062" lon="5.662517">
        <ele>556.825003</ele>
        <time>2017-06-13T00:04:31.739Z</time>
      </trkpt>
      <trkpt lat="45.338872" lon="5.662283">
        <ele>557.722604</ele>
        <time>2017-06-13T00:04:40.762Z</time>
      </trkpt>
      <trkpt lat="45.338456" lon="5.661939">
        <ele>559.441229</ele>
        <time>2017-06-13T00:04:58.312Z</time>
      </trkpt>
      <trkpt lat="45.338268" lon="5.661851">
        <ele>560.148134</ele>
        <time>2017-06-13T00:05:04.954Z</time>
      </trkpt>
      <trkpt lat="45.337672" lon="5.661684">
        <ele>562.324870</ele>
        <time>2017-06-13T00:05:24.700Z</time>
      </trkpt>
      <trkpt lat="45.337541" lon="5.661571">
        <ele>562.875629</ele>
        <time>2017-06-13T00:05:29.794Z</time>
      </trkpt>
      <trkpt lat="45.336739" lon="5.660226">
        <ele>567.332710</ele>
        <time>2017-06-13T00:06:15.653Z</time>
      </trkpt>
      <trkpt lat="45.336283" lon="5.659781">
        <ele>569.824305</ele>
        <time>2017-06-13T00:06:38.895Z</time>
      </trkpt>
      <trkpt lat="45.334868" lon="5.659254">
        <ele>576.707898</ele>
        <time>2017-06-13T00:07:39.510Z</time>
      </trkpt>
      <trkpt lat="45.333629" lon="5.659158">
        <ele>582.465459</ele>
        <time>2017-06-13T00:08:30.854Z</time>
      </trkpt>
      <trkpt lat="45.333444" lon="5.659145">
        <ele>583.324918</ele>
        <time>2017-06-13T00:08:38.012Z</time>
      </trkpt>
      <trkpt lat="45.333293" lon="5.659113">
        <ele>584.033300</ele>
        <time>2017-06-13T00:08:44.646Z</time>
      </trkpt>
      <trkpt lat="45.332585" lon="5.658846">
        <ele>586.376586</ele>
        <time>2017-06-13T00:09:12.805Z</time>
      </trkpt>
      <trkpt lat="45.331852" lon="5.658496">
        <ele>588.663996</ele>
        <time>2017-06-13T00:09:40.229Z</time>
      </trkpt>
      <trkpt lat="45.331733" lon="5.658488">
        <ele>589.016437</ele>
        <time>2017-06-13T00:09:43.868Z</time>
      </trkpt>
      <trkpt lat="45.331138" lon="5.658425">
        <ele>589.074039</ele>
        <time>2017-06-13T00:09:59.695Z</time>
      </trkpt>
      <trkpt lat="45.330314" lon="5.658198">
        <ele>587.048894</ele>
        <time>2017-06-13T00:10:14.720Z</time>
      </trkpt>
      <trkpt lat="45.330109" lon="5.658191">
        <ele>586.554114</ele>
        <time>2017-06-13T00:10:18.256Z</time>
      </trkpt>
      <trkpt lat="45.330046" lon="5.658203">
        <ele>586.400746</ele>
        <time>2017-06-13T00:10:19.140Z</time>
      </trkpt>
      <trkpt lat="45.329931" lon="5.658236">
        <ele>586.117677</ele>
        <time>2017-06-13T00:10:20.839Z</time>
      </trkpt>
      <trkpt lat="45.329593" lon="5.658325">
        <ele>584.828718</ele>
        <time>2017-06-13T00:10:25.833Z</time>
      </trkpt>
      <trkpt lat="45.329429" lon="5.658301">
        <ele>583.572361</ele>
        <time>2017-06-13T00:10:28.428Z</time>
      </trkpt>
      <trkpt lat="45.329392" lon="5.658285">
        <ele>583.277661</ele>
        <time>2017-06-13T00:10:28.957Z</time>
      </trkpt>
      <trkpt lat="45.329356" lon="5.658260">
        <ele>582.972375</ele>
        <time>2017-06-13T00:10:29.481Z</time>
      </trkpt>
      <trkpt lat="45.328976" lon="5.657725">
        <ele>578.897956</ele>
        <time>2017-06-13T00:10:37.091Z</time>
      </trkpt>
      <trkpt lat="45.328809" lon="5.657568">
        <ele>577.372487</ele>
        <time>2017-06-13T00:10:39.880Z</time>
      </trkpt>
      <trkpt lat="45.328741" lon="5.657523">
        <ele>576.800956</ele>
        <time>2017-06-13T00:10:40.888Z</time>
      </trkpt>
      <trkpt lat="45.328461" lon="5.657354">
        <ele>574.483066</ele>
        <time>2017-06-13T00:10:45.152Z</time>
      </trkpt>
      <trkpt lat="45.328047" lon="5.657025">
        <ele>570.692903</ele>
        <time>2017-06-13T00:10:51.717Z</time>
      </trkpt>
      <trkpt lat="45.327820" lon="5.656912">
        <ele>568.511082</ele>
        <time>2017-06-13T00:10:55.145Z</time>
      </trkpt>
      <trkpt lat="45.327571" lon="5.656839">
        <ele>566.204668</ele>
        <time>2017-06-13T00:10:58.669Z</time>
      </trkpt>
      <trkpt lat="45.326577" lon="5.656736">
        <ele>557.163195</ele>
        <time>2017-06-13T00:11:12.306Z</time>
      </trkpt>
      <trkpt lat="45.326221" lon="5.656601">
        <ele>553.778202</ele>
        <time>2017-06-13T00:11:17.372Z</time>
      </trkpt>
      <trkpt lat="45.326059" lon="5.656529">
        <ele>552.198915</ele>
        <time>2017-06-13T00:11:19.656Z</time>
      </trkpt>
      <trkpt lat="45.325991" lon="5.656498">
        <ele>551.534468</ele>
        <time>2017-06-13T00:11:20.678Z</time>
      </trkpt>
      <trkpt lat="45.325934" lon="5.656471">
        <ele>550.975444</ele>
        <time>2017-06-13T00:11:21.523Z</time>
      </trkpt>
      <trkpt lat="45.325739" lon="5.656356">
        <ele>549.011181</ele>
        <time>2017-06-13T00:11:24.373Z</time>
      </trkpt>
      <trkpt lat="45.324862" lon="5.655914">
        <ele>540.353529</ele>
        <time>2017-06-13T00:11:37.163Z</time>
      </trkpt>
      <trkpt lat="45.324263" lon="5.655407">
        <ele>534.807984</ele>
        <time>2017-06-13T00:11:46.782Z</time>
      </trkpt>
      <trkpt lat="45.323789" lon="5.655147">
        <ele>530.992994</ele>
        <time>2017-06-13T00:11:54.018Z</time>
      </trkpt>
      <trkpt lat="45.323271" lon="5.654560">
        <ele>526.019401</ele>
        <time>2017-06-13T00:12:03.528Z</time>
      </trkpt>
      <trkpt lat="45.322510" lon="5.654055">
        <ele>521.106991</ele>
        <time>2017-06-13T00:12:15.868Z</time>
      </trkpt>
      <trkpt lat="45.322074" lon="5.653894">
        <ele>518.578234</ele>
        <time>2017-06-13T00:12:22.494Z</time>
      </trkpt>
      <trkpt lat="45.321020" lon="5.653663">
        <ele>512.985427</ele>
        <time>2017-06-13T00:12:38.710Z</time>
      </trkpt>
      <trkpt lat="45.320925" lon="5.653642">
        <ele>512.529238</ele>
        <time>2017-06-13T00:12:40.169Z</time>
      </trkpt>
      <trkpt lat="45.320834" lon="5.653622">
        <ele>512.092317</ele>
        <time>2017-06-13T00:12:41.583Z</time>
      </trkpt>
      <trkpt lat="45.319110" lon="5.653052">
        <ele>503.479991</ele>
        <time>2017-06-13T00:13:08.598Z</time>
      </trkpt>
      <trkpt lat="45.318959" lon="5.653006">
        <ele>502.693388</ele>
        <time>2017-06-13T00:13:10.915Z</time>
      </trkpt>
      <trkpt lat="45.318768" lon="5.652983">
        <ele>501.717002</ele>
        <time>2017-06-13T00:13:13.829Z</time>
      </trkpt>
      <trkpt lat="45.318382" lon="5.652895">
        <ele>499.725714</ele>
        <time>2017-06-13T00:13:19.672Z</time>
      </trkpt>
      <trkpt lat="45.318197" lon="5.652821">
        <ele>498.746806</ele>
        <time>2017-06-13T00:13:22.526Z</time>
      </trkpt>
      <trkpt lat="45.317885" lon="5.652619">
        <ele>496.985053</ele>
        <time>2017-06-13T00:13:27.573Z</time>
      </trkpt>
      <trkpt lat="45.316545" lon="5.651687">
        <ele>489.118163</ele>
        <time>2017-06-13T00:13:49.950Z</time>
      </trkpt>
      <trkpt lat="45.315892" lon="5.651329">
        <ele>485.797907</ele>
        <time>2017-06-13T00:14:00.463Z</time>
      </trkpt>
      <trkpt lat="45.315739" lon="5.651216">
        <ele>485.021994</ele>
        <time>2017-06-13T00:14:03.073Z</time>
      </trkpt>
      <trkpt lat="45.315558" lon="5.651074">
        <ele>484.091653</ele>
        <time>2017-06-13T00:14:06.254Z</time>
      </trkpt>
      <trkpt lat="45.315510" lon="5.651041">
        <ele>483.851706</ele>
        <time>2017-06-13T00:14:07.094Z</time>
      </trkpt>
      <trkpt lat="45.315471" lon="5.651014">
        <ele>483.656489</ele>
        <time>2017-06-13T00:14:07.766Z</time>
      </trkpt>
      <trkpt lat="45.315383" lon="5.650952">
        <ele>483.214498</ele>
        <time>2017-06-13T00:14:09.261Z</time>
      </trkpt>
      <trkpt lat="45.315224" lon="5.650837">
        <ele>482.411673</ele>
        <time>2017-06-13T00:14:12.054Z</time>
      </trkpt>
      <trkpt lat="45.314913" lon="5.650612">
        <ele>480.841276</ele>
        <time>2017-06-13T00:14:17.518Z</time>
      </trkpt>
      <trkpt lat="45.314322" lon="5.650199">
        <ele>478.327472</ele>
        <time>2017-06-13T00:14:27.897Z</time>
      </trkpt>
      <trkpt lat="45.314162" lon="5.650040">
        <ele>477.648320</ele>
        <time>2017-06-13T00:14:31.064Z</time>
      </trkpt>
      <trkpt lat="45.313806" lon="5.649309">
        <ele>475.472737</ele>
        <time>2017-06-13T00:14:41.182Z</time>
      </trkpt>
      <trkpt lat="45.313298" lon="5.648465">
        <ele>472.482400</ele>
        <time>2017-06-13T00:14:54.077Z</time>
      </trkpt>
      <trkpt lat="45.313199" lon="5.648393">
        <ele>471.971259</ele>
        <time>2017-06-13T00:14:55.850Z</time>
      </trkpt>
      <trkpt lat="45.312741" lon="5.648262">
        <ele>469.823788</ele>
        <time>2017-06-13T00:15:03.084Z</time>
      </trkpt>
      <trkpt lat="45.312416" lon="5.648098">
        <ele>468.238573</ele>
        <time>2017-06-13T00:15:08.317Z</time>
      </trkpt>
      <trkpt lat="45.311890" lon="5.647714">
        <ele>465.520659</ele>
        <time>2017-06-13T00:15:17.144Z</time>
      </trkpt>
      <trkpt lat="45.311560" lon="5.647385">
        <ele>463.140865</ele>
        <time>2017-06-13T00:15:23.078Z</time>
      </trkpt>
      <trkpt lat="45.311419" lon="5.647174">
        <ele>461.902213</ele>
        <time>2017-06-13T00:15:26.070Z</time>
      </trkpt>
      <trkpt lat="45.310634" lon="5.645656">
        <ele>453.819236</ele>
        <time>2017-06-13T00:15:45.442Z</time>
      </trkpt>
      <trkpt lat="45.310509" lon="5.645336">
        <ele>452.084086</ele>
        <time>2017-06-13T00:15:49.298Z</time>
      </trkpt>
      <trkpt lat="45.310244" lon="5.644305">
        <ele>446.880740</ele>
        <time>2017-06-13T00:16:00.339Z</time>
      </trkpt>
      <trkpt lat="45.310200" lon="5.644119">
        <ele>445.950514</ele>
        <time>2017-06-13T00:16:02.270Z</time>
      </trkpt>
      <trkpt lat="45.310177" lon="5.644036">
        <ele>445.527634</ele>
        <time>2017-06-13T00:16:03.199Z</time>
      </trkpt>
      <trkpt lat="45.310146" lon="5.643954">
        <ele>445.086333</ele>
        <time>2017-06-13T00:16:04.249Z</time>
      </trkpt>
      <trkpt lat="45.310103" lon="5.643865">
        <ele>444.574486</ele>
        <time>2017-06-13T00:16:05.395Z</time>
      </trkpt>
      <trkpt lat="45.310058" lon="5.643798">
        <ele>444.135321</ele>
        <time>2017-06-13T00:16:06.236Z</time>
      </trkpt>
      <trkpt lat="45.309646" lon="5.643476">
        <ele>440.894659</ele>
        <time>2017-06-13T00:16:13.113Z</time>
      </trkpt>
      <trkpt lat="45.309353" lon="5.643161">
        <ele>438.288060</ele>
        <time>2017-06-13T00:16:18.436Z</time>
      </trkpt>
      <trkpt lat="45.309260" lon="5.643001">
        <ele>437.252138</ele>
        <time>2017-06-13T00:16:20.705Z</time>
      </trkpt>
      <trkpt lat="45.309197" lon="5.642719">
        <ele>435.775479</ele>
        <time>2017-06-13T00:16:23.641Z</time>
      </trkpt>
      <trkpt lat="45.309201" lon="5.642414">
        <ele>434.253071</ele>
        <time>2017-06-13T00:16:26.823Z</time>
      </trkpt>
      <trkpt lat="45.309256" lon="5.642204">
        <ele>433.134724</ele>
        <time>2017-06-13T00:16:28.916Z</time>
      </trkpt>
      <trkpt lat="45.309516" lon="5.641608">
        <ele>429.634553</ele>
        <time>2017-06-13T00:16:36.096Z</time>
      </trkpt>
      <trkpt lat="45.309826" lon="5.641129">
        <ele>425.154274</ele>
        <time>2017-06-13T00:16:42.582Z</time>
      </trkpt>
      <trkpt lat="45.309858" lon="5.640897">
        <ele>423.517028</ele>
        <time>2017-06-13T00:16:44.781Z</time>
      </trkpt>
      <trkpt lat="45.309822" lon="5.640645">
        <ele>421.736247</ele>
        <time>2017-06-13T00:16:47.415Z</time>
      </trkpt>
      <trkpt lat="45.309799" lon="5.640550">
        <ele>421.040464</ele>
        <time>2017-06-13T00:16:48.391Z</time>
      </trkpt>
      <trkpt lat="45.309768" lon="5.640459">
        <ele>420.340234</ele>
        <time>2017-06-13T00:16:49.296Z</time>
      </trkpt>
      <trkpt lat="45.309641" lon="5.640210">
        <ele>418.210119</ele>
        <time>2017-06-13T00:16:52.380Z</time>
      </trkpt>
      <trkpt lat="45.309264" lon="5.639858">
        <ele>413.768982</ele>
        <time>2017-06-13T00:16:58.422Z</time>
      </trkpt>
      <trkpt lat="45.309115" lon="5.639673">
        <ele>411.816898</ele>
        <time>2017-06-13T00:17:01.041Z</time>
      </trkpt>
      <trkpt lat="45.308160" lon="5.638184">
        <ele>395.930353</ele>
        <time>2017-06-13T00:17:19.927Z</time>
      </trkpt>
      <trkpt lat="45.307875" lon="5.637651">
        <ele>390.841561</ele>
        <time>2017-06-13T00:17:26.411Z</time>
      </trkpt>
      <trkpt lat="45.307480" lon="5.637362">
        <ele>386.771415</ele>
        <time>2017-06-13T00:17:32.490Z</time>
      </trkpt>
      <trkpt lat="45.306579" lon="5.636881">
        <ele>377.953458</ele>
        <time>2017-06-13T00:17:45.827Z</time>
      </trkpt>
      <trkpt lat="45.306507" lon="5.636801">
        <ele>377.116231</ele>
        <time>2017-06-13T00:17:47.072Z</time>
      </trkpt>
      <trkpt lat="45.306436" lon="5.636641">
        <ele>375.897123</ele>
        <time>2017-06-13T00:17:48.997Z</time>
      </trkpt>
      <trkpt lat="45.306398" lon="5.636523">
        <ele>375.001229</ele>
        <time>2017-06-13T00:17:50.303Z</time>
      </trkpt>
      <trkpt lat="45.306330" lon="5.636393">
        <ele>373.541680</ele>
        <time>2017-06-13T00:17:51.828Z</time>
      </trkpt>
      <trkpt lat="45.306159" lon="5.636291">
        <ele>371.166370</ele>
        <time>2017-06-13T00:17:54.488Z</time>
      </trkpt>
      <trkpt lat="45.305660" lon="5.636256">
        <ele>364.766827</ele>
        <time>2017-06-13T00:18:01.097Z</time>
      </trkpt>
      <trkpt lat="45.305195" lon="5.635977">
        <ele>358.301936</ele>
        <time>2017-06-13T00:18:07.633Z</time>
      </trkpt>
      <trkpt lat="45.304719" lon="5.636008">
        <ele>352.198383</ele>
        <time>2017-06-13T00:18:13.854Z</time>
      </trkpt>
      <trkpt lat="45.304559" lon="5.636016">
        <ele>350.027108</ele>
        <time>2017-06-13T00:18:15.966Z</time>
      </trkpt>
      <trkpt lat="45.304553" lon="5.636089">
        <ele>349.325523</ele>
        <time>2017-06-13T00:18:17.131Z</time>
      </trkpt>
      <trkpt lat="45.304532" lon="5.636420">
        <ele>346.153036</ele>
        <time>2017-06-13T00:18:22.576Z</time>
      </trkpt>
      <trkpt lat="45.304483" lon="5.636581">
        <ele>344.478446</ele>
        <time>2017-06-13T00:18:25.453Z</time>
      </trkpt>
      <trkpt lat="45.304469" lon="5.636790">
        <ele>342.474344</ele>
        <time>2017-06-13T00:18:29.037Z</time>
      </trkpt>
      <trkpt lat="45.304434" lon="5.636903">
        <ele>341.295704</ele>
        <time>2017-06-13T00:18:30.198Z</time>
      </trkpt>
      <trkpt lat="45.304342" lon="5.637043">
        <ele>339.466744</ele>
        <time>2017-06-13T00:18:32.040Z</time>
      </trkpt>
      <trkpt lat="45.304444" lon="5.637422">
        <ele>335.593064</ele>
        <time>2017-06-13T00:18:35.978Z</time>
      </trkpt>
      <trkpt lat="45.304513" lon="5.637543">
        <ele>334.106083</ele>
        <time>2017-06-13T00:18:37.497Z</time>
      </trkpt>
      <trkpt lat="45.304906" lon="5.637824">
        <ele>328.135742</ele>
        <time>2017-06-13T00:18:43.489Z</time>
      </trkpt>
      <trkpt lat="45.304911" lon="5.637872">
        <ele>327.705344</ele>
        <time>2017-06-13T00:18:43.961Z</time>
      </trkpt>
      <trkpt lat="45.304823" lon="5.637909">
        <ele>326.927013</ele>
        <time>2017-06-13T00:18:45.233Z</time>
      </trkpt>
      <trkpt lat="45.304367" lon="5.637791">
        <ele>322.995874</ele>
        <time>2017-06-13T00:18:51.987Z</time>
      </trkpt>
      <trkpt lat="45.303949" lon="5.637820">
        <ele>319.446353</ele>
        <time>2017-06-13T00:18:58.266Z</time>
      </trkpt>
      <trkpt lat="45.303913" lon="5.637787">
        <ele>319.083056</ele>
        <time>2017-06-13T00:18:58.848Z</time>
      </trkpt>
      <trkpt lat="45.303821" lon="5.637495">
        <ele>317.174345</ele>
        <time>2017-06-13T00:19:02.157Z</time>
      </trkpt>
      <trkpt lat="45.303362" lon="5.636995">
        <ele>312.379639</ele>
        <time>2017-06-13T00:19:10.815Z</time>
      </trkpt>
      <trkpt lat="45.303006" lon="5.636797">
        <ele>310.652438</ele>
        <time>2017-06-13T00:19:16.788Z</time>
      </trkpt>
      <trkpt lat="45.302892" lon="5.636856">
        <ele>310.104290</ele>
        <time>2017-06-13T00:19:18.683Z</time>
      </trkpt>
      <trkpt lat="45.303041" lon="5.637075">
        <ele>309.135988</ele>
        <time>2017-06-13T00:19:21.897Z</time>
      </trkpt>
      <trkpt lat="45.303126" lon="5.637244">
        <ele>308.475726</ele>
        <time>2017-06-13T00:19:24.169Z</time>
      </trkpt>
      <trkpt lat="45.303242" lon="5.637896">
        <ele>306.338442</ele>
        <time>2017-06-13T00:19:32.038Z</time>
      </trkpt>
      <trkpt lat="45.303242" lon="5.637987">
        <ele>306.049249</ele>
        <time>2017-06-13T00:19:33.026Z</time>
      </trkpt>
      <trkpt lat="45.303239" lon="5.638196">
        <ele>305.384920</ele>
        <time>2017-06-13T00:19:35.425Z</time>
      </trkpt>
      <trkpt lat="45.303243" lon="5.638356">
        <ele>304.876127</ele>
        <time>2017-06-13T00:19:37.363Z</time>
      </trkpt>
      <trkpt lat="45.303290" lon="5.638568">
        <ele>304.148450</ele>
        <time>2017-06-13T00:19:39.903Z</time>
      </trkpt>
      <trkpt lat="45.303693" lon="5.638846">
        <ele>301.917702</ele>
        <time>2017-06-13T00:19:46.825Z</time>
      </trkpt>
      <trkpt lat="45.303724" lon="5.638961">
        <ele>301.486313</ele>
        <time>2017-06-13T00:19:48.423Z</time>
      </trkpt>
      <trkpt lat="45.303722" lon="5.639000">
        <ele>301.349342</ele>
        <time>2017-06-13T00:19:48.816Z</time>
      </trkpt>
      <trkpt lat="45.303667" lon="5.639119">
        <ele>300.850573</ele>
        <time>2017-06-13T00:19:50.274Z</time>
      </trkpt>
      <trkpt lat="45.303507" lon="5.639151">
        <ele>300.045908</ele>
        <time>2017-06-13T00:19:52.857Z</time>
      </trkpt>
      <trkpt lat="45.303127" lon="5.638803">
        <ele>297.794854</ele>
        <time>2017-06-13T00:19:59.714Z</time>
      </trkpt>
      <trkpt lat="45.302836" lon="5.638672">
        <ele>296.274727</ele>
        <time>2017-06-13T00:20:04.307Z</time>
      </trkpt>
      <trkpt lat="45.302619" lon="5.638586">
        <ele>294.968233</ele>
        <time>2017-06-13T00:20:07.520Z</time>
      </trkpt>
      <trkpt lat="45.301896" lon="5.638311">
        <ele>288.669470</ele>
        <time>2017-06-13T00:20:17.983Z</time>
      </trkpt>
      <trkpt lat="45.301150" lon="5.638164">
        <ele>282.331114</ele>
        <time>2017-06-13T00:20:28.241Z</time>
      </trkpt>
      <trkpt lat="45.300566" lon="5.638037">
        <ele>277.475075</ele>
        <time>2017-06-13T00:20:36.490Z</time>
      </trkpt>
      <trkpt lat="45.300385" lon="5.638004">
        <ele>276.000269</ele>
        <time>2017-06-13T00:20:39.088Z</time>
      </trkpt>
      <trkpt lat="45.300323" lon="5.637993">
        <ele>275.495303</ele>
        <time>2017-06-13T00:20:39.985Z</time>
      </trkpt>
      <trkpt lat="45.300248" lon="5.637992">
        <ele>274.889133</ele>
        <time>2017-06-13T00:20:41.026Z</time>
      </trkpt>
      <trkpt lat="45.300110" lon="5.637999">
        <ele>273.773118</ele>
        <time>2017-06-13T00:20:42.993Z</time>
      </trkpt>
      <trkpt lat="45.299547" lon="5.638081">
        <ele>269.199183</ele>
        <time>2017-06-13T00:20:50.848Z</time>
      </trkpt>
      <trkpt lat="45.299088" lon="5.638023">
        <ele>265.500691</ele>
        <time>2017-06-13T00:20:57.305Z</time>
      </trkpt>
      <trkpt lat="45.298810" lon="5.637914">
        <ele>263.390856</ele>
        <time>2017-06-13T00:21:01.394Z</time>
      </trkpt>
      <trkpt lat="45.298673" lon="5.637743">
        <ele>262.057041</ele>
        <time>2017-06-13T00:21:04.033Z</time>
      </trkpt>
      <trkpt lat="45.298605" lon="5.637615">
        <ele>261.231556</ele>
        <time>2017-06-13T00:21:05.621Z</time>
      </trkpt>
      <trkpt lat="45.298540" lon="5.637480">
        <ele>260.389637</ele>
        <time>2017-06-13T00:21:07.371Z</time>
      </trkpt>
      <trkpt lat="45.298505" lon="5.637409">
        <ele>259.943456</ele>
        <time>2017-06-13T00:21:08.267Z</time>
      </trkpt>
      <trkpt lat="45.298441" lon="5.637279">
        <ele>259.126858</ele>
        <time>2017-06-13T00:21:09.845Z</time>
      </trkpt>
      <trkpt lat="45.298351" lon="5.637088">
        <ele>257.943749</ele>
        <time>2017-06-13T00:21:12.208Z</time>
      </trkpt>
      <trkpt lat="45.298220" lon="5.636814">
        <ele>256.238778</ele>
        <time>2017-06-13T00:21:15.510Z</time>
      </trkpt>
      <trkpt lat="45.298185" lon="5.636736">
        <ele>255.762644</ele>
        <time>2017-06-13T00:21:16.433Z</time>
      </trkpt>
      <trkpt lat="45.298146" lon="5.636638">
        <ele>255.183185</ele>
        <time>2017-06-13T00:21:17.607Z</time>
      </trkpt>
      <trkpt lat="45.298124" lon="5.636559">
        <ele>254.745923</ele>
        <time>2017-06-13T00:21:18.469Z</time>
      </trkpt>
      <trkpt lat="45.298088" lon="5.636429">
        <ele>254.026921</ele>
        <time>2017-06-13T00:21:19.820Z</time>
      </trkpt>
      <trkpt lat="45.298083" lon="5.636376">
        <ele>253.751723</ele>
        <time>2017-06-13T00:21:20.344Z</time>
      </trkpt>
      <trkpt lat="45.298065" lon="5.636330">
        <ele>253.480828</ele>
        <time>2017-06-13T00:21:20.854Z</time>
      </trkpt>
      <trkpt lat="45.298039" lon="5.636296">
        <ele>253.222370</ele>
        <time>2017-06-13T00:21:21.360Z</time>
      </trkpt>
      <trkpt lat="45.298005" lon="5.636278">
        <ele>252.956931</ele>
        <time>2017-06-13T00:21:21.889Z</time>
      </trkpt>
      <trkpt lat="45.297969" lon="5.636277">
        <ele>252.693498</ele>
        <time>2017-06-13T00:21:22.410Z</time>
      </trkpt>
      <trkpt lat="45.297935" lon="5.636293">
        <ele>252.431926</ele>
        <time>2017-06-13T00:21:22.932Z</time>
      </trkpt>
      <trkpt lat="45.297908" lon="5.636325">
        <ele>252.175493</ele>
        <time>2017-06-13T00:21:23.440Z</time>
      </trkpt>
      <trkpt lat="45.297889" lon="5.636369">
        <ele>251.910562</ele>
        <time>2017-06-13T00:21:23.944Z</time>
      </trkpt>
      <trkpt lat="45.297828" lon="5.636381">
        <ele>251.461331</ele>
        <time>2017-06-13T00:21:24.784Z</time>
      </trkpt>
      <trkpt lat="45.297786" lon="5.636362">
        <ele>251.139805</ele>
        <time>2017-06-13T00:21:25.390Z</time>
      </trkpt>
      <trkpt lat="45.297737" lon="5.636341">
        <ele>250.766463</ele>
        <time>2017-06-13T00:21:26.087Z</time>
      </trkpt>
      <trkpt lat="45.297671" lon="5.636257">
        <ele>250.120239</ele>
        <time>2017-06-13T00:21:27.364Z</time>
      </trkpt>
      <trkpt lat="45.297395" lon="5.635752">
        <ele>246.838619</ele>
        <time>2017-06-13T00:21:33.729Z</time>
      </trkpt>
      <trkpt lat="45.297323" lon="5.635673">
        <ele>246.175136</ele>
        <time>2017-06-13T00:21:35.035Z</time>
      </trkpt>
      <trkpt lat="45.297298" lon="5.635645">
        <ele>245.942963</ele>
        <time>2017-06-13T00:21:35.506Z</time>
      </trkpt>
      <trkpt lat="45.297116" lon="5.635310">
        <ele>243.770903</ele>
        <time>2017-06-13T00:21:39.953Z</time>
      </trkpt>
      <trkpt lat="45.296739" lon="5.634655">
        <ele>239.433469</ele>
        <time>2017-06-13T00:21:48.971Z</time>
      </trkpt>
      <trkpt lat="45.296726" lon="5.634636">
        <ele>239.316836</ele>
        <time>2017-06-13T00:21:49.221Z</time>
      </trkpt>
      <trkpt lat="45.296411" lon="5.634082">
        <ele>236.182238</ele>
        <time>2017-06-13T00:21:56.802Z</time>
      </trkpt>
      <trkpt lat="45.296253" lon="5.633817">
        <ele>234.653620</ele>
        <time>2017-06-13T00:22:00.505Z</time>
      </trkpt>
      <trkpt lat="45.296150" lon="5.633659">
        <ele>233.705708</ele>
        <time>2017-06-13T00:22:02.826Z</time>
      </trkpt>
      <trkpt lat="45.295717" lon="5.632910">
        <ele>229.439591</ele>
        <time>2017-06-13T00:22:13.407Z</time>
      </trkpt>
      <trkpt lat="45.295340" lon="5.631970">
        <ele>225.385592</ele>
        <time>2017-06-13T00:22:25.183Z</time>
      </trkpt>
      <trkpt lat="45.295108" lon="5.631217">
        <ele>222.491768</ele>
        <time>2017-06-13T00:22:34.503Z</time>
      </trkpt>
      <trkpt lat="45.294994" lon="5.630891">
        <ele>221.210198</ele>
        <time>2017-06-13T00:22:38.584Z</time>
      </trkpt>
      <trkpt lat="45.294950" lon="5.630662">
        <ele>220.374534</ele>
        <time>2017-06-13T00:22:41.247Z</time>
      </trkpt>
      <trkpt lat="45.294769" lon="5.629766">
        <ele>217.539834</ele>
        <time>2017-06-13T00:22:51.921Z</time>
      </trkpt>
      <trkpt lat="45.294643" lon="5.629529">
        <ele>216.714399</ele>
        <time>2017-06-13T00:22:55.380Z</time>
      </trkpt>
      <trkpt lat="45.294574" lon="5.629403">
        <ele>216.270721</ele>
        <time>2017-06-13T00:22:57.210Z</time>
      </trkpt>
      <trkpt lat="45.294567" lon="5.629340">
        <ele>216.093500</ele>
        <time>2017-06-13T00:22:57.932Z</time>
      </trkpt>
      <trkpt lat="45.294559" lon="5.629283">
        <ele>215.931999</ele>
        <time>2017-06-13T00:22:58.572Z</time>
      </trkpt>
      <trkpt lat="45.294583" lon="5.629210">
        <ele>215.708104</ele>
        <time>2017-06-13T00:22:59.543Z</time>
      </trkpt>
      <trkpt lat="45.294523" lon="5.629156">
        <ele>215.427607</ele>
        <time>2017-06-13T00:23:00.644Z</time>
      </trkpt>
      <trkpt lat="45.294223" lon="5.629244">
        <ele>214.217680</ele>
        <time>2017-06-13T00:23:05.489Z</time>
      </trkpt>
      <trkpt lat="45.293340" lon="5.629754">
        <ele>210.923313</ele>
        <time>2017-06-13T00:23:20.865Z</time>
      </trkpt>
      <trkpt lat="45.293318" lon="5.629740">
        <ele>210.855132</ele>
        <time>2017-06-13T00:23:21.214Z</time>
      </trkpt>
      <trkpt lat="45.292550" lon="5.630210">
        <ele>208.489960</ele>
        <time>2017-06-13T00:23:35.984Z</time>
      </trkpt>
      <trkpt lat="45.292493" lon="5.630122">
        <ele>208.251925</ele>
        <time>2017-06-13T00:23:37.444Z</time>
      </trkpt>
      <trkpt lat="45.292463" lon="5.630138">
        <ele>208.161289</ele>
        <time>2017-06-13T00:23:37.932Z</time>
      </trkpt>
      <trkpt lat="45.292456" lon="5.630236">
        <ele>207.965274</ele>
        <time>2017-06-13T00:23:39.174Z</time>
      </trkpt>
      <trkpt lat="45.292399" lon="5.630312">
        <ele>207.744214</ele>
        <time>2017-06-13T00:23:40.433Z</time>
      </trkpt>
      <trkpt lat="45.291626" lon="5.631065">
        <ele>205.741030</ele>
        <time>2017-06-13T00:23:56.540Z</time>
      </trkpt>
      <trkpt lat="45.291324" lon="5.631571">
        <ele>204.863936</ele>
        <time>2017-06-13T00:24:04.887Z</time>
      </trkpt>
      <trkpt lat="45.291131" lon="5.631971">
        <ele>204.222812</ele>
        <time>2017-06-13T00:24:11.245Z</time>
      </trkpt>
      <trkpt lat="45.290950" lon="5.632238">
        <ele>203.732705</ele>
        <time>2017-06-13T00:24:16.124Z</time>
      </trkpt>
      <trkpt lat="45.290615" lon="5.632526">
        <ele>203.103847</ele>
        <time>2017-06-13T00:24:23.391Z</time>
      </trkpt>
      <trkpt lat="45.290507" lon="5.632628">
        <ele>202.900507</ele>
        <time>2017-06-13T00:24:25.743Z</time>
      </trkpt>
      <trkpt lat="45.290287" lon="5.632842">
        <ele>202.482458</ele>
        <time>2017-06-13T00:24:30.576Z</time>
      </trkpt>
      <trkpt lat="45.290265" lon="5.632923">
        <ele>202.386668</ele>
        <time>2017-06-13T00:24:31.686Z</time>
      </trkpt>
      <trkpt lat="45.289686" lon="5.633439">
        <ele>201.314988</ele>
        <time>2017-06-13T00:24:44.126Z</time>
      </trkpt>
      <trkpt lat="45.289487" lon="5.633574">
        <ele>200.969200</ele>
        <time>2017-06-13T00:24:48.280Z</time>
      </trkpt>
      <trkpt lat="45.289298" lon="5.633648">
        <ele>200.645323</ele>
        <time>2017-06-13T00:24:52.013Z</time>
      </trkpt>
      <trkpt lat="45.289144" lon="5.633624">
        <ele>200.377426</ele>
        <time>2017-06-13T00:24:54.950Z</time>
      </trkpt>
      <trkpt lat="45.289124" lon="5.633610">
        <ele>200.338874</ele>
        <time>2017-06-13T00:24:55.287Z</time>
      </trkpt>
      <trkpt lat="45.288856" lon="5.633560">
        <ele>199.871465</ele>
        <time>2017-06-13T00:25:00.333Z</time>
      </trkpt>
      <trkpt lat="45.288608" lon="5.633661">
        <ele>199.425359</ele>
        <time>2017-06-13T00:25:04.973Z</time>
      </trkpt>
      <trkpt lat="45.286849" lon="5.634910">
        <ele>196.212569</ele>
        <time>2017-06-13T00:25:40.105Z</time>
      </trkpt>
      <trkpt lat="45.286382" lon="5.635217">
        <ele>195.421674</ele>
        <time>2017-06-13T00:25:49.577Z</time>
      </trkpt>
      <trkpt lat="45.285654" lon="5.635695">
        <ele>194.752320</ele>
        <time>2017-06-13T00:26:04.917Z</time>
      </trkpt>
      <trkpt lat="45.284230" lon="5.636606">
        <ele>194.301053</ele>
        <time>2017-06-13T00:26:38.901Z</time>
      </trkpt>
      <trkpt lat="45.283964" lon="5.636840">
        <ele>194.379330</ele>
        <time>2017-06-13T00:26:46.358Z</time>
      </trkpt>
      <trkpt lat="45.283908" lon="5.636872">
        <ele>194.394433</ele>
        <time>2017-06-13T00:26:47.844Z</time>
      </trkpt>
      <trkpt lat="45.283861" lon="5.636763">
        <ele>194.416940</ele>
        <time>2017-06-13T00:26:50.204Z</time>
      </trkpt>
      <trkpt lat="45.283794" lon="5.636570">
        <ele>194.454829</ele>
        <time>2017-06-13T00:26:53.897Z</time>
      </trkpt>
      <trkpt lat="45.283612" lon="5.636263">
        <ele>194.525507</ele>
        <time>2017-06-13T00:27:01.076Z</time>
      </trkpt>
      <trkpt lat="45.283194" lon="5.635643">
        <ele>194.676684</ele>
        <time>2017-06-13T00:27:16.137Z</time>
      </trkpt>
      <trkpt lat="45.282461" lon="5.634407">
        <ele>194.337363</ele>
        <time>2017-06-13T00:27:41.588Z</time>
      </trkpt>
      <trkpt lat="45.281687" lon="5.633222">
        <ele>193.871944</ele>
        <time>2017-06-13T00:28:05.572Z</time>
      </trkpt>
      <trkpt lat="45.281623" lon="5.633125">
        <ele>193.820058</ele>
        <time>2017-06-13T00:28:07.490Z</time>
      </trkpt>
      <trkpt lat="45.281606" lon="5.633099">
        <ele>193.806209</ele>
        <time>2017-06-13T00:28:08.002Z</time>
      </trkpt>
      <trkpt lat="45.281348" lon="5.633024">
        <ele>193.660174</ele>
        <time>2017-06-13T00:28:13.501Z</time>
      </trkpt>
      <trkpt lat="45.280617" lon="5.632631">
        <ele>193.226764</ele>
        <time>2017-06-13T00:28:29.979Z</time>
      </trkpt>
      <trkpt lat="45.279705" lon="5.632037">
        <ele>193.119349</ele>
        <time>2017-06-13T00:28:52.880Z</time>
      </trkpt>
      <trkpt lat="45.279365" lon="5.631760">
        <ele>193.121117</ele>
        <time>2017-06-13T00:29:02.024Z</time>
      </trkpt>
      <trkpt lat="45.279270" lon="5.631746">
        <ele>193.121549</ele>
        <time>2017-06-13T00:29:04.240Z</time>
      </trkpt>
      <trkpt lat="45.277355" lon="5.632435">
        <ele>193.618838</ele>
        <time>2017-06-13T00:29:51.967Z</time>
      </trkpt>
      <trkpt lat="45.274463" lon="5.633322">
        <ele>195.034568</ele>
        <time>2017-06-13T00:31:08.119Z</time>
      </trkpt>
      <trkpt lat="45.273527" lon="5.633472">
        <ele>195.237023</ele>
        <time>2017-06-13T00:31:29.681Z</time>
      </trkpt>
      <trkpt lat="45.273498" lon="5.633483">
        <ele>195.242656</ele>
        <time>2017-06-13T00:31:30.182Z</time>
      </trkpt>
      <trkpt lat="45.273457" lon="5.633152">
        <ele>195.184690</ele>
        <time>2017-06-13T00:31:35.381Z</time>
      </trkpt>
      <trkpt lat="45.273156" lon="5.630564">
        <ele>194.802277</ele>
        <time>2017-06-13T00:32:14.635Z</time>
      </trkpt>
      <trkpt lat="45.273016" lon="5.628663">
        <ele>194.802277</ele>
        <time>2017-06-13T00:32:45.756Z</time>
      </trkpt>
      <trkpt lat="45.273014" lon="5.628511">
        <ele>194.802277</ele>
        <time>2017-06-13T00:32:48.264Z</time>
      </trkpt>
      <trkpt lat="45.272956" lon="5.628540">
        <ele>194.802277</ele>
        <time>2017-06-13T00:32:50.098Z</time>
      </trkpt>
      <trkpt lat="45.272277" lon="5.628841">
        <ele>194.802277</ele>
        <time>2017-06-13T00:33:11.433Z</time>
      </trkpt>
    </trkseg>
  </trk>
</gpx>